[[{"header":{"parameterUnit":"m.s-1","parameterCategory":1,"la1":31.0,"la2":29.5877,"lo1":-88.7671,"lo2":-86.6584,"dy":0.0162,"dx":0.0185,"nx":115,"ny":88,"refTime":"2024-08-17T06:00:00:Z","depth":0,"parameterNumber":2,"parameterNumberName":"U-component_of_WINDS"},"data":[0.0,0.0,0.0,0.0,0.0,0.0,0.0,0.0,0.0,0.0,0.0,0.0,0.0,0.0,0.0,0.0,0.0,0.0,0.0,0.0,0.0,0.0,0.0,0.0,0.0,0.0,0.0,0.0,0.0,0.0,0.0,0.0,0.0,0.0,0.0,0.0,0.0,0.0,0.0,0.0,0.0,0.0,0.0,0.0,0.0,0.0,0.0,0.0,0.0,0.0,0.0,0.0,0.0,0.0,0.0,0.0,0.0,0.0,0.0,0.0,0.0,0.0,0.0,0.0,0.0,0.0,0.0,0.0,0.0,0.0,0.0,0.0,0.0,0.0,0.0,0.0,0.0,0.0,0.0,0.0,0.0,0.0,0.0,0.0,0.0,0.0,0.0,0.0,0.0,0.0,0.0,0.0,0.0,0.0,0.0,0.0,0.0,0.0,0.0,0.0,0.0,0.0,0.0,0.0,0.0,0.0,0.0,0.0,0.0,0.0,0.0,0.0,0.0,0.0,0.0,0.0,0.0,0.0,0.0,0.0,0.0,0.0,0.0,0.0,0.0,0.0,0.0,0.0,0.0,0.0,0.0,0.0,0.0,0.0,0.0,0.0,0.0,0.0,0.0,0.0,0.0,0.0,0.0,0.0,0.0,0.0,0.0,0.0,0.0,0.0,0.0,0.0,0.0,0.0,0.0,0.0,0.0,0.0,0.0,0.0,0.0,0.0,0.0,0.0,0.0,0.0,0.0,0.0,0.0,0.0,0.0,0.0,0.0,0.0,0.0,0.0,0.0,0.0,0.0,0.0,0.0,0.0,0.0,0.0,0.0,0.0,0.0,0.0,0.0,0.0,0.0,0.0,0.0,0.0,0.0,0.0,0.0,0.0,0.0,0.0,0.0,0.0,0.0,0.0,0.0,0.0,0.0,0.0,0.0,0.0,0.0,0.0,0.0,0.0,0.0,0.0,0.0,0.0,0.0,0.0,0.0,0.0,0.0,0.0,0.0,0.0,0.0,0.0,0.0,0.0,0.0,0.0,0.0,0.0,0.0,0.0,0.0,0.0,0.0,0.0,0.0,0.0,0.0,0.0,0.0,0.0,0.0,0.0,0.0,0.0,0.0,0.0,0.0,0.0,0.0,0.0,0.0,0.0,0.0,0.0,0.0,0.0,0.0,0.0,0.0,0.0,0.0,0.0,0.0,0.0,0.0,0.0,0.0,0.0,0.0,0.0,0.0,0.0,0.0,0.0,0.0,0.0,0.0,0.0,0.0,0.0,0.0,0.0,0.0,0.0,0.0,0.0,0.0,0.0,0.0,0.0,0.0,0.0,0.0,0.0,0.0,0.0,0.0,0.0,0.0,0.0,0.0,0.0,0.0,0.0,0.0,0.0,0.0,0.0,0.0,0.0,0.0,0.0,0.0,0.0,0.0,0.0,0.0,0.0,0.0,0.0,0.0,0.0,0.0,0.0,0.0,0.0,0.0,0.0,0.0,0.0,0.0,0.0,0.0,0.0,0.0,0.0,0.0,0.0,0.0,0.0,0.0,0.0,0.0,0.0,0.0,0.0,0.0,0.0,0.0,0.0,0.0,0.0,0.0,0.0,0.0,0.0,0.0,0.0,0.0,0.0,0.0,0.0,0.0,0.0,0.0,0.0,0.0,0.0,0.0,0.0,0.0,0.0,0.0,0.0,0.0,0.0,0.0,0.0,0.0,0.0,0.0,0.0,0.0,0.0,0.0,0.0,0.0,0.0,0.0,0.0,0.0,0.0,0.0,0.0,0.0,0.0,0.0,0.0,0.0,0.0,0.0,0.0,0.0,0.0,0.0,0.0,0.0,0.0,0.0,0.0,0.0,0.0,0.0,0.0,0.0,0.0,0.0,0.0,0.0,0.0,0.0,0.0,0.0,0.0,0.0,0.0,0.0,0.0,0.0,0.0,0.0,0.0,0.0,0.0,0.0,0.0,0.0,0.0,0.0,0.0,0.0,0.0,0.0,0.0,0.0,0.0,0.0,0.0,0.0,0.0,0.0,0.0,0.0,0.0,0.0,0.0,0.0,0.0,0.0,0.0,0.0,0.0,0.0,0.0,0.0,0.0,0.0,0.0,0.0,0.0,0.0,0.0,0.0,0.0,0.0,0.0,0.0,0.0,0.0,0.0,0.0,0.0,0.0,0.0,0.0,0.0,0.0,0.0,0.0,0.0,0.0,0.0,0.0,0.0,0.0,0.0,0.0,0.0,0.0,0.0,0.0,0.0,0.0,0.0,0.0,0.0,0.0,0.0,0.0,0.0,0.0,0.0,0.0,0.0,0.0,0.0,0.0,0.0,0.0,0.0,0.0,0.0,0.0,0.0,0.0,0.0,0.0,0.0,0.0,0.0,0.0,0.0,0.0,0.0,0.0,0.0,0.0,0.0,0.0,0.0,0.0,0.0,0.0,0.0,0.0,0.0,0.0,0.0,0.0,0.0,0.0,0.0,0.0,0.0,0.0,0.0,0.0,0.0,0.0,0.0,0.0,0.0,0.0,0.0,0.0,0.0,0.0,0.0,0.0,0.0,0.0,0.0,0.0,0.0,0.0,0.0,0.0,0.0,0.0,0.0,0.0,0.0,0.0,0.0,0.0,0.0,0.0,0.0,0.0,0.0,0.0,0.0,0.0,0.0,0.0,0.0,0.0,0.0,0.0,0.0,0.0,0.0,0.0,0.0,0.0,0.0,0.0,0.0,0.0,0.0,0.0,0.0,0.0,0.0,0.0,0.0,0.0,0.0,0.0,0.0,0.0,0.0,0.0,0.0,0.0,0.0,0.0,0.0,0.0,0.0,0.0,0.0,0.0,0.0,0.0,0.0,0.0,0.0,0.0,0.0,0.0,0.0,0.0,0.0,0.0,0.0,0.0,0.0,0.0,0.0,0.0,0.0,0.0,0.0,0.0,0.0,0.0,0.0,0.0,0.0,0.0,0.0,0.0,0.0,0.0,0.0,0.0,0.0,0.0,0.0,0.0,0.0,0.0,0.0,0.0,0.0,0.0,0.0,0.0,0.0,0.0,0.0,0.0,0.0,0.0,0.0,0.0,0.0,0.0,0.0,0.0,0.0,0.0,0.0,0.0,0.0,0.0,0.0,0.0,0.0,0.0,0.0,0.0,0.0,0.0,0.0,0.0,0.0,0.0,0.0,0.0,0.0,0.0,0.0,0.0,0.0,0.0,0.0,0.0,0.0,0.0,0.0,0.0,0.0,0.0,0.0,0.0,0.0,0.0,0.0,0.0,0.0,0.0,0.0,0.0,0.0,0.0,0.0,0.0,0.0,0.0,0.0,0.0,0.0,0.0,0.0,0.0,0.0,0.0,0.0,0.0,0.0,0.0,0.0,0.0,0.0,0.0,0.0,0.0,0.0,0.0,0.0,0.0,0.0,0.0,0.0,0.0,0.0,0.0,0.0,0.0,0.0,0.0,0.0,0.0,0.0,0.0,0.0,0.0,0.0,0.0,0.0,0.0,0.0,0.0,0.0,0.0,0.0,0.0,0.0,0.0,0.0,0.0,0.0,0.0,0.0,0.0,0.0,0.0,0.0,0.0,0.0,0.0,0.0,0.0,0.0,0.0,0.0,0.0,0.0,0.0,0.0,0.0,0.0,0.0,0.0,0.0,0.0,0.0,0.0,0.0,0.0,0.0,0.0,0.0,0.0,0.0,0.0,0.0,0.0,0.0,0.0,0.0,0.0,0.0,0.0,0.0,0.0,0.0,0.0,0.0,0.0,0.0,0.0,0.0,0.0,0.0,0.0,0.0,0.0,0.0,0.0,0.0,0.0,0.0,0.0,0.0,0.0,0.0,0.0,0.0,0.0,0.0,0.0,0.0,0.0,0.0,0.0,0.0,0.0,0.0,0.0,0.0,0.0,0.0,0.0,0.0,0.0,0.0,0.0,0.0,0.0,0.0,0.0,0.0,0.0,0.0,0.0,0.0,0.0,0.0,0.0,0.0,0.0,0.0,0.0,0.0,0.0,0.0,0.0,0.0,0.0,0.0,0.0,0.0,0.0,0.0,0.0,0.0,0.0,0.0,0.0,0.0,0.0,0.0,0.0,0.0,0.0,0.0,0.0,0.0,0.0,0.0,0.0,0.0,0.0,0.0,0.0,0.0,0.0,0.0,0.0,0.0,0.0,0.0,0.0,0.0,0.0,0.0,0.0,0.0,0.0,0.0,0.0,0.0,0.0,0.0,0.0,0.0,0.0,0.0,0.0,0.0,0.0,0.0,0.0,0.0,0.0,0.0,0.0,1.2572,0.0,0.0,0.0,0.0,0.0,0.0,0.0,0.0,0.0,0.0,0.0,0.0,0.0,0.0,0.0,0.0,0.0,0.0,0.0,0.0,0.0,0.0,0.0,0.0,0.0,0.0,0.0,0.0,0.0,0.0,0.0,0.0,0.0,0.0,0.0,0.0,0.0,0.0,0.0,0.0,0.0,0.0,0.0,0.0,0.0,0.0,0.0,0.0,0.0,0.0,0.0,0.0,0.0,0.0,0.0,0.0,0.0,0.0,0.0,0.0,0.0,0.0,0.0,0.0,0.0,0.0,0.0,0.0,0.0,0.0,0.0,0.0,0.0,0.0,0.0,0.0,0.0,0.0,0.0,0.0,0.0,0.0,0.0,0.0,0.0,0.0,0.0,0.0,0.0,0.0,0.0,0.0,0.0,0.0,0.0,0.0,0.0,0.0,0.0,0.0,0.0,0.0,0.0,0.0,0.0,0.0,0.0,0.0,0.0,0.0,1.5293,1.5278,1.4925,1.4302,1.3435,0.0,0.0,0.0,0.0,0.0,0.0,0.0,0.0,0.0,0.0,0.0,0.0,0.0,0.0,0.0,0.0,0.0,0.0,0.0,0.0,0.0,0.0,0.0,0.0,0.0,0.0,0.0,0.0,0.0,0.0,0.0,0.0,0.0,0.0,0.0,0.0,0.0,0.0,0.0,0.0,0.0,0.0,0.0,0.0,0.0,0.0,0.0,0.0,0.0,0.0,0.0,0.0,0.0,0.0,0.0,0.0,0.0,0.0,0.0,0.0,0.0,0.0,0.0,0.0,0.0,0.0,0.0,0.0,0.0,0.0,0.0,0.0,0.0,0.0,0.0,0.0,0.0,0.0,0.0,0.0,0.0,0.0,0.0,0.0,0.0,0.0,0.0,0.0,0.0,0.0,0.0,0.0,0.0,0.0,0.0,0.0,0.0,0.0,0.0,0.0,0.0,0.0,0.0,0.0,0.0,0.0,0.0,0.0,0.0,0.0,0.0,0.0,1.5287,1.4798,1.3772,0.0,0.0,0.0,0.0,0.0,0.0,0.0,0.0,0.0,0.0,0.0,0.0,0.0,0.0,0.0,0.0,0.0,0.0,0.0,0.0,0.0,0.0,0.0,0.0,0.0,0.0,0.0,0.0,0.0,0.0,0.0,0.0,0.0,0.0,0.0,0.0,0.0,0.0,0.0,0.0,0.0,0.0,0.0,0.0,0.0,0.0,0.0,0.0,0.0,0.0,0.0,0.0,0.0,0.0,0.0,0.0,0.0,0.0,0.0,0.0,0.0,0.0,0.0,0.0,0.0,0.0,0.0,0.0,0.0,0.0,0.0,0.0,0.0,0.0,0.0,0.0,0.0,0.0,0.0,0.0,0.0,0.0,0.0,0.0,0.0,0.0,0.0,0.0,0.0,0.0,0.0,0.0,0.0,0.0,0.0,0.0,0.0,0.0,0.0,0.0,0.0,0.0,0.0,0.0,0.0,0.0,0.0,0.0,0.0,0.0,1.5291,1.5295,1.5291,0.0,1.3032,0.0,0.0,0.0,0.0,0.0,0.0,0.0,0.0,0.0,0.0,0.0,0.0,0.0,0.0,0.0,0.0,0.0,0.0,0.0,0.0,0.0,0.0,0.0,0.0,0.0,0.0,0.0,0.0,0.0,0.0,0.0,0.0,0.0,0.0,0.0,0.0,0.0,0.0,0.0,0.0,0.0,0.0,0.0,0.0,0.0,0.0,0.0,0.0,0.0,0.0,0.0,0.0,0.0,0.0,0.0,0.0,0.0,0.0,0.0,0.0,0.0,0.0,0.0,0.0,0.0,0.0,0.0,0.0,0.0,0.0,0.0,0.0,0.0,0.0,0.0,0.0,0.0,0.0,0.0,0.0,0.0,0.0,0.0,0.0,0.0,0.0,0.0,0.0,0.0,0.0,0.0,0.0,0.0,0.0,0.0,0.0,0.0,0.0,0.0,0.0,0.0,0.0,0.0,0.0,0.0,0.0,0.0,0.0,0.0,0.0,0.0,1.5295,1.5288,1.4524,0.0,0.0,0.0,0.0,0.0,0.0,0.0,0.0,0.0,0.0,0.0,0.0,0.0,0.0,0.0,0.0,0.0,0.0,0.0,0.0,0.0,0.0,0.0,0.0,0.0,0.0,0.0,0.0,0.0,0.0,0.0,0.0,0.0,0.0,0.0,0.0,0.0,0.0,0.0,0.0,0.0,0.0,0.0,0.0,0.0,0.0,0.0,0.0,0.0,0.0,0.0,0.0,0.0,0.0,0.0,0.0,0.0,0.0,0.0,0.0,0.0,0.0,0.0,0.0,0.0,0.0,0.0,0.0,0.0,0.0,0.0,0.0,0.0,0.0,0.0,0.0,0.0,0.0,0.0,0.0,0.0,0.0,0.0,0.0,0.0,0.0,0.0,0.0,0.0,0.0,0.0,0.0,0.0,0.0,0.0,0.0,0.0,0.0,0.0,0.0,0.0,0.0,0.0,0.0,0.0,0.0,0.0,0.0,0.0,0.0,1.5322,0.0,1.5313,1.5329,1.4519,1.2859,0.0,0.0,0.0,0.0,0.0,0.0,0.0,0.0,0.0,0.0,0.0,0.0,0.0,0.0,0.0,0.0,0.0,0.0,0.0,0.0,0.0,0.0,0.0,0.0,0.0,0.0,0.0,0.0,0.0,0.0,0.0,0.0,0.0,0.0,0.0,0.0,0.0,0.0,0.0,0.0,0.0,0.0,0.0,0.0,0.0,0.0,0.0,0.0,0.0,0.0,0.0,0.0,0.0,0.0,0.0,0.0,0.0,0.0,0.0,0.0,0.0,0.0,0.0,0.0,0.0,0.0,0.0,0.0,0.0,0.0,0.0,0.0,0.0,0.0,0.0,0.0,0.0,0.0,0.0,0.0,0.0,0.0,0.0,0.0,0.0,0.0,0.0,0.0,0.0,0.0,0.0,0.0,0.0,0.0,0.0,0.0,0.0,0.0,0.0,0.0,0.0,0.0,0.0,0.0,0.0,0.0,0.0,0.0,0.0,1.5391,1.542,1.5432,1.5381,1.4578,0.0,0.0,0.0,0.0,0.0,0.0,0.0,0.0,0.0,0.0,0.0,0.0,0.0,0.0,0.0,0.0,0.0,0.0,0.0,0.0,0.0,0.0,0.0,0.0,0.0,0.0,0.0,0.0,0.0,0.0,0.0,0.0,0.0,0.0,0.0,0.0,0.0,0.0,0.0,0.0,0.0,0.0,0.0,0.0,0.0,0.0,0.0,0.0,0.0,0.0,0.0,0.0,0.0,0.0,0.0,0.0,0.0,0.0,0.0,0.0,0.0,0.0,0.0,0.0,0.0,0.0,0.0,0.0,0.0,0.0,0.0,0.0,0.0,0.0,0.0,0.0,0.0,0.0,0.0,0.0,0.0,0.0,0.0,0.0,0.0,0.0,0.0,0.0,0.0,0.0,0.0,0.0,0.0,0.0,0.0,0.0,0.0,0.0,0.0,0.0,0.0,0.0,0.0,0.0,0.0,0.0,0.0,0.0,0.0,1.6152,1.6707,1.7009,0.0,1.6519,1.5426,0.0,0.0,0.0,0.0,0.0,0.0,0.0,0.0,0.0,0.0,0.0,0.0,0.0,0.0,0.0,0.0,0.0,0.0,0.0,0.0,0.0,0.0,0.0,0.0,0.0,0.0,0.0,0.0,0.0,0.0,0.0,0.0,0.0,0.0,0.0,0.0,0.0,0.0,0.0,0.0,0.0,0.0,0.0,0.0,0.0,0.0,0.0,0.0,0.0,0.0,0.0,0.0,0.0,0.0,0.0,0.0,0.0,0.0,0.0,0.0,0.0,0.0,0.0,0.0,0.0,0.0,0.0,0.0,0.0,0.0,0.0,0.0,0.0,0.0,0.0,0.0,0.0,0.0,0.0,0.0,0.0,0.0,0.0,0.0,0.0,0.0,0.0,0.0,0.0,0.0,0.0,0.0,0.0,0.0,0.0,0.0,0.0,0.0,0.0,0.0,0.0,0.0,0.0,0.0,0.0,0.0,0.0,0.0,0.0,1.7442,0.0,1.8608,0.0,1.7813,1.6567,0.0,0.0,0.0,0.0,0.0,0.0,0.0,0.0,0.0,0.0,0.0,0.0,0.0,0.0,0.0,0.0,0.0,0.0,0.0,0.0,0.0,0.0,0.0,0.0,0.0,0.0,0.0,0.0,0.0,0.0,0.0,0.0,0.0,0.0,0.0,0.0,0.0,0.0,0.0,0.0,0.0,0.0,0.0,0.0,0.0,0.0,0.0,0.0,0.0,0.0,0.0,0.0,0.0,0.0,0.0,0.0,0.0,0.0,0.0,0.0,0.0,0.0,0.0,0.0,0.0,0.0,0.0,0.0,0.0,0.0,0.0,0.0,0.0,0.0,0.0,0.0,0.0,0.0,0.0,0.0,0.0,0.0,0.0,0.0,0.0,0.0,0.0,0.0,0.0,0.0,0.0,0.0,0.0,0.0,0.0,0.0,0.0,0.0,0.0,0.0,0.0,0.0,0.0,0.0,0.0,0.0,0.0,0.0,1.7633,1.92,2.0134,2.0262,1.9328,1.9322,1.8075,0.0,0.0,0.0,0.0,0.0,0.0,0.0,0.0,0.0,0.0,0.0,0.0,0.0,0.0,0.0,0.0,0.0,0.0,0.0,0.0,0.0,0.0,0.0,0.0,0.0,0.0,0.0,0.0,0.0,0.0,0.0,0.0,0.0,0.0,0.0,0.0,0.0,0.0,0.0,0.0,0.0,0.0,0.0,0.0,0.0,0.0,0.0,0.0,0.0,0.0,0.0,0.0,0.0,0.0,0.0,0.0,0.0,0.0,0.0,0.0,0.0,0.0,0.0,0.0,0.0,0.0,0.0,0.0,0.0,0.0,0.0,0.0,0.0,0.0,0.0,0.0,0.0,0.0,0.0,0.0,0.0,0.0,0.0,0.0,0.0,0.0,0.0,0.0,0.0,0.0,0.0,0.0,0.0,0.0,0.0,0.0,0.0,0.0,0.0,0.0,0.0,0.0,0.0,0.0,0.0,0.0,0.0,0.0,0.0,2.2746,2.3573,2.3898,2.3599,2.2485,2.0954,0.0,0.0,0.0,0.0,0.0,0.0,0.0,0.0,0.0,0.0,0.0,0.0,0.0,0.0,0.0,0.0,0.0,0.0,0.0,0.0,0.0,0.0,0.0,0.0,0.0,0.0,0.0,0.0,0.0,0.0,0.0,0.0,0.0,0.0,0.0,0.0,0.0,0.0,0.0,0.0,0.0,0.0,0.0,0.0,0.0,0.0,0.0,0.0,0.0,0.0,0.0,0.0,0.0,0.0,0.0,0.0,0.0,0.0,0.0,0.0,0.0,0.0,0.0,0.0,0.0,0.0,0.0,0.0,0.0,0.0,0.0,0.0,0.0,0.0,0.0,0.0,0.0,0.0,0.0,0.0,0.0,0.0,0.0,0.0,0.0,0.0,0.0,0.0,0.0,0.0,0.0,0.0,0.0,0.0,0.0,0.0,0.0,0.0,0.0,0.0,0.0,0.0,0.0,0.0,0.0,0.0,0.0,0.0,0.0,2.8533,2.8482,2.8287,2.8007,2.6651,2.4525,2.1552,0.0,0.0,0.0,0.0,0.0,0.0,0.0,0.0,0.0,0.0,0.0,0.0,0.0,0.0,0.0,0.0,0.0,0.0,0.0,0.0,0.0,0.0,0.0,0.0,0.0,0.0,0.0,0.0,0.0,0.0,0.0,0.0,0.0,0.0,0.0,0.0,0.0,0.0,0.0,0.0,0.0,0.0,0.0,0.0,0.0,0.0,0.0,0.0,0.0,0.0,0.0,0.0,0.0,0.0,0.0,0.0,0.0,0.0,0.0,0.0,0.0,0.0,0.0,0.0,0.0,0.0,0.0,0.0,0.0,0.0,0.0,0.0,0.0,0.0,0.0,0.0,0.0,0.0,0.0,0.0,0.0,0.0,0.0,0.0,0.0,0.0,0.0,0.0,0.0,0.0,0.0,0.0,0.0,0.0,0.0,0.0,0.0,0.0,0.0,0.0,0.0,0.0,0.0,0.0,0.0,0.0,0.0,0.0,3.5921,3.4563,3.3386,3.2431,3.1404,2.859,0.0,0.0,0.0,0.0,0.0,0.0,0.0,0.0,0.0,0.0,0.0,0.0,0.0,0.0,0.0,0.0,0.0,0.0,0.0,0.0,0.0,0.0,0.0,0.0,0.0,0.0,0.0,0.0,0.0,0.0,0.0,0.0,0.0,0.0,0.0,0.0,0.0,0.0,0.0,0.0,0.0,0.0,0.0,0.0,0.0,0.0,0.0,0.0,0.0,0.0,0.0,0.0,0.0,0.0,0.0,0.0,0.0,0.0,0.0,0.0,0.0,0.0,0.0,0.0,0.0,0.0,0.0,0.0,0.0,0.0,0.0,0.0,0.0,0.0,0.0,0.0,0.0,0.0,0.0,0.0,0.0,0.0,0.0,0.0,0.0,0.0,0.0,0.0,0.0,0.0,0.0,0.0,0.0,0.0,0.0,0.0,0.0,0.0,0.0,0.0,0.0,0.0,0.0,0.0,0.0,0.0,0.0,0.0,0.0,3.9329,4.087,4.035,3.7676,3.4955,3.2,0.0,0.0,0.0,0.0,0.0,0.0,0.0,0.0,0.0,0.0,0.0,0.0,0.0,0.0,0.0,0.0,0.0,0.0,0.0,0.0,0.0,0.0,0.0,0.0,0.0,0.0,0.0,0.0,0.0,0.0,0.0,0.0,0.0,0.0,0.0,0.0,0.0,0.0,0.0,0.0,0.0,0.0,0.0,0.0,0.0,0.0,0.0,0.0,0.0,0.0,0.0,0.0,0.0,0.0,0.0,0.0,0.0,0.0,0.0,0.0,0.0,0.0,0.0,0.0,0.0,0.0,0.0,0.0,0.0,0.0,0.0,0.0,0.0,0.0,0.0,0.0,0.0,0.0,0.0,0.0,0.0,0.0,0.0,0.0,0.0,0.0,0.0,0.0,0.0,0.0,0.0,0.0,0.0,0.0,0.0,0.0,0.0,0.0,0.0,0.0,0.0,0.0,0.0,0.0,0.0,0.0,0.0,0.0,3.7749,4.2312,4.4905,4.5318,4.3377,3.9335,3.5321,0.0,0.0,0.0,0.0,0.0,0.0,0.0,0.0,0.0,0.0,0.0,0.0,0.0,0.0,0.0,0.0,0.0,0.0,0.0,0.0,0.0,0.0,0.0,0.0,0.0,0.0,0.0,0.0,0.0,0.0,0.0,0.0,0.0,0.0,0.0,0.0,0.0,0.0,0.0,0.0,0.0,0.0,0.0,0.0,0.0,0.0,0.0,0.0,0.0,0.0,0.0,0.0,0.0,0.0,0.0,0.0,0.0,0.0,0.0,0.0,0.0,0.0,0.0,0.0,0.0,0.0,0.0,0.0,0.0,0.0,0.0,0.0,0.0,0.0,0.0,0.0,0.0,0.0,0.0,0.0,0.0,0.0,0.0,0.0,0.0,0.0,0.0,0.0,0.0,0.0,0.0,0.0,0.0,0.0,0.0,0.0,0.0,0.0,0.0,0.0,0.0,0.0,0.0,0.0,0.0,0.0,0.0,0.0,3.9727,4.462,4.7295,4.858,4.8367,4.3652,3.8373,0.0,0.0,0.0,0.0,0.0,0.0,0.0,0.0,0.0,0.0,0.0,0.0,0.0,0.0,0.0,0.0,0.0,0.0,0.0,0.0,0.0,0.0,0.0,0.0,0.0,0.0,0.0,0.0,0.0,0.0,0.0,0.0,0.0,0.0,0.0,0.0,0.0,0.0,0.0,0.0,0.0,0.0,0.0,0.0,0.0,0.0,0.0,0.0,0.0,0.0,0.0,0.0,0.0,0.0,0.0,0.0,0.0,0.0,0.0,0.0,0.0,0.0,0.0,0.0,0.0,0.0,0.0,0.0,0.0,0.0,0.0,0.0,0.0,0.0,0.0,0.0,0.0,0.0,0.0,0.0,0.0,0.0,0.0,0.0,0.0,0.0,0.0,0.0,0.0,0.0,0.0,0.0,0.0,0.0,0.0,0.0,0.0,0.0,0.0,0.0,0.0,0.0,0.0,0.0,0.0,0.0,0.0,0.0,4.1777,4.5471,4.8147,4.9201,4.8503,4.4219,4.0065,0.0,0.0,0.0,0.0,0.0,0.0,0.0,0.0,0.0,0.0,0.0,0.0,0.0,0.0,0.0,0.0,0.0,0.0,0.0,0.0,0.0,0.0,0.0,0.0,0.0,0.0,0.0,0.0,0.0,0.0,0.0,0.0,0.0,0.0,0.0,0.0,0.0,0.0,0.0,0.0,0.0,0.0,0.0,0.0,0.0,0.0,0.0,0.0,2.6063,0.0,0.0,0.0,0.0,0.0,0.0,0.0,0.0,0.0,0.0,0.0,0.0,0.0,0.0,0.0,0.0,0.0,0.0,0.0,0.0,0.0,0.0,0.0,0.0,0.0,0.0,0.0,0.0,0.0,0.0,0.0,0.0,0.0,0.0,0.0,0.0,0.0,0.0,0.0,0.0,0.0,0.0,0.0,0.0,0.0,0.0,0.0,0.0,0.0,0.0,0.0,0.0,0.0,0.0,0.0,0.0,0.0,0.0,0.0,4.217,4.6283,4.7863,4.8592,4.8405,4.486,4.105,0.0,0.0,0.0,0.0,0.0,0.0,0.0,0.0,0.0,0.0,0.0,0.0,0.0,0.0,0.0,0.0,0.0,0.0,0.0,0.0,0.0,0.0,0.0,0.0,0.0,0.0,0.0,0.0,0.0,0.0,0.0,0.0,0.0,0.0,0.0,0.0,0.0,0.0,0.0,0.0,0.0,0.0,0.0,0.0,0.0,0.0,0.0,0.0,0.0,0.0,0.0,0.0,0.0,0.0,0.0,0.0,0.0,0.0,0.0,0.0,0.0,0.0,0.0,0.0,0.0,0.0,0.0,0.0,0.0,0.0,0.0,0.0,0.0,0.0,0.0,0.0,0.0,0.0,0.0,0.0,0.0,0.0,0.0,0.0,0.0,0.0,0.0,0.0,0.0,0.0,0.0,0.0,0.0,0.0,0.0,0.0,0.0,0.0,0.0,0.0,0.0,0.0,0.0,0.0,0.0,0.0,0.0,3.8408,4.213,4.683,4.7345,4.7772,4.8316,4.5276,4.161,3.7428,0.0,0.0,0.0,0.0,0.0,0.0,0.0,0.0,0.0,0.0,0.0,0.0,0.0,0.0,0.0,0.0,0.0,0.0,0.0,0.0,0.0,0.0,0.0,0.0,0.0,0.0,0.0,0.0,0.0,0.0,0.0,0.0,0.0,0.0,0.0,0.0,0.0,0.0,1.8653,2.2365,0.0,0.0,0.0,0.0,0.0,0.0,0.0,0.0,3.1504,0.0,0.0,0.0,0.0,0.0,0.0,0.0,0.0,0.0,0.0,0.0,0.0,0.0,0.0,0.0,0.0,0.0,0.0,0.0,0.0,0.0,0.0,0.0,0.0,0.0,0.0,0.0,0.0,0.0,0.0,0.0,0.0,0.0,0.0,0.0,0.0,0.0,0.0,0.0,0.0,0.0,0.0,0.0,0.0,0.0,0.0,0.0,0.0,0.0,0.0,0.0,0.0,0.0,0.0,0.0,0.0,3.6387,3.9769,4.3265,4.6822,4.7816,4.8048,4.7473,4.4919,4.1863,3.8273,0.0,0.0,0.0,0.0,0.0,0.0,0.0,0.0,0.0,0.0,0.0,0.0,0.0,0.0,0.0,0.0,0.0,0.0,0.0,0.0,0.0,0.0,0.0,0.0,0.0,0.0,0.0,0.0,0.0,0.0,0.0,0.0,0.0,0.0,0.0,0.0,0.0,0.0,0.0,2.642,2.9072,0.0,0.0,0.0,0.0,0.0,0.0,0.0,0.0,3.3275,0.0,0.0,0.0,0.0,0.0,0.0,0.0,0.0,0.0,0.0,0.0,0.0,0.0,0.0,0.0,0.0,0.0,0.0,0.0,0.0,0.0,0.0,0.0,0.0,0.0,0.0,0.0,0.0,0.0,0.0,0.0,0.0,0.0,0.0,0.0,0.0,0.0,0.0,0.0,0.0,0.0,0.0,0.0,0.0,0.0,0.0,0.0,0.0,0.0,0.0,0.0,0.0,0.0,0.0,0.0,3.706,4.0156,4.3551,4.7242,4.7111,4.7197,4.7669,4.4494,4.1374,0.0,0.0,0.0,0.0,0.0,0.0,0.0,0.0,0.0,0.0,0.0,0.0,0.0,0.0,0.0,0.0,0.0,0.0,0.0,0.0,0.0,0.0,0.0,0.0,0.0,0.0,0.0,0.0,0.0,0.0,0.0,0.0,0.0,0.0,0.0,0.0,0.0,0.0,0.0,0.0,2.9874,3.21,3.5325,0.0,0.0,0.0,0.0,0.0,0.0,3.7943,3.6311,0.0,0.0,0.0,0.0,0.0,0.0,0.0,0.0,0.0,0.0,0.0,0.0,0.0,0.0,0.0,0.0,0.0,0.0,0.0,0.0,0.0,0.0,0.0,0.0,0.0,0.0,0.0,0.0,0.0,0.0,0.0,0.0,0.0,0.0,0.0,0.0,0.0,0.0,0.0,0.0,0.0,0.0,0.0,0.0,0.0,0.0,0.0,0.0,0.0,0.0,0.0,0.0,0.0,0.0,0.0,3.7596,4.0213,4.3484,4.7355,4.6224,4.6273,4.7796,4.3904,4.066,0.0,0.0,0.0,0.0,0.0,0.0,0.0,0.0,0.0,0.0,0.0,0.0,0.0,0.0,0.0,0.0,0.0,0.0,0.0,0.0,0.0,0.0,0.0,0.0,0.0,0.0,0.0,0.0,0.0,0.0,0.0,0.0,0.0,0.0,0.0,0.0,0.0,0.0,0.0,0.0,0.0,3.5207,3.8694,3.8239,0.0,0.0,0.0,0.0,4.1434,4.0596,0.0,0.0,0.0,0.0,0.0,0.0,0.0,0.0,0.0,0.0,0.0,0.0,0.0,0.0,0.0,0.0,0.0,0.0,0.0,0.0,0.0,0.0,0.0,0.0,0.0,0.0,0.0,0.0,0.0,0.0,0.0,0.0,0.0,0.0,0.0,0.0,0.0,0.0,0.0,0.0,0.0,0.0,0.0,0.0,0.0,0.0,0.0,0.0,0.0,0.0,0.0,0.0,0.0,0.0,0.0,0.0,3.7414,4.0139,4.3177,4.6426,4.5918,4.599,4.6937,4.2975,3.9966,0.0,0.0,0.0,0.0,0.0,0.0,0.0,0.0,0.0,0.0,0.0,0.0,0.0,0.0,0.0,0.0,0.0,0.0,0.0,0.0,0.0,0.0,0.0,0.0,0.0,0.0,0.0,0.0,0.0,0.0,0.0,0.0,0.0,0.0,0.0,0.0,0.0,0.0,0.0,0.0,0.0,3.8839,4.0656,4.1354,4.1772,0.0,0.0,0.0,4.3265,4.3246,0.0,0.0,0.0,0.0,0.0,0.0,0.0,0.0,0.0,0.0,0.0,0.0,0.0,0.0,0.0,0.0,0.0,0.0,0.0,0.0,0.0,0.0,0.0,0.0,0.0,0.0,0.0,0.0,0.0,0.0,0.0,0.0,0.0,0.0,0.0,0.0,0.0,0.0,0.0,0.0,0.0,0.0,0.0,0.0,0.0,0.0,0.0,0.0,0.0,0.0,0.0,0.0,0.0,0.0,0.0,3.3443,3.7393,4.0515,4.3678,4.6877,4.5903,4.5934,4.7377,4.2917,3.9745,0.0,0.0,0.0,0.0,0.0,0.0,0.0,0.0,0.0,0.0,0.0,0.0,0.0,0.0,0.0,0.0,0.0,0.0,0.0,0.0,0.0,0.0,0.0,0.0,0.0,0.0,0.0,0.0,0.0,0.0,0.0,0.0,0.0,0.0,0.0,0.0,0.0,0.0,0.0,0.0,0.0,0.0,4.2951,4.4014,0.0,0.0,0.0,4.4857,4.5672,0.0,0.0,0.0,0.0,0.0,0.0,0.0,0.0,0.0,0.0,0.0,0.0,0.0,0.0,0.0,0.0,0.0,0.0,0.0,0.0,0.0,0.0,0.0,0.0,0.0,0.0,0.0,0.0,0.0,0.0,0.0,0.0,0.0,0.0,0.0,0.0,0.0,0.0,0.0,0.0,0.0,0.0,0.0,0.0,0.0,0.0,0.0,0.0,0.0,0.0,0.0,0.0,0.0,0.0,0.0,0.0,0.0,3.7714,4.0908,4.4159,4.7357,4.5959,4.5974,4.7633,4.2967,0.0,0.0,0.0,0.0,0.0,0.0,0.0,0.0,0.0,0.0,0.0,0.0,0.0,0.0,0.0,0.0,0.0,0.0,0.0,0.0,0.0,0.0,0.0,0.0,0.0,0.0,0.0,1.3576,0.0,0.0,0.0,0.0,0.0,0.0,0.0,0.0,0.0,0.0,0.0,0.0,0.0,0.0,4.2348,4.5149,4.6641,4.7586,0.0,0.0,4.7264,4.7643,4.6847,4.5433,0.0,0.0,0.0,0.0,0.0,0.0,0.0,0.0,0.0,0.0,0.0,0.0,0.0,0.0,0.0,0.0,0.0,0.0,0.0,0.0,0.0,0.0,0.0,0.0,0.0,0.0,0.0,0.0,0.0,0.0,0.0,0.0,0.0,0.0,0.0,0.0,0.0,0.0,0.0,0.0,0.0,0.0,0.0,0.0,0.0,0.0,0.0,0.0,0.0,0.0,0.0,0.0,0.0,0.0,0.0,3.861,4.1276,4.423,4.7476,4.6069,4.6015,4.7646,4.2948,3.9576,0.0,0.0,0.0,0.0,0.0,0.0,0.0,0.0,0.0,0.0,0.0,0.0,0.0,0.0,0.0,0.0,0.0,0.0,0.0,0.0,0.0,0.0,0.0,0.0,0.0,0.0,0.0,0.0,0.0,0.0,0.0,0.0,0.0,0.0,0.0,0.0,0.0,0.0,0.0,0.0,0.0,4.5293,4.6996,4.9306,5.058,0.0,0.0,4.9405,4.8704,4.914,4.8458,4.5249,0.0,0.0,0.0,0.0,0.0,0.0,0.0,0.0,0.0,0.0,0.0,0.0,0.0,0.0,0.0,0.0,0.0,0.0,0.0,0.0,0.0,0.0,0.0,0.0,0.0,0.0,0.0,0.0,0.0,0.0,0.0,0.0,0.0,0.0,0.0,0.0,0.0,0.0,0.0,0.0,0.0,0.0,0.0,0.0,0.0,0.0,0.0,0.0,0.0,0.0,0.0,0.0,0.0,3.5134,3.8743,4.1355,4.4045,4.6774,4.5846,4.5829,4.6978,4.3158,4.0307,0.0,0.0,0.0,0.0,0.0,0.0,0.0,0.0,0.0,0.0,0.0,0.0,0.0,0.0,0.0,0.0,0.0,0.0,0.0,0.0,0.0,0.0,0.0,0.0,0.0,0.0,0.0,0.0,2.512,2.778,2.8886,0.0,0.0,0.0,0.0,0.0,0.0,0.0,0.0,0.0,0.0,4.6714,4.9372,5.0998,0.0,0.0,5.1452,5.1168,5.0353,5.005,4.8943,4.6176,4.4316,0.0,0.0,0.0,0.0,0.0,0.0,0.0,0.0,0.0,0.0,0.0,0.0,0.0,0.0,0.0,0.0,0.0,0.0,0.0,0.0,0.0,0.0,0.0,0.0,0.0,0.0,0.0,0.0,0.0,0.0,0.0,0.0,0.0,0.0,0.0,0.0,0.0,0.0,0.0,0.0,0.0,0.0,0.0,0.0,0.0,0.0,0.0,0.0,0.0,0.0,0.0,0.0,3.5799,3.9143,4.1758,4.4202,4.6434,4.5696,4.5679,4.6385,4.3559,4.115,0.0,0.0,0.0,0.0,0.0,0.0,0.0,0.0,0.0,0.0,0.0,0.0,0.0,0.0,0.0,0.0,0.0,0.0,0.0,0.0,0.0,0.0,0.0,0.0,0.0,0.0,0.0,0.0,2.7237,2.9772,3.0604,0.0,0.0,0.0,0.0,0.0,0.0,0.0,0.0,0.0,0.0,4.8723,5.1536,5.2635,5.3158,5.3139,5.2949,5.2589,5.204,5.1016,4.9606,4.7624,0.0,0.0,0.0,0.0,0.0,0.0,0.0,0.0,0.0,0.0,0.0,0.0,0.0,0.0,0.0,0.0,0.0,0.0,0.0,0.0,0.0,0.0,0.0,0.0,0.0,0.0,0.0,0.0,0.0,0.0,0.0,0.0,0.0,0.0,0.0,0.0,0.0,0.0,0.0,0.0,0.0,0.0,0.0,0.0,0.0,0.0,0.0,0.0,0.0,0.0,0.0,0.0,0.0,0.0,3.996,4.2637,4.4798,4.6402,4.5717,4.5679,4.6385,4.4074,4.1973,4.0252,0.0,0.0,0.0,0.0,0.0,0.0,0.0,0.0,0.0,0.0,0.0,0.0,0.0,0.0,0.0,0.0,0.0,0.0,0.0,0.0,0.0,0.0,0.0,0.0,0.0,0.0,2.4827,2.8544,3.1372,0.0,0.0,0.0,0.0,0.0,0.0,0.0,0.0,0.0,0.0,4.8985,5.1689,5.3402,5.4322,5.4787,5.4806,5.4162,5.3669,5.3613,5.2267,5.0884,0.0,0.0,0.0,0.0,0.0,0.0,0.0,0.0,0.0,0.0,0.0,0.0,0.0,0.0,0.0,0.0,0.0,0.0,0.0,0.0,0.0,0.0,0.0,0.0,0.0,0.0,0.0,2.4879,2.7811,0.0,0.0,0.0,0.0,0.0,0.0,0.0,0.0,0.0,0.0,0.0,3.8477,3.7978,0.0,0.0,0.0,0.0,0.0,0.0,0.0,0.0,0.0,0.0,0.0,0.0,3.8018,4.1246,4.344,4.509,4.6193,4.6145,4.5965,4.5679,4.4341,4.2218,3.9239,0.0,0.0,0.0,0.0,0.0,0.0,0.0,0.0,0.0,0.0,0.0,0.0,0.0,0.0,0.0,0.0,0.0,0.0,0.0,0.0,0.0,0.0,0.0,0.0,0.0,2.6167,0.0,0.0,0.0,0.0,0.0,0.0,0.0,0.0,0.0,0.0,0.0,4.577,4.9077,5.0962,5.2579,5.4265,5.4731,5.4901,0.0,0.0,0.0,0.0,0.0,0.0,0.0,0.0,0.0,0.0,0.0,0.0,0.0,0.0,4.3815,4.1598,4.1844,4.2393,4.2393,0.0,0.0,0.0,0.0,0.0,0.0,0.0,0.0,0.0,0.0,0.0,0.0,0.0,0.0,0.0,0.0,3.3937,0.0,0.0,0.0,0.0,0.0,0.0,0.0,0.0,4.1709,4.2617,4.3336,4.2544,4.2157,0.0,4.0216,3.7461,0.0,0.0,0.0,0.0,0.0,0.0,0.0,0.0,3.9671,4.2337,4.4433,4.5625,4.5916,4.6114,4.5813,4.4995,4.4159,4.2454,3.983,3.7643,3.4974,0.0,0.0,0.0,0.0,0.0,0.0,0.0,0.0,0.0,0.0,0.0,0.0,0.0,0.0,0.0,0.0,0.0,0.0,0.0,0.0,0.0,0.0,0.0,2.8576,0.0,0.0,0.0,0.0,0.0,0.0,0.0,0.0,0.0,4.2503,4.5672,4.8852,5.13,5.2579,5.3669,5.4769,0.0,0.0,0.0,0.0,0.0,0.0,0.0,5.384,5.3044,5.2921,5.274,5.2186,5.142,5.0656,5.0117,0.0,0.0,4.6165,4.6089,4.662,4.6639,4.6624,4.6906,4.7775,4.7924,4.821,0.0,0.0,0.0,0.0,0.0,0.0,0.0,0.0,3.5354,3.6634,0.0,3.8118,0.0,0.0,0.0,0.0,0.0,0.0,0.0,0.0,4.6875,4.7977,4.7335,4.6507,4.6139,4.5992,4.3833,4.2705,4.23,3.6343,0.0,0.0,0.0,0.0,0.0,0.0,4.1482,4.324,4.5592,4.6446,4.5715,4.5725,4.5322,4.4505,4.3605,4.2752,4.189,3.9537,3.7424,3.5628,3.1753,0.0,0.0,0.0,0.0,0.0,0.0,0.0,0.0,0.0,0.0,0.0,0.0,0.0,0.0,0.0,0.0,0.0,0.0,0.0,0.0,2.8627,0.0,0.0,0.0,0.0,0.0,0.0,0.0,0.0,0.0,0.0,4.5363,4.8715,5.1575,5.2387,0.0,0.0,0.0,0.0,5.4958,5.5015,5.4996,5.528,5.6076,5.5546,5.5272,5.6061,0.0,0.0,5.619,5.5492,5.4874,5.4947,5.547,5.4693,4.9898,4.9728,5.0201,5.0182,5.0266,5.0437,5.1185,5.146,5.1767,3.8929,0.0,0.0,0.0,0.0,3.495,3.7734,4.1927,4.2149,4.3135,4.4586,4.4552,0.0,0.0,0.0,0.0,0.0,0.0,4.6083,4.7979,4.8822,4.9426,4.9777,4.9556,4.9428,4.9373,4.818,4.7573,4.7371,4.3345,4.0369,3.8526,0.0,0.0,0.0,0.0,4.3045,4.5156,4.6671,4.7257,4.7039,4.7255,4.6701,4.5275,4.4266,4.3327,4.2489,4.1582,4.005,3.7798,3.4962,0.0,0.0,0.0,0.0,0.0,0.0,0.0,0.0,0.0,0.0,0.0,0.0,0.0,0.0,0.0,0.0,0.0,0.0,0.0,3.0782,3.2214,3.3679,0.0,0.0,0.0,0.0,0.0,0.0,0.0,0.0,0.0,5.0845,5.2057,5.3175,0.0,0.0,5.5148,5.5761,5.5818,5.6019,5.6607,0.0,0.0,0.0,5.6853,5.6758,5.7017,5.7068,5.7043,5.7062,5.6848,5.6671,5.6671,5.6891,5.6531,5.5356,5.5072,5.5204,5.5242,5.5245,5.5322,5.555,5.5617,5.5659,4.8898,4.4373,4.0963,4.0314,4.1521,4.1612,4.3828,4.7279,4.6947,4.7353,4.8198,4.8217,4.7003,4.4934,4.4967,0.0,0.0,0.0,4.8604,5.0625,5.0585,5.0967,5.1701,5.1426,5.1261,5.1242,5.0435,5.0068,5.0031,4.7755,4.5735,4.3885,0.0,0.0,4.2865,4.355,4.4773,4.6541,4.7424,4.7718,4.7404,4.7278,4.6592,4.5294,4.4615,4.3888,4.3056,4.2584,4.1574,3.9991,3.7058,3.4385,0.0,0.0,0.0,0.0,0.0,0.0,0.0,0.0,0.0,0.0,0.0,2.384,0.0,0.0,0.0,0.0,3.0286,3.2798,3.4094,3.5459,0.0,0.0,0.0,0.0,0.0,0.0,0.0,4.8561,5.0573,5.2386,5.3969,5.4509,5.5025,5.5803,5.5879,5.6095,5.6614,0.0,5.6853,5.7346,5.7403,5.7516,5.7858,5.7914,5.8028,5.835,5.8413,5.8381,5.8407,5.8413,5.8329,5.8155,5.8136,5.8069,5.7893,5.7877,5.7683,5.7234,5.698,5.699,5.7305,5.7366,5.7377,5.7005,5.6271,4.8348,4.6172,4.7829,4.7923,4.9121,5.0986,5.0215,4.9829,4.9793,4.9774,4.9354,4.8697,4.8753,0.0,0.0,4.9892,5.068,5.2087,5.2087,5.2491,5.317,5.2435,5.2087,5.2068,5.1353,5.0986,5.0967,5.016,4.9774,4.9646,4.5294,4.38,4.5213,4.5806,4.6507,4.7353,4.7977,4.7957,4.7186,4.6416,4.5626,4.4837,4.4617,4.4121,4.3314,4.2451,4.1944,4.1626,3.8099,3.5659,3.4624,0.0,0.0,0.0,0.0,0.0,0.0,0.0,0.0,0.0,0.0,0.0,0.0,0.0,0.0,0.0,3.4579,0.0,3.6516,3.8696,0.0,0.0,0.0,4.5131,4.8053,4.8614,4.9667,5.1999,0.0,0.0,0.0,0.0,5.7059,5.7704,5.7559,5.7434,5.7479,5.7497,5.7516,5.7668,5.763,5.7895,5.8653,5.8786,5.8995,5.9601,5.9904,5.9809,5.9791,5.973,5.9613,5.9195,5.9215,5.9121,5.8743,5.8739,5.8349,5.7323,5.6745,5.6601,5.7432,5.7641,5.7783,5.8639,5.8455,5.6389,5.514,5.4399,5.3212,5.3028,5.3463,5.2692,5.1995,5.1426,5.1426,5.0967,5.0273,5.0254,5.0695,5.1448,5.1448,5.1958,5.2894,5.2931,5.3023,5.3206,5.3004,5.2931,5.2913,5.2729,5.2637,5.2601,5.1811,5.1426,5.1316,4.9646,4.8363,4.7499,4.7077,4.7241,4.805,4.8214,4.8214,4.8012,4.7241,4.6452,4.5626,4.3828,4.2488,4.168,4.0322,3.9488,3.9236,3.7192,3.5599,3.4745,3.1837,0.0,0.0,0.0,0.0,0.0,0.0,0.0,0.0,0.0,3.3076,3.3725,0.0,3.8034,0.0,3.6949,3.8776,4.2221,4.347,0.0,0.0,4.8389,4.9925,5.069,5.2059,5.3377,5.4452,5.5503,5.6858,5.8814,5.8876,5.9348,6.0904,5.8981,5.7611,5.8248,5.8407,5.8616,5.9127,5.9279,5.9374,5.9582,5.9601,5.9696,5.9847,5.9904,5.9904,5.9904,5.9607,5.9306,5.9253,5.9472,5.9585,5.9515,5.9693,5.9743,5.9456,5.8675,5.8217,5.9042,5.9198,5.9424,5.9029,5.8762,5.8434,5.7813,5.7016,5.5944,5.5111,5.4556,5.3983,5.3133,5.2174,5.2193,5.2041,5.1844,5.1621,5.1877,5.2527,5.2527,5.2784,5.3206,5.3206,5.3206,5.3206,5.3206,5.3206,5.3206,5.3206,5.3206,5.3188,5.2747,5.2546,5.2527,5.172,5.0875,4.9958,4.915,4.8802,4.8875,4.8489,4.8324,4.8306,4.7884,4.7057,4.5865,4.451,4.3028,4.1512,4.0565,3.9808,3.9273,3.7766,3.6649,3.6118,3.3749,3.2385,0.0,0.0,0.0,0.0,0.0,0.0,0.0,0.0,0.0,0.0,0.0,4.2195,0.0,4.1506,4.2923,4.5276,4.7092,4.8502,4.941,5.13,5.2936,5.3971,5.503,5.6061,5.7122,5.7807,5.8704,6.0048,5.9987,6.0265,6.1601,6.0172,5.9177,5.9601,5.9506,5.9525,6.0264,6.0435,6.0586,6.0947,6.1036,6.1017,6.0984,6.0828,6.07,6.067,6.0318,5.9948,5.978,5.9863,5.9954,5.9761,5.9835,6.0003,5.9894,5.9487,5.9265,5.9605,5.973,5.9889,5.8815,5.8244,5.7485,5.7297,5.7457,5.6952,5.6022,5.4768,5.4374,5.349,5.2315,5.2315,5.2563,5.2955,5.2518,5.2563,5.2974,5.2999,5.3017,5.3121,5.3121,5.3103,5.3206,5.3121,5.3103,5.3121,5.3121,5.3078,5.3017,5.3103,5.3164,5.3085,5.2449,5.216,5.2105,5.1463,5.0655,4.9738,4.8946,4.8524,4.8414,4.8414,4.7586,4.5991,4.5475,4.4179,4.1978,4.1434,4.0854,4.004,3.8706,3.7933,3.7863,3.5824,3.497,0.0,3.5276,0.0,0.0,0.0,0.0,0.0,0.0,0.0,0.0,4.504,4.6001,4.6114,4.6916,4.7497,4.762,5.0294,5.1991,5.2082,5.3403,5.516,5.7188,5.7514,5.8094,5.9579,5.976,5.9968,6.0554,6.0582,6.0689,6.1311,6.1174,6.0962,6.1147,6.0604,6.0444,6.1174,6.1269,6.1496,6.2103,6.2345,6.2273,6.2224,6.1875,6.1678,6.1523,6.1162,6.0757,6.0386,6.0298,6.0249,5.9794,5.9832,5.9959,6.0084,6.0012,5.9953,5.987,5.9849,5.9781,5.8532,5.8405,5.7654,5.7366,5.7382,5.6671,5.5864,5.4882,5.3623,5.2516,5.1768,5.175,5.1817,5.1915,5.1817,5.1799,5.1915,5.1897,5.2108,5.2563,5.2563,5.2761,5.3164,5.2761,5.2563,5.2545,5.2563,5.2315,5.1915,5.2761,5.2974,5.2563,5.2809,5.2986,5.2968,0.0,0.0,0.0,5.0259,4.9856,4.9193,4.8976,4.8111,4.6452,4.4483,0.0,4.1594,3.968,3.8474,3.8151,3.7864,0.0,0.0,0.0,0.0,0.0,0.0,0.0,0.0,0.0,0.0,0.0,4.6975,4.707,4.6953,4.8303,4.9456,5.0134,5.0949,5.1946,5.3204,5.4411,5.5408,5.6029,5.6917,5.7949,5.9017,5.9144,5.9542,6.0448,6.0593,6.1004,6.194,6.1916,6.1963,6.2577,6.205,6.1606,6.1936,6.1576,6.1525,6.2053,6.211,6.2182,6.2387,6.2413,6.2329,6.1938,6.1785,6.16,6.1288,6.0805,6.0449,6.0335,6.0533,6.0734,6.0593,6.11,6.1462,6.1553,6.1516,6.1371,6.0715,6.0611,6.0792,5.8721,0.0,5.7683,5.7363,0.0,5.6701,5.6315,5.5806,5.4508,5.3422,5.2674,5.2041,5.1863,5.2103,5.1473,5.1365,5.1619,5.1619,5.175,5.2012,5.1994,5.2155,5.2426,5.2108,5.1994,5.2012,5.2012,5.1866,5.1651,5.2155,5.2268,5.1994,5.2268,5.2408,5.2408,5.2408,5.1919,5.0914,5.0279,4.9703,4.9306,4.9181,4.8335,4.6665,0.0,0.0,0.0,0.0,0.0,0.0,0.0,0.0,0.0,0.0,0.0,4.1268,4.2159,4.3179,4.4325,4.5914,4.7452,4.8918,5.0444,5.0923,5.0196,5.1221,5.2208,5.3005,5.3784,5.4399,5.4888,5.6283,5.7188,5.7261,5.8275,5.9325,6.005,6.0194,6.0538,6.1245,6.1408,6.166,6.2253,6.2185,6.2185,6.2595,6.2178,6.1935,6.2298,6.1781,6.1587,6.2199,6.2707,6.2914,6.2895,6.2874,6.2834,6.2575,6.2336,6.2113,6.1902,6.1463,6.1136,6.1145,6.1278,6.1408,6.1426,6.1752,6.2023,6.2023,6.2023,6.2041,6.1914,6.1987,6.1969,5.8958,5.7936,5.7814,5.7463,5.6995,5.6857,5.6805,5.6716,0.0,0.0,0.0,5.24,5.2192,5.2538,5.1402,5.1122,5.1491,5.1367,5.1347,5.1449,5.1449,5.15,5.1619,5.1518,5.1467,5.1467,5.1449,5.1416,5.1314,5.1518,5.1569,5.1449,5.1569,5.1619,5.1601,5.15,5.1347,5.107,5.0092,4.9506,4.9381,4.9332,4.8608,4.7092,4.679,4.5593,4.3465,4.3196,4.2706,4.1921,4.1821,4.2098,4.277,4.2731,4.332,4.4527,4.4801,4.5543,4.7037,4.7871,4.9065,5.0731,5.2497,5.3309,5.2752,5.3566,5.4381,5.5051,5.5758,5.5993,5.5577,5.7206,5.8257,5.7876,5.9035,6.014,6.0883,6.1027,6.1263,6.1879,6.1987,6.2023,6.2005,6.2023,6.2023,6.2023,6.2005,6.2096,6.2384,6.2013,6.18,6.2401,6.2991,6.3349,6.336,6.3349,6.3352,6.3177,6.288,6.2678,6.2517,6.2273,6.2005,6.1897,6.2023,6.1987,6.2005,6.2005,6.2023,6.2023,6.2023,6.2332,6.3167,6.3402,6.3182,5.8957,5.8769,5.8129,5.782,5.7702,5.7064,5.6805,5.6667,5.5219,5.3775,5.2424,5.2218,5.2208,5.2233,5.1429,5.1101,5.1107,5.0483,5.0453,0.0,5.0893,5.1158,5.1551,5.1123,5.091,5.0893,5.091,5.0657,5.0359,5.1158,5.1365,5.1017,5.1365,5.1569,5.1569,5.1158,5.0911,5.0858,5.103,5.0741,5.0083,4.9847,4.9305,4.8426,4.7638,4.6963,4.629,4.5596,4.5061,4.4751,4.4699,4.4837,4.5078,4.5316,4.5634,4.6126,4.688,4.7715,4.8441,4.9205,5.0439,5.2266,5.2791,5.3082,5.3537,5.4852,5.5721,5.5866,5.6554,5.7279,5.7822,5.822,5.8963,6.0031,6.0466,6.0973,6.1697,6.1806,6.1842,6.1987,6.2023,6.2023,6.2023,6.2023,6.2023,6.2023,6.2023,6.206,6.2184,6.2659,6.3074,6.3212,6.3305,6.3379,6.3307,6.3397,6.3187,6.2873,6.2761,6.2509,6.22,6.206,6.2023,6.2023,6.2023,6.2041,6.206,6.2023,6.2132,6.2168,6.2223,6.2604,6.3948,6.4323,6.4234,5.9012,5.8978,5.865,5.8495,5.8478,5.815,5.7754,5.7357,5.665,5.5736,5.4667,5.3839,5.346,5.3356,5.2235,5.1494,5.1097,5.0752,5.0472,5.0376,5.0359,5.0509,5.0712,5.0471,5.0359,5.0359,5.0359,5.0263,5.0051,5.0509,5.062,5.0415,5.062,5.0712,5.0694,5.0509,5.0359,5.0359,5.0547,5.0482,5.006,4.9968,4.9547,4.8781,4.8307,4.7781,4.7093,4.6694,4.6412,4.6135,4.6079,4.6322,4.6828,4.6958,4.7274,4.7783,4.8226,4.8616,4.8899,4.9921,5.0882,5.1798,5.2921,5.3797,5.4427,5.541,5.6156,5.6609,5.7387,5.7985,5.8402,5.918,6.0031,6.072,6.119,6.1607,6.1951,6.2023,6.2023,6.2023,6.2023,6.2023,6.2023,6.2023,6.2023,6.2023,6.2023,6.2023,6.2023,6.2378,6.2663,6.2613,6.2613,6.2613,6.2663,6.2631,6.253,6.236,6.2333,6.2263,6.2042,6.2023,6.2023,6.2023,6.2023,6.2204,6.253,6.2657,6.2838,6.3255,6.3311,6.393,6.5204,6.5754,6.5726,5.9012,5.9012,5.9012,5.9012,5.9012,5.9012,5.8685,5.8185,5.815,5.7823,5.7133,5.5701,5.4925,5.4615,5.3322,5.2218,5.1425,5.1183,5.0718,5.0045,5.0011,5.0011,5.0011,5.0011,5.0011,5.0011,5.0011,5.0011,5.0011,5.0011,5.0011,5.0011,5.0011,5.0011,5.0011,5.0011,5.0011,5.0011,5.0011,5.0011,5.0011,5.0011,4.9717,4.9148,4.9079,4.8615,4.7779,4.7728,4.7612,4.7336,4.7293,4.7564,4.8105,4.8173,4.8409,4.8951,4.9018,4.9103,4.9272,5.0349,5.1193,5.1563,5.3018,5.4336,5.5076,5.5597,5.632,5.7319,5.8021,5.851,5.9072,6.0013,6.0864,6.1064,6.1625,6.1969,6.2023,6.2023,6.2023,6.2023,6.2023,6.2023,6.2023,6.2023,6.2023,6.2023,6.2023,6.2023,6.2023,6.2023,6.2023,6.2023,6.2023,6.206,6.2023,6.2078,6.206,6.2023,6.2005,6.2042,6.2023,6.2023,6.215,6.2241,6.2313,6.2657,6.3273,6.3472,6.3689,6.4106,6.4073,6.4437,6.567,6.628,6.6647,5.903,5.9012,5.9012,5.9012,5.9012,5.9012,5.8961,5.8875,5.8909,5.8875,5.8581,5.7253,5.6184,5.546,5.4667,5.3529,5.2149,5.1425,5.0769,5.0131,5.0011,5.0011,5.0045,5.0011,5.0011,5.0011,5.0011,5.0011,5.0011,5.0011,5.0011,5.0011,5.0011,5.0011,5.0011,5.0011,5.0011,5.0011,5.0011,5.0011,5.0011,5.0011,4.9959,4.9907,4.989,4.9681,4.9197,4.9266,4.9146,4.8843,4.8748,4.8798,4.8883,4.89,4.8934,4.8984,4.9018,4.9289,4.9965,5.0757,5.1736,5.2932,5.3228,5.3966,5.5156,5.5437,5.6286,5.7782,5.8332,5.8913,6.0357,6.0702,6.101,6.1588,6.186,6.2023,6.1969,6.2023,6.2023,6.2023,6.1895,6.2023,6.1969,6.2078,6.2096,6.2259,6.2313,6.2313,6.2295,6.2277,6.2259,6.215,6.2078,6.2078,6.206,6.2023,6.2023,6.2023,6.2023,6.2078,6.2114,6.2186,6.2241,6.2983,6.3018,6.3251,6.3905,6.4287,6.4209,6.4288,6.4108,6.382,6.4598,6.5379,6.6067,5.972,5.9651,5.9202,5.9012,5.9012,5.9012,5.9012,5.9012,5.9012,5.9012,5.8944,5.8357,5.7685,5.6926,5.6184,5.5012,5.3598,5.3253,5.2477,5.139,5.1321,5.108,5.0683,5.0666,5.0459,5.0028,5.0011,5.0011,5.0011,5.0011,5.0011,5.0011,5.0011,5.0011,5.0011,5.0011,5.0011,5.0011,5.0011,5.0011,5.0011,5.0011,5.0011,5.0011,5.0011,4.9818,4.9547,4.9488,4.935,4.908,4.9018,4.9018,4.9018,4.9018,4.9018,4.9035,4.9424,4.9982,5.071,5.1454,5.2109,5.2721,5.3181,5.3832,5.4686,5.5164,5.6186,5.7646,5.7961,5.8459,5.9508,6.006,6.0647,6.1243,6.143,6.143,6.143,6.1748,6.1895,6.1505,6.143,6.1561,6.1968,6.2422,6.2893,6.3273,6.34,6.3271,6.3382,6.3418,6.3418,6.3418,6.3418,6.2965,6.2331,6.2023,6.2041,6.2041,6.2023,6.2096,6.2582,6.2691,6.3,6.3724,6.3491,6.3603,6.4297,6.4055,6.3903,6.4179,6.4881,6.4918,6.525,6.5181,6.5325,6.0358,6.0082,5.934,5.9012,5.9012,5.9012,5.9012,5.9012,5.9012,5.9012,5.9012,5.9012,5.8719,5.815,5.7426,5.6271,5.4943,5.4805,5.4115,5.2942,5.2839,5.2459,5.1787,5.1494,5.1028,5.0373,5.0097,5.0011,5.0011,5.0011,5.0011,5.0011,5.0011,5.0011,5.0011,5.0011,5.0011,5.0011,5.0011,5.0011,5.0011,5.0011,5.0011,5.0011,5.0011,4.986,4.9547,4.9488,4.935,4.9001,4.9018,4.9018,4.9018,4.9187,4.9407,4.9644,5.0304,5.093,5.1488,5.2215,5.2638,5.2672,5.3196,5.377,5.4419,5.4977,5.5912,5.7248,5.7434,5.7892,5.9026,5.9671,6.022,6.0651,6.0718,6.0725,6.0772,6.118,6.1257,6.0789,6.0729,6.1004,6.1645,6.2368,6.3046,6.3484,6.3689,6.3788,6.377,6.3657,6.3669,6.3801,6.3765,6.3509,6.2763,6.2802,6.2639,6.2386,6.244,6.2564,6.2885,6.2869,6.3155,6.344,6.3405,6.3679,6.4291,6.4062,6.362,6.4146,6.4724,6.5057,6.4811,6.4523,6.4245,6.084,6.0151,5.934,5.9064,5.9012,5.9012,5.9012,5.8944,5.9012,5.9012,5.8944,5.8944,5.8978,5.8806,5.81,5.7012,5.5736,5.5632,5.5201,5.4443,5.4408,5.4011,5.327,5.2528,5.1821,5.1166,5.0614,5.02,5.008,5.0011,5.0011,5.0011,5.0011,5.0011,5.0011,5.0011,5.0011,5.0011,5.0011,5.0011,5.0011,5.0011,5.0011,5.0011,5.0011,4.9818,4.9547,4.9488,4.9367,4.9001,4.9018,4.9018,4.9086,4.9678,5.0338,5.1048,5.1742,5.2181,5.2334,5.2942,5.3382,5.3433,5.3501,5.3805,5.45,5.4788,5.5535,5.6721,5.6964,5.7758,5.9364,5.965,5.9857,6.0041,6.0044,6.0044,6.0058,6.0244,6.0111,6.01,6.0269,6.0642,6.1166,6.1746,6.2426,6.2581,6.2506,6.2534,6.2758,6.2611,6.2687,6.2657,6.2705,6.2786,6.3887,6.3585,6.3465,6.3145,6.2689,6.2983,6.2496,6.2308,6.2831,6.3246,6.3386,6.3738,6.4335,6.4339,6.3921,6.3904,6.3624,6.3785,6.3896,6.3107,6.2995,6.1599,6.084,6.0082,5.9771,5.972,5.9237,5.8771,5.8492,5.8858,5.858,5.8031,5.8263,5.8405,5.8405,5.8148,5.769,5.7066,5.7081,5.6684,5.6029,5.5977,5.5563,5.4839,5.4494,5.3736,5.2684,5.2321,5.1666,5.07,5.0252,5.0011,5.0011,5.0011,5.0011,5.0011,5.0011,5.0011,5.0011,5.0011,5.0011,5.0045,5.0011,5.0011,5.0011,5.0011,4.9818,4.9488,4.9488,4.9367,4.9001,4.9018,4.9221,4.9712,5.0405,5.1133,5.1826,5.2164,5.252,5.3027,5.3348,5.3518,5.3551,5.394,5.4296,5.4685,5.5429,5.6241,5.6748,5.7273,5.797,5.8355,5.8669,5.8839,5.9245,5.9325,5.9338,5.9482,6.0063,6.0526,6.0282,6.0796,6.1576,6.1831,6.2543,6.3172,6.3624,6.3696,6.3637,6.3676,6.3744,6.3534,6.3655,6.3758,6.3893,6.4309,6.3509,6.2871,6.2707,6.2564,6.2833,6.268,6.2751,6.3181,6.3467,6.3554,6.3429,6.3809,6.3518,6.3289,6.3142,6.2896,6.2982,6.2819,6.2578,6.2595,6.2079,6.1294,6.0556,6.0086,5.984,5.9105,5.8549,5.8208,5.8382,5.7959,5.7355,5.7668,5.7814,5.7814,5.7814,5.7865,5.7998,5.8101,5.7995,5.7547,5.7512,5.7098,5.6374,5.5857,5.496,5.3804,5.3235,5.2442,5.1545,5.0959,5.0735,5.0735,5.0718,5.0718,5.07,5.0493,5.0373,5.0338,5.0131,5.02,5.0631,5.0735,5.0856,5.108,5.1114,5.0565,4.9616,4.9488,4.9487,4.9385,4.9357,4.9796,5.0727,5.1285,5.1911,5.257,5.2689,5.2909,5.345,5.3721,5.3873,5.389,5.4532,5.5023,5.5327,5.6241,5.6816,5.7188,5.7543,5.7881,5.7881,5.7937,5.8065,5.8528,5.8581,5.8701,5.8941,5.9823,6.022,6.0301,6.1099,6.18,6.2129,6.2664,6.3199,6.3863,6.3915,6.3892,6.3902,6.3889,6.3915,6.3898,6.3667,6.3632,6.369,6.2924,6.2871,6.2788,6.2726,6.2944,6.2912,6.3076,6.329,6.3634,6.3643,6.3291,6.3025,6.2676,6.2537,6.2398,6.253,6.2651,6.2544,6.2431,6.2465,6.2096,6.1476,6.0687,5.9971,5.9504,5.8799,5.8327,5.8227,5.7733,5.744,5.7163,5.7214,5.7306,5.7222,5.7222,5.7487,5.8018,5.8443,5.872,5.8806,5.8823,5.8478,5.7754,5.6564,5.5529,5.4581,5.3028,5.2321,5.2235,5.208,5.2011,5.2114,5.2011,5.1942,5.2132,5.1425,5.1132,5.1028,5.0597,5.089,5.2011,5.2218,5.2494,5.3097,5.3166,5.2062,4.977,4.9624,4.9845,5.0079,5.0101,5.0794,5.1894,5.2266,5.2655,5.3264,5.345,5.3467,5.3619,5.416,5.4482,5.4685,5.5277,5.597,5.6427,5.6765,5.7154,5.7645,5.7831,5.7881,5.7881,5.7881,5.7954,5.7971,5.8078,5.8434,5.8835,5.9032,5.9353,6.019,6.107,6.1324,6.1511,6.2055,6.2617,6.2702,6.2659,6.2676,6.2744,6.277,6.2537,6.2537,6.2736,6.2949,6.2676,6.2469,6.2879,6.3187,6.3119,6.309,6.2668,6.2679,6.2713,6.3025,6.3025,6.2753,6.2736,6.2459,6.2459,6.2398,6.2398,6.2381,6.2398,6.2398,6.2398,6.2421,6.2072,6.0958,6.0343,6.0085,5.9399,5.8864,5.8452,5.8597,5.8013,5.6984,5.714,5.7111,5.6697,5.6614,5.692,5.7429,5.7724,5.8192,5.8858,5.8944,5.8841,5.8513,5.8167,5.7288,5.5908,5.3994,5.3046,5.2925,5.2511,5.2201,5.2201,5.2235,5.2201,5.227,5.1977,5.1873,5.1908,5.2201,5.2615,5.3063,5.3546,5.3701,5.3425,5.3408,5.263,5.1312,5.1087,5.102,5.107,5.0926,5.1319,5.2198,5.2841,5.3247,5.3467,5.3518,5.3771,5.4211,5.4482,5.4888,5.5361,5.6038,5.6511,5.6833,5.7256,5.7611,5.7865,5.7881,5.7881,5.7881,5.7881,5.7915,5.7881,5.8355,5.8727,5.9184,5.9962,6.0842,6.1518,6.189,6.2026,6.2042,6.2347,6.2381,6.2398,6.2398,6.2398,6.2398,6.2398,6.2398,6.2398,6.2398,6.2398,6.2398,6.2398,6.2659,6.2873,6.2896,6.2992,6.26,6.2398,6.2398,6.2398,6.2398,6.2398,6.2398,6.2398,6.2398,6.2347,6.2296,6.2313,6.2381,6.2223,6.1934,6.2122,6.1753,6.0979,6.0389,6.0126,5.9448,5.8905,5.8543,5.8625,5.7871,5.6824,5.6874,5.6628,5.6055,5.5941,5.6303,5.6844,5.6827,5.7372,5.8192,5.8334,5.8334,5.8283,5.8027,5.7174,5.5825,5.4487,5.3729,5.3518,5.3197,5.3063,5.308,5.3063,5.3097,5.3028,5.2787,5.2666,5.2735,5.3115,5.3667,5.4253,5.4977,5.527,5.5063,5.4596,5.3999,5.3358,5.2652,5.217,5.1953,5.1729,5.185,5.2303,5.248,5.2747,5.3023,5.3327,5.3749,5.4497,5.5141,5.5581,5.6139,5.6782,5.7188,5.7289,5.7695,5.7865,5.7881,5.7881,5.7881,5.7898,5.8186,5.8287,5.8304,5.871,5.9252,5.981,6.0943,6.1755,6.2212,6.2364,6.2398,6.2398,6.2398,6.2398,6.2398,6.2398,6.2398,6.2398,6.2398,6.2398,6.2398,6.2398,6.2398,6.2398,6.2398,6.2398,6.2486,6.253,6.2557,6.2459,6.2398,6.2398,6.2398,6.2398,6.2398,6.2398,6.2381,6.2381,6.2296,6.1807,6.152,6.1261,6.1102,6.0904,6.1285,6.0767,6.0682,6.0308,5.9658,5.9026,5.8766,5.8583,5.815,5.7518,5.6834,5.6772,5.6302,5.562,5.5556,5.5797,5.6162,5.6224,5.6536,5.6996,5.7147,5.7147,5.7305,5.6673,5.5631,5.4555,5.438,5.4076,5.3581,5.3823,5.4431,5.4033,5.3999,5.4299,5.393,5.3662,5.333,5.3381,5.3582,5.4389,5.5506,5.6297,5.6881,5.7362,5.6321,5.5502,5.4832,5.3602,5.2792,5.257,5.2177,5.2021,5.2026,5.1533,5.1606,5.2368,5.2947,5.369,5.4606,5.5425,5.6287,5.6471,5.6993,5.7718,5.7413,5.7504,5.7645,5.7718,5.7825,5.7915,5.8101,5.8524,5.8947,5.915,5.937,5.9945,6.1146,6.1941,6.2279,6.2364,6.2398,6.2398,6.2398,6.2398,6.2398,6.2398,6.2398,6.2398,6.2398,6.2398,6.2398,6.2398,6.2398,6.2398,6.2398,6.2398,6.2347,6.1902,6.1958,6.2081,6.2144,6.2206,6.2047,6.2127,6.2047,6.2144,6.2047,6.1773,6.1475,6.111,6.0759,6.0387,6.0255,6.0197,6.0087,6.1206,6.0886,6.0372,6.0008,5.9733,5.949,5.9425,5.9425,5.9247,5.868,5.8065,5.7514,5.685,5.6203,5.5636,5.5475,5.5637,5.5637,5.5717,5.5861,5.5861,5.6475,5.6788,5.5933,5.5074,5.4556,5.3811,5.3245,5.306,5.3247,5.3315,5.3247,5.3332,5.3315,5.323,5.3602,5.3787,5.399,5.4918,5.5424,5.5913,5.6727,5.6875,5.6537,5.6208,5.545,5.4393,5.2994,5.235,5.2341,5.1711,5.1443,5.1385,5.1177,5.1313,5.1994,5.2362,5.3041,5.406,5.4755,5.5214,5.5611,5.6044,5.5939,5.6034,5.6597,5.6844,5.7089,5.7497,5.8045,5.8518,5.8856,5.943,6.0503,6.0451,6.09,6.1823,6.2262,6.2398,6.2398,6.2398,6.2319,6.2302,6.2223,6.2268,6.2234,6.2268,6.2223,6.2047,6.2223,6.2127,6.2302,6.2381,6.2398,6.2398,6.2398,6.215,6.1458,6.1371,6.1597,6.1628,6.1659,6.1497,6.1333,6.0903,6.082,6.0567,6.021,6.0004,6.0142,5.986,5.971,5.9739,5.9676,5.9585,6.0764,6.072,6.0291,6.0068,5.9992,5.9976,5.989,5.9829,5.9781,5.9395,5.8561,5.7887,5.7174,5.6462,5.5733,5.5409,5.5409,5.5409,5.5409,5.5409,5.5393,5.5781,5.6023,5.5253,5.4625,5.4212,5.3374,5.2765,5.2607,5.2697,5.2767,5.2836,5.2836,5.2836,5.2853,5.3151,5.3603,5.4058,5.5024,5.5799,5.6077,5.6837,5.6988,5.6412,5.5846,5.4559,5.3069,5.2168,5.1809,5.1753,5.1161,5.0615,5.0586,5.0547,5.0866,5.1533,5.2108,5.3038,5.4002,5.4422,5.4875,5.5199,5.5296,5.5296,5.5377,5.578,5.605,5.6129,5.6597,5.7133,5.7764,5.8362,5.9292,6.0174,6.0538,6.1063,6.2189,6.2381,6.2398,6.2302,6.203,6.1773,6.1773,6.153,6.131,6.13,6.1455,6.1363,6.1268,6.1611,6.1692,6.1595,6.1415,6.1251,6.1169,6.1169,6.1032,6.0453,6.0168,6.0509,6.0551,6.0653,6.0637,6.0299,5.9816,5.9515,5.9427,5.9306,5.9409,5.9421,5.912,5.8838,5.876,5.8798,5.878,6.031,6.0359,6.0359,6.0312,6.0297,6.0313,6.0185,6.002,5.9921,5.9415,5.8606,5.7797,5.7086,5.6476,5.5649,5.5328,5.5409,5.5409,5.5409,5.5409,5.5409,5.5475,5.5458,5.4661,5.3929,5.3278,5.3056,5.2483,5.2135,5.2345,5.2557,5.2487,5.2487,5.2557,5.2483,5.2653,5.3128,5.3601,5.4293,5.5073,5.5638,5.6236,5.6435,5.6253,5.4774,5.3435,5.2269,5.1557,5.1327,5.1475,5.0416,4.9931,4.9883,4.9792,5.0279,5.1042,5.214,5.3022,5.3887,5.4384,5.4854,5.4819,5.4819,5.5067,5.4902,5.4985,5.5133,5.5133,5.5279,5.6157,5.6936,5.7891,5.8852,5.9691,5.9697,6.0466,6.1595,6.211,6.211,6.2127,6.135,6.0986,6.0635,6.0214,5.9663,6.0374,6.0539,6.0587,6.0482,6.0652,6.0551,6.021,6.0038,5.9865,5.9762,5.9762,5.9569,5.9346,5.8834,5.8823,5.8966,5.9105,5.9409,5.9233,5.8844,5.8728,5.8818,5.8754,5.8675,5.8446,5.8126,5.762,5.7228,5.7508,5.7588,6.0648,6.0433,6.0449,6.043,6.0296,6.0329,6.0265,6.0171,5.9585,5.9267,5.8709,5.7322,5.6654,5.6611,5.5557,5.5097,5.5344,5.5328,5.5409,5.5409,5.5409,5.5409,5.5134,5.4227,5.3223,5.2604,5.1918,5.1554,5.1483,5.1598,5.1524,5.1598,5.1745,5.1524,5.1647,5.2097,5.2372,5.2682,5.3346,5.4064,5.4669,5.4992,5.5107,5.4881,5.3502,5.2612,5.2021,5.1182,5.0602,5.0214,4.9884,4.9718,4.9714,4.9804,5.0375,5.1234,5.1754,5.2352,5.2963,5.3237,5.3274,5.3449,5.3537,5.3274,5.3274,5.4008,5.4232,5.4497,5.54,5.6308,5.7469,5.8658,5.912,5.9274,5.9427,5.9603,6.0124,6.0226,6.0381,6.0296,6.0124,5.9865,5.9865,5.9691,5.948,5.9561,5.9659,5.9713,5.9674,5.9691,5.9427,5.9072,5.8966,5.8802,5.8908,5.8712,5.8409,5.8188,5.7731,5.7464,5.7637,5.7823,5.8161,5.8101,5.7731,5.7746,5.7824,5.7637,5.7402,5.7261,5.7119,5.6929,5.6784,5.67,5.6664,6.0681,6.0663,6.0648,6.0648,6.0568,6.0521,6.0433,6.0223,5.9661,5.9254,5.8844,5.7405,5.6683,5.6447,5.543,5.4948,5.4896,5.5014,5.5262,5.5328,5.5393,5.5247,5.4875,5.4211,5.3434,5.2705,5.2025,5.1556,5.1264,5.1183,5.1258,5.1183,5.1183,5.1258,5.1183,5.1556,5.1923,5.2264,5.2576,5.3288,5.4211,5.4049,5.3644,5.3402,5.2592,5.209,5.1669,5.1226,5.0749,5.039,5.018,4.9915,4.9928,5.0282,5.1005,5.1528,5.2052,5.2283,5.2637,5.2713,5.2803,5.2713,5.2713,5.2713,5.2698,5.3186,5.3362,5.3574,5.4442,5.5588,5.7006,5.7813,5.8193,5.8272,5.8272,5.8272,5.8455,5.9072,5.9603,5.9515,5.925,5.8982,5.8892,5.8712,5.8423,5.8157,5.8774,5.8802,5.8363,5.8287,5.8363,5.8195,5.7995,5.7917,5.8026,5.7762,5.7321,5.704,5.671,5.6534,5.6583,5.6827,5.7066,5.6954,5.6923,5.6634,5.6715,5.6454,5.6454,5.6475,5.6511,5.648,5.6399,5.6378,5.6342,6.0794,6.0794,6.0794,6.0794,6.0794,6.0747,6.0732,6.0446,5.9768,5.9277,5.8813,5.7619,5.6486,5.6021,5.5326,5.4664,5.4432,5.4513,5.4848,5.4998,5.518,5.502,5.4632,5.4487,5.4163,5.345,5.2527,5.1863,5.1491,5.1232,5.1183,5.1183,5.1183,5.1183,5.1199,5.1216,5.1475,5.1912,5.2025,5.2608,5.3612,5.3369,5.2867,5.2479,5.2074,5.175,5.1426,5.1286,5.1238,5.1056,5.1148,5.0782,5.0592,5.0928,5.1805,5.1852,5.2375,5.2606,5.2683,5.2713,5.2713,5.2713,5.2713,5.2713,5.2713,5.2819,5.2896,5.3266,5.3972,5.4931,5.5715,5.6648,5.6988,5.6954,5.6858,5.6761,5.7035,5.8287,5.8802,5.8892,5.8363,5.8026,5.784,5.7574,5.7131,5.6954,5.7574,5.784,5.7495,5.7226,5.7385,5.729,5.718,5.6988,5.7004,5.7022,5.6506,5.6222,5.5832,5.5886,5.5811,5.6009,5.6206,5.6274,5.6161,5.6077,5.6077,5.6161,5.6145,5.6017,5.6085,5.6137,5.6137,5.6054,5.5963,6.0794,6.0794,6.0794,6.0794,6.0794,6.0794,6.082,6.0527,5.9487,5.8931,5.8628,5.6865,5.5938,5.5405,5.4824,5.4402,5.4175,5.4173,5.4258,5.4513,5.4681,5.4771,5.4707,5.4775,5.4729,5.4017,5.3029,5.2191,5.1863,5.1507,5.128,5.1216,5.1183,5.1183,5.1183,5.1183,5.1232,5.1459,5.1491,5.196,5.2511,5.2592,5.2365,5.2058,5.1685,5.1378,5.141,5.1701,5.1859,5.1598,5.2245,5.2303,5.1919,5.1781,5.199,5.2375,5.259,5.2713,5.2713,5.2713,5.2713,5.2713,5.2713,5.2713,5.2713,5.2806,5.3114,5.3775,5.4622,5.5638,5.6469,5.6684,5.673,5.6761,5.6761,5.6761,5.6858,5.7211,5.7559,5.7653,5.7306,5.7131,5.7131,5.7035,5.6954,5.6761,5.7131,5.7306,5.7131,5.6842,5.6649,5.6552,5.6357,5.6062,5.5864,5.5941,5.5827,5.5666,5.5441,5.5456,5.5396,5.531,5.5396,5.5681,5.588,5.588,5.588,5.588,5.588,5.5864,5.5918,5.5956,5.5849,5.5626,5.555,6.0794,6.0794,6.0794,6.0794,6.0794,6.0794,6.0794,6.0594,5.9393,5.8793,5.8285,5.7008,5.5748,5.5132,5.4791,5.4317,5.3875,5.3742,5.3915,5.4087,5.4343,5.4428,5.4428,5.4681,5.4521,5.4077,5.3359,5.2679,5.2236,5.1896,5.1539,5.1232,5.1183,5.1183,5.1183,5.1183,5.1183,5.1183,5.1216,5.1491,5.2106,5.2171,5.2041,5.1637,5.141,5.1216,5.1313,5.1831,5.2149,5.2253,5.2724,5.2869,5.2769,5.2575,5.2344,5.2652,5.2713,5.2713,5.2713,5.2713,5.2713,5.2713,5.2713,5.2713,5.2821,5.3083,5.3637,5.4576,5.5084,5.5976,5.6654,5.6746,5.6761,5.6761,5.6761,5.6761,5.6761,5.6761,5.6761,5.6761,5.6858,5.6954,5.6858,5.6858,5.6858,5.6761,5.6761,5.6777,5.6777,5.6567,5.6274,5.6176,5.5979,5.578,5.5581,5.559,5.5515,5.5335,5.5194,5.5194,5.5194,5.5209,5.531,5.5396,5.5596,5.5466,5.5581,5.5466,5.5581,5.5566,5.5345,5.53,5.5325,5.523,5.4997,6.0794,6.0794,6.0794,6.0794,6.0794,6.0794,6.0794,6.0532,5.9362,5.8793,5.8577,5.7192,5.5807,5.479,5.4206,5.3652,5.3217,5.3024,5.3009,5.3655,5.3624,5.3726,5.3915,5.4103,5.4141,5.4153,5.3824,5.3326,5.2746,5.245,5.2025,5.1653,5.1426,5.1264,5.1216,5.1183,5.1183,5.1183,5.1199,5.1507,5.1863,5.196,5.1766,5.1248,5.1183,5.1248,5.1507,5.2155,5.2679,5.3006,5.3302,5.3418,5.3443,5.3129,5.2788,5.2713,5.2713,5.2713,5.2713,5.2713,5.2713,5.2713,5.2713,5.2713,5.2944,5.3483,5.4376,5.5407,5.5915,5.613,5.6684,5.6761,5.6761,5.6761,5.6761,5.6761,5.6761,5.6761,5.6761,5.6761,5.6761,5.6761,5.6761,5.6761,5.6761,5.668,5.668,5.6613,5.6598,5.6289,5.6077,5.5979,5.588,5.5581,5.5466,5.5421,5.5391,5.5265,5.5194,5.5194,5.5194,5.5194,5.5078,5.4845,5.4728,5.4611,5.4845,5.4845,5.4728,5.4552,5.4622,5.4312,5.3902,5.3608,5.3432,6.0794,6.0794,6.0794,6.0794,6.0794,6.0794,6.0794,6.0578,5.9332,5.8793,5.8462,5.6649,5.5343,5.4296,5.27,5.2368,5.2261,5.1727,5.1712,5.2577,5.2547,5.2815,5.3377,5.3915,5.3829,5.3797,5.3875,5.3871,5.3373,5.3101,5.2676,5.2094,5.1759,5.1782,5.114,5.1108,5.1183,5.1183,5.1183,5.1248,5.1329,5.1378,5.1297,5.1216,5.128,5.1475,5.2009,5.2705,5.342,5.3987,5.4386,5.4385,5.4001,5.3552,5.3129,5.2877,5.2713,5.2713,5.2713,5.2713,5.2713,5.2713,5.2713,5.2713,5.3175,5.3899,5.4822,5.5576,5.6192,5.6546,5.6715,5.6761,5.6761,5.6761,5.6761,5.6761,5.6761,5.6761,5.6761,5.6761,5.6761,5.6761,5.6761,5.6761,5.6761,5.668,5.6598,5.6433,5.6222,5.578,5.578,5.5681,5.5235,5.4932,5.4812,5.4899,5.4639,5.4713,5.4872,5.4786,5.4421,5.42,5.4186,5.3964,5.3756,5.386,5.4082,5.4082,5.3742,5.3521,5.3331,5.2807,5.2106,5.1957,5.1947,6.0794,6.0794,6.0794,6.0794,6.0794,6.0794,6.0578,5.9968,5.8655,5.7796,5.7117,5.5264,5.3871,5.2723,5.1369,5.1105,5.1169,5.0683,5.0683,5.1263,5.1326,5.1619,5.2094,5.2185,5.226,5.3113,5.317,5.3221,5.3238,5.3105,5.2587,5.1678,5.1486,5.1197,5.09,5.0788,5.094,5.1108,5.1183,5.1183,5.1183,5.1183,5.1183,5.1216,5.1556,5.1912,5.2398,5.3369,5.4001,5.4438,5.4645,5.4581,5.4087,5.3655,5.3217,5.2803,5.2713,5.2713,5.2713,5.2713,5.2713,5.2713,5.279,5.3052,5.3698,5.4376,5.5238,5.6238,5.6561,5.6761,5.6792,5.6761,5.6761,5.6761,5.6761,5.6761,5.6761,5.6761,5.6761,5.6761,5.6761,5.6664,5.6603,5.6495,5.6557,5.6695,5.635,5.5832,5.5355,5.4743,5.4962,5.5295,5.4728,5.4068,5.3994,5.3979,5.3419,5.3448,5.3891,5.3656,5.316,5.2886,5.3001,5.2837,5.2552,5.2779,5.3203,5.2992,5.2552,5.2259,5.2045,5.1569,5.1102,5.0712,5.0566,6.069,6.0451,6.069,6.0794,6.0794,6.0586,5.9976,5.9047,5.7598,5.6434,5.5388,5.3763,5.2236,5.1252,5.0552,5.0302,5.0383,5.0013,5.011,5.0206,5.0302,5.0603,5.0981,5.0887,5.1169,5.2139,5.1896,5.2018,5.2347,5.2508,5.216,5.143,5.1498,5.1056,5.0706,5.0482,5.0541,5.0711,5.0788,5.0864,5.094,5.1016,5.1221,5.1539,5.1912,5.2365,5.2867,5.3677,5.4357,5.4729,5.4873,5.4765,5.4343,5.3899,5.3393,5.3055,5.2893,5.2713,5.2713,5.2713,5.2713,5.2713,5.2837,5.3221,5.4422,5.4853,5.5545,5.6884,5.7038,5.7069,5.6992,5.6915,5.6761,5.6761,5.6761,5.6761,5.6761,5.6761,5.6664,5.6664,5.6552,5.6244,5.625,5.6133,5.6291,5.6537,5.6184,5.5287,5.4466,5.3681,5.3666,5.3993,5.3547,5.2992,5.2996,5.2852,5.2337,5.2138,5.2617,5.2679,5.2159,5.1969,5.1877,5.1627,5.1293,5.1031,5.1017,5.1127,5.1237,5.1016,5.0836,5.0713,5.0266,4.9871,4.9515,6.0346,5.9698,6.0405,6.0567,6.0494,5.991,5.8806,5.7314,5.5946,5.4539,5.3229,5.2166,5.0974,5.0344,4.9727,4.9737,5.0206,4.8881,4.9262,4.9752,4.9834,4.9834,5.0124,5.0302,5.0397,5.0683,5.0683,5.0683,5.0857,5.1621,5.2109,5.2649,5.1748,5.1348,5.0832,5.0279,5.0105,5.0152,5.0152,5.0308,5.048,5.0714,5.1032,5.1823,5.2268,5.2802,5.4098,5.4422,5.4713,5.5199,5.5263,5.5097,5.4597,5.4242,5.3813,5.3305,5.2966,5.2803,5.2713,5.2713,5.2713,5.2713,5.2837,5.3237,5.4391,5.5268,5.6238,5.73,5.75,5.77,5.7515,5.7238,5.7146,5.6977,5.6992,5.6869,5.6838,5.6552,5.6552,5.6552,5.6244,5.5735,5.5545,5.5349,5.5561,5.5804,5.4613,5.3704,5.3107,5.2352,5.2136,5.2244,5.2014,5.1811,5.1839,5.1512,5.1308,5.1211,5.1391,5.1554,5.143,5.1224,5.0612,5.0395,5.0041,4.9388,4.9058,4.9602,4.9928,4.9702,4.9602,4.9502,4.9388,4.9027,4.8745,5.8113,5.7723,5.6481,5.6479,5.7479,5.7143,5.594,5.4036,5.2819,5.1321,4.977,4.9455,4.9033,4.8594,4.8681,4.8695,4.8881,4.8509,4.8595,4.8695,4.8795,4.9079,4.936,4.9444,4.9346,5.0013,5.0028,5.0028,5.0493,5.0698,5.0892,5.1273,5.1215,5.1022,5.0469,5.0086,4.9915,4.9836,4.9836,4.9979,5.0153,5.0612,5.0993,5.1296,5.2797,5.3263,5.3922,5.4648,5.5053,5.5328,5.5312,5.5081,5.4848,5.4513,5.4071,5.3465,5.3144,5.2982,5.2729,5.2713,5.2713,5.2713,5.2775,5.3129,5.416,5.5084,5.6038,5.6992,5.7977,5.8362,5.8316,5.8146,5.7977,5.7577,5.7285,5.7115,5.669,5.6372,5.6032,5.5933,5.5421,5.4815,5.4696,5.4562,5.4854,5.4958,5.3544,5.2268,5.1568,5.1141,5.092,5.0934,5.0809,5.0587,5.0615,5.0525,5.0343,5.0324,5.029,5.0249,5.0177,4.9583,4.9014,4.8855,4.8944,4.8726,4.8624,4.874,4.8842,4.8944,4.8726,4.8508,4.8289,4.8185,4.8185,5.6212,5.5748,5.338,5.3331,5.4583,5.4411,5.3095,5.1256,5.0281,4.8866,4.7106,4.7476,4.7493,4.7267,4.7391,4.7699,4.7903,4.7917,4.8018,4.812,4.8322,4.8409,4.861,4.8595,4.8781,4.9459,4.936,4.9262,4.9542,4.9931,4.9904,4.9922,4.9899,4.9885,5.0067,4.9727,4.9517,4.9517,4.9517,4.9582,4.9756,5.0306,5.1051,5.1369,5.2679,5.3461,5.3895,5.4461,5.4819,5.4899,5.4915,5.4832,5.4681,5.4428,5.4071,5.364,5.3217,5.3055,5.2803,5.2713,5.2713,5.2713,5.2713,5.3083,5.3837,5.5084,5.6438,5.7161,5.8285,5.9085,5.9039,5.8793,5.83,5.7792,5.7639,5.7438,5.6457,5.5933,5.5521,5.522,5.4494,5.3875,5.3189,5.2996,5.2929,5.3064,5.2287,5.1072,5.0222,4.9942,4.9716,4.9716,4.9716,4.9602,4.9388,4.932,4.9338,4.9223,4.9173,4.9031,4.8729,4.8211,4.8185,4.8392,4.8508,4.8289,4.8289,4.8405,4.8405,4.8289,4.8185,4.8185,4.8185,4.8185,4.8185,5.4873,5.3992,5.2061,5.1887,5.2409,5.1906,5.0743,4.937,4.853,4.7554,4.6393,4.6537,4.6523,4.6428,4.6651,4.6963,4.7288,4.7288,4.7494,4.7815,4.7815,4.8018,4.812,4.812,4.8106,4.812,4.8322,4.8409,4.8409,4.898,4.896,4.8615,4.8605,4.876,4.9312,4.8913,4.865,4.8604,4.8604,4.8949,4.9377,5.0019,5.0876,5.1717,5.2692,5.3455,5.3888,5.4131,5.4428,5.4428,5.4343,5.4359,5.4274,5.3915,5.364,5.3465,5.3055,5.2803,5.2713,5.2713,5.2713,5.2713,5.2729,5.3037,5.3929,5.5345,5.6838,5.7423,5.8808,5.9593,5.9532,5.927,5.8731,5.8116,5.7994,5.7296,5.634,5.5329,5.4863,5.4348,5.3547,5.2808,5.1962,5.1348,5.0988,5.0876,5.0599,4.9983,4.9301,4.8957,4.8944,4.8944,4.8944,4.8828,4.8713,4.8508,4.8328,4.8198,4.8211,4.8367,4.8367,4.8198,4.8185,4.8185,4.8185,4.8185,4.8185,4.8172,4.8185,4.8185,4.8185,4.8185,4.8185,4.8185,4.8185,5.1889,5.0355,4.7975,4.7136,4.7555,4.845,4.7866,4.6464,4.602,4.5726,4.5434,4.5702,4.5914,4.5914,4.6218,4.6442,4.6651,4.6755,4.686,4.695,4.7067,4.7288,4.7391,4.761,4.7699,4.8018,4.812,4.8018,4.812,4.8338,4.8113,4.7714,4.7217,4.7263,4.7555,4.7583,4.7749,4.7463,4.7934,4.8721,4.8943,4.9928,5.0909,5.1732,5.2582,5.3286,5.3608,5.3829,5.3931,5.4017,5.4017,5.4017,5.4017,5.3742,5.3552,5.3465,5.3129,5.3055,5.2803,5.2713,5.2713,5.2624,5.276,5.3021,5.3806,5.5114,5.6438,5.7731,5.8993,5.9762,6.0224,6.027,5.9783,5.8647,5.8004,5.7106,5.6109,5.4934,5.4187,5.3434,5.2701,5.1941,5.1155,5.0389,4.9932,4.9785,4.9623,4.9656,4.9072,4.8624,4.8392,4.8392,4.8405,4.8289,4.8185,4.8185,4.8185,4.8185,4.8185,4.8198,4.8185,4.8185,4.8185,4.8185,4.8185,4.8185,4.8185,4.8185,4.8185,4.8185,4.8185,4.8185,4.8185,4.8185,4.8185,4.9348,4.8053,4.5739,4.4735,4.4839,4.5972,4.5704,4.48,4.4735,4.4735,4.4843,4.5154,4.5261,4.5381,4.5582,4.6007,4.6126,4.6112,4.6323,4.6309,4.6414,4.6637,4.686,4.6977,4.7067,4.748,4.7494,4.7494,4.7349,4.7476,4.7063,4.6475,4.6026,4.5852,4.6043,4.6535,4.7031,4.7078,4.7752,4.8241,4.8561,4.9355,5.056,5.1175,5.1917,5.2846,5.3113,5.3393,5.3568,5.3568,5.3568,5.3584,5.3568,5.329,5.3098,5.2831,5.2457,5.2185,5.1926,5.1834,5.1742,5.1757,5.2322,5.3037,5.3791,5.5007,5.613,5.7408,5.8754,5.9614,6.0214,6.0367,5.9712,5.8535,5.7766,5.6867,5.5356,5.4258,5.3619,5.288,5.199,5.1266,5.039,4.9657,4.8935,4.8845,4.8845,4.8792,4.8842,4.8508,4.8185,4.8185,4.8185,4.8185,4.8185,4.8185,4.8185,4.8185,4.8185,4.8185,4.8185,4.8185,4.8185,4.8185,4.8185,4.8185,4.8185,4.8185,4.8185,4.8185,4.8185,4.8185,4.8185,4.8185,4.8185,4.7362,4.704,4.5473,4.4735,4.4748,4.4839,4.4774,4.4735,4.4735,4.4735,4.4735,4.4735,4.4843,4.4735,4.4735,4.5059,4.5488,4.5595,4.5795,4.6099,4.5993,4.6218,4.6323,4.6442,4.6546,4.6533,4.6533,4.6742,4.6451,4.6291,4.594,4.533,4.4741,4.4537,4.4847,4.5432,4.6048,4.6371,4.7406,4.757,4.7539,4.9034,4.9896,5.0365,5.1,5.182,5.2215,5.2487,5.2487,5.2503,5.2608,5.2608,5.2427,5.1941,5.1665,5.1371,5.0872,5.0778,5.0683,5.0778,5.0683,5.0981,5.1848,5.2765,5.3622,5.4535,5.5506,5.6572,5.7836,5.8772,5.9502,5.9288,5.9016,5.8196,5.7572,5.6201,5.4663,5.3675,5.3186,5.2329,5.1418,5.0556,4.965,4.8868,4.8431,4.8444,4.8458,4.8444,4.8521,4.8405,4.8185,4.8185,4.8185,4.8185,4.8185,4.8185,4.8185,4.8185,4.8185,4.8185,4.8185,4.8185,4.8185,4.8185,4.8185,4.8185,4.8185,4.8185,4.8185,4.8185,4.8185,4.8185,4.8185,4.8185,4.8185,4.6719,4.5486,4.4896,4.4735,4.4735,4.4735,4.4735,4.4735,4.4735,4.4735,4.4735,4.4735,4.4735,4.4735,4.4735,4.4843,4.4951,4.4938,4.5046,4.5154,4.5368,4.5582,4.5702,4.5914,4.602,4.6218,4.6309,4.6164,4.613,4.567,4.477,4.4204,4.374,4.3506,4.3628,4.4073,4.4634,4.5416,4.6858,4.6905,4.708,4.8492,4.913,4.969,5.0184,5.0832,5.1154,5.1248,5.1248,5.1154,5.1061,5.1061,5.0967,5.0887,5.0793,5.0778,5.0478,5.0383,5.0383,5.0383,5.0316,5.0382,5.1208,5.1899,5.2748,5.3638,5.4596,5.5756,5.6609,5.7389,5.7963,5.796,5.7779,5.7416,5.6843,5.5926,5.4455,5.3735,5.3063,5.1806,5.0795,4.9983,4.9058,4.8624,4.8302,4.8185,4.8185,4.8185,4.8185,4.8185,4.8185,4.8185,4.8185,4.8185,4.8185,4.8185,4.8185,4.8185,4.8185,4.8185,4.8185,4.8185,4.8185,4.8185,4.8185,4.8185,4.8185,4.8185,4.8185,4.8185,4.8185,4.8185,4.8185,4.8185,4.8185,4.5673,4.4748,4.4735,4.4735,4.4735,4.4735,4.4735,4.4735,4.4735,4.4735,4.4735,4.4735,4.4735,4.4735,4.4735,4.4735,4.4735,4.4735,4.4843,4.4843,4.4735,4.4951,4.5167,4.5274,4.5368,4.5675,4.5728,4.5435,4.5206,4.4501,4.366,4.3514,4.2995,4.2941,4.308,4.3341,4.3533,4.4503,4.5543,4.6089,4.6785,4.7542,4.8253,4.8763,4.9326,4.9787,5.0287,5.0287,5.0383,5.0383,5.0383,5.0383,5.0302,5.0206,4.964,4.964,4.936,4.936,4.936,4.936,4.9589,4.9991,5.0469,5.102,5.1918,5.285,5.3876,5.4835,5.5174,5.5691,5.6143,5.6544,5.6529,5.6488,5.6022,5.5552,5.4771,5.3965,5.2673,5.128,5.032,4.9529,4.8842,4.8405,4.8185,4.8185,4.8185,4.8185,4.8185,4.8185,4.8185,4.8185,4.8185,4.8185,4.8185,4.8185,4.8185,4.8185,4.8185,4.8185,4.8185,4.8185,4.8185,4.8185,4.8185,4.8185,4.8185,4.8185,4.8185,4.8185,4.8185,4.8198,4.8198,4.8185,4.8185,4.4748,4.4735,4.4735,4.4735,4.4735,4.4735,4.4735,4.4613,4.4626,4.4722,4.4735,4.4735,4.4735,4.4735,4.4735,4.4735,4.4735,4.4735,4.4735,4.4722,4.4735,4.4843,4.4843,4.4735,4.4833,4.4765,4.4621,4.4493,4.3848,4.3277,4.3025,4.2831,4.2693,4.2582,4.2484,4.2679,4.2873,4.3286,4.4456,4.5352,4.5183,4.5997,4.7165,4.7444,4.8024,4.8765,4.9727,5.0095,5.0191,5.0191,5.0095,5.0013,4.982,4.9542,4.8881,4.8595,4.8509,4.8509,4.8509,4.8509,4.8762,4.9126,4.9595,5.0402,5.1337,5.22,5.3149,5.3544,5.3965,5.4299,5.4771,5.506,5.5174,5.5381,5.5438,5.5167,5.4669,5.371,5.2182,5.0846,4.9897,4.9098,4.8624,4.8185,4.8185,4.8185,4.8185,4.8185,4.8185,4.8185,4.8185,4.8185,4.8185,4.8185,4.8185,4.8185,4.8185,4.8185,4.8185,4.8185,4.8185,4.8185,4.8185,4.8185,4.8185,4.8185,4.8185,4.8185,4.8185,4.8185,4.8185,4.8211,4.8107,4.8133,4.8185,4.4735,4.4735,4.4735,4.4735,4.4735,4.4735,4.4626,4.4422,4.4422,4.4518,4.4626,4.4735,4.4626,4.4626,4.4626,4.4613,4.4561,4.4496,4.4722,4.4617,4.4483,4.4474,4.4657,4.45,4.4408,4.4186,4.3938,4.3559,4.2931,4.2469,4.2088,4.1776,4.1796,4.1895,4.1895,4.2092,4.2302,4.2427,4.3131,4.3973,4.4083,4.5025,4.6056,4.6517,4.7122,4.7801,4.8524,4.8681,4.8681,4.8581,4.8595,4.8595,4.8595,4.8495,4.8308,4.8134,4.8134,4.8134,4.8134,4.8176,4.8485,4.9033,4.9637,5.0227,5.0975,5.1683,5.2238,5.2516,5.2715,5.3029,5.3357,5.3593,5.3935,5.4432,5.4939,5.4768,5.4583,5.3201,5.1677,5.0544,4.9536,4.8881,4.8418,4.8185,4.8185,4.8185,4.8185,4.8185,4.8185,4.8185,4.8185,4.8185,4.8185,4.8185,4.8185,4.8185,4.8185,4.8185,4.8185,4.8185,4.8172,4.8185,4.8185,4.8185,4.8185,4.8185,4.8185,4.8185,4.8185,4.8159,4.8042,4.7925,4.7897,4.7738,4.7964,4.4735,4.4735,4.4735,4.4626,4.4518,4.4518,4.4422,4.4107,4.4107,4.4216,4.4313,4.4313,4.4313,4.43,4.4313,4.4054,4.3963,4.3898,4.3747,4.3776,4.3828,4.3805,4.387,4.3935,4.3781,4.3506,4.318,4.2709,4.216,4.1834,4.1546,4.1337,4.1311,4.1311,4.1311,4.1597,4.1782,4.1796,4.2092,4.2471,4.2943,4.3903,4.4853,4.5425,4.5937,4.6634,4.7462,4.7712,4.7917,4.8018,4.8221,4.8221,4.8221,4.8221,4.812,4.8134,4.8134,4.8134,4.8134,4.8246,4.8569,4.9244,4.9679,5.0269,5.1197,5.1972,5.1986,5.2127,5.2127,5.2396,5.2579,5.2851,5.3161,5.3543,5.4161,5.4512,5.3786,5.2614,5.1135,4.9845,4.8983,4.8534,4.8172,4.8185,4.8185,4.8185,4.8185,4.8185,4.8185,4.8185,4.8185,4.8185,4.8185,4.8185,4.8185,4.8185,4.8185,4.8185,4.8172,4.8172,4.8172,4.8172,4.8185,4.8055,4.8055,4.8185,4.8185,4.8068,4.8003,4.7951,4.773,4.7626,4.7529,4.7509,4.7513,4.4696,4.4522,4.4418,4.4284,4.408,4.3971,4.3836,4.363,4.3656,4.3411,4.3225,4.3347,4.3597,4.3784,4.3436,4.3201,4.2933,4.2697,4.246,4.2375,4.2285,4.2426,4.2507,4.2577,4.263,4.2476,4.2293,4.211,4.1836,4.1625,4.1415,4.1324,4.1311,4.1311,4.1311,4.1311,4.1411,4.1411,4.161,4.1696,4.2092,4.2525,4.3562,4.423,4.4705,4.5581,4.6668,4.7301,4.7507,4.7712,4.7815,4.8032,4.8032,4.8134,4.8134,4.8134,4.8134,4.8134,4.8162,4.8288,4.8949,4.9595,4.989,5.0508,5.145,5.1759,5.1773,5.1773,5.1773,5.1843,5.2026,5.218,5.2475,5.2743,5.3514,5.3818,5.2867,5.1946,5.0594,4.9112,4.8753,4.8302,4.8172,4.8172,4.8185,4.8185,4.8185,4.8185,4.8185,4.8185,4.8185,4.8185,4.8185,4.8185,4.8185,4.8172,4.8172,4.8159,4.8146,4.8159,4.8055,4.7925,4.7808,4.7938,4.7938,4.7938,4.7821,4.7703,4.7743,4.7665,4.76,4.7429,4.7279,4.7218,4.7098,4.4353,4.3695,4.3228,4.2822,4.2635,4.2635,4.2396,4.2207,4.2245,4.163,4.1027,4.1597,4.2182,4.3035,4.166,4.1276,4.1853,4.1442,4.0997,4.086,4.0827,4.0926,4.0926,4.0796,4.1246,4.1348,4.1209,4.1129,4.1092,4.1126,4.1311,4.1211,4.1311,4.1311,4.1311,4.1311,4.1311,4.1311,4.1311,4.1411,4.1498,4.2179,4.317,4.3908,4.4624,4.5486,4.6166,4.6506,4.6637,4.686,4.7184,4.761,4.7815,4.7917,4.7917,4.7917,4.8018,4.8032,4.8088,4.8415,4.9075,4.9806,5.0185,5.0789,5.1464,5.1773,5.1773,5.1773,5.1773,5.1773,5.1899,5.179,5.2014,5.2212,5.2727,5.2187,5.1448,5.0688,4.9743,4.8988,4.8703,4.8341,4.8172,4.8185,4.8185,4.8185,4.8185,4.8185,4.8185,4.8185,4.8185,4.8172,4.8172,4.8185,4.8185,4.8172,4.8055,4.8029,4.7912,4.786,4.7637,4.7442,4.7442,4.7573,4.7573,4.7442,4.7455,4.7468,4.7298,4.7247,4.7285,4.7257,4.6958,4.6901,4.6768]},{"header":{"parameterUnit":"m.s-1","parameterCategory":1,"la1":31.0,"la2":29.5877,"lo1":-88.7671,"lo2":-86.6584,"dy":0.0162,"dx":0.0185,"nx":115,"ny":88,"refTime":"2024-08-17T06:00:00:Z","depth":0,"parameterNumber":3,"parameterNumberName":"V-component_of_WINDS"},"data":[0.0,0.0,0.0,0.0,0.0,0.0,0.0,0.0,0.0,0.0,0.0,0.0,0.0,0.0,0.0,0.0,0.0,0.0,0.0,0.0,0.0,0.0,0.0,0.0,0.0,0.0,0.0,0.0,0.0,0.0,0.0,0.0,0.0,0.0,0.0,0.0,0.0,0.0,0.0,0.0,0.0,0.0,0.0,0.0,0.0,0.0,0.0,0.0,0.0,0.0,0.0,0.0,0.0,0.0,0.0,0.0,0.0,0.0,0.0,0.0,0.0,0.0,0.0,0.0,0.0,0.0,0.0,0.0,0.0,0.0,0.0,0.0,0.0,0.0,0.0,0.0,0.0,0.0,0.0,0.0,0.0,0.0,0.0,0.0,0.0,0.0,0.0,0.0,0.0,0.0,0.0,0.0,0.0,0.0,0.0,0.0,0.0,0.0,0.0,0.0,0.0,0.0,0.0,0.0,0.0,0.0,0.0,0.0,0.0,0.0,0.0,0.0,0.0,0.0,0.0,0.0,0.0,0.0,0.0,0.0,0.0,0.0,0.0,0.0,0.0,0.0,0.0,0.0,0.0,0.0,0.0,0.0,0.0,0.0,0.0,0.0,0.0,0.0,0.0,0.0,0.0,0.0,0.0,0.0,0.0,0.0,0.0,0.0,0.0,0.0,0.0,0.0,0.0,0.0,0.0,0.0,0.0,0.0,0.0,0.0,0.0,0.0,0.0,0.0,0.0,0.0,0.0,0.0,0.0,0.0,0.0,0.0,0.0,0.0,0.0,0.0,0.0,0.0,0.0,0.0,0.0,0.0,0.0,0.0,0.0,0.0,0.0,0.0,0.0,0.0,0.0,0.0,0.0,0.0,0.0,0.0,0.0,0.0,0.0,0.0,0.0,0.0,0.0,0.0,0.0,0.0,0.0,0.0,0.0,0.0,0.0,0.0,0.0,0.0,0.0,0.0,0.0,0.0,0.0,0.0,0.0,0.0,0.0,0.0,0.0,0.0,0.0,0.0,0.0,0.0,0.0,0.0,0.0,0.0,0.0,0.0,0.0,0.0,0.0,0.0,0.0,0.0,0.0,0.0,0.0,0.0,0.0,0.0,0.0,0.0,0.0,0.0,0.0,0.0,0.0,0.0,0.0,0.0,0.0,0.0,0.0,0.0,0.0,0.0,0.0,0.0,0.0,0.0,0.0,0.0,0.0,0.0,0.0,0.0,0.0,0.0,0.0,0.0,0.0,0.0,0.0,0.0,0.0,0.0,0.0,0.0,0.0,0.0,0.0,0.0,0.0,0.0,0.0,0.0,0.0,0.0,0.0,0.0,0.0,0.0,0.0,0.0,0.0,0.0,0.0,0.0,0.0,0.0,0.0,0.0,0.0,0.0,0.0,0.0,0.0,0.0,0.0,0.0,0.0,0.0,0.0,0.0,0.0,0.0,0.0,0.0,0.0,0.0,0.0,0.0,0.0,0.0,0.0,0.0,0.0,0.0,0.0,0.0,0.0,0.0,0.0,0.0,0.0,0.0,0.0,0.0,0.0,0.0,0.0,0.0,0.0,0.0,0.0,0.0,0.0,0.0,0.0,0.0,0.0,0.0,0.0,0.0,0.0,0.0,0.0,0.0,0.0,0.0,0.0,0.0,0.0,0.0,0.0,0.0,0.0,0.0,0.0,0.0,0.0,0.0,0.0,0.0,0.0,0.0,0.0,0.0,0.0,0.0,0.0,0.0,0.0,0.0,0.0,0.0,0.0,0.0,0.0,0.0,0.0,0.0,0.0,0.0,0.0,0.0,0.0,0.0,0.0,0.0,0.0,0.0,0.0,0.0,0.0,0.0,0.0,0.0,0.0,0.0,0.0,0.0,0.0,0.0,0.0,0.0,0.0,0.0,0.0,0.0,0.0,0.0,0.0,0.0,0.0,0.0,0.0,0.0,0.0,0.0,0.0,0.0,0.0,0.0,0.0,0.0,0.0,0.0,0.0,0.0,0.0,0.0,0.0,0.0,0.0,0.0,0.0,0.0,0.0,0.0,0.0,0.0,0.0,0.0,0.0,0.0,0.0,0.0,0.0,0.0,0.0,0.0,0.0,0.0,0.0,0.0,0.0,0.0,0.0,0.0,0.0,0.0,0.0,0.0,0.0,0.0,0.0,0.0,0.0,0.0,0.0,0.0,0.0,0.0,0.0,0.0,0.0,0.0,0.0,0.0,0.0,0.0,0.0,0.0,0.0,0.0,0.0,0.0,0.0,0.0,0.0,0.0,0.0,0.0,0.0,0.0,0.0,0.0,0.0,0.0,0.0,0.0,0.0,0.0,0.0,0.0,0.0,0.0,0.0,0.0,0.0,0.0,0.0,0.0,0.0,0.0,0.0,0.0,0.0,0.0,0.0,0.0,0.0,0.0,0.0,0.0,0.0,0.0,0.0,0.0,0.0,0.0,0.0,0.0,0.0,0.0,0.0,0.0,0.0,0.0,0.0,0.0,0.0,0.0,0.0,0.0,0.0,0.0,0.0,0.0,0.0,0.0,0.0,0.0,0.0,0.0,0.0,0.0,0.0,0.0,0.0,0.0,0.0,0.0,0.0,0.0,0.0,0.0,0.0,0.0,0.0,0.0,0.0,0.0,0.0,0.0,0.0,0.0,0.0,0.0,0.0,0.0,0.0,0.0,0.0,0.0,0.0,0.0,0.0,0.0,0.0,0.0,0.0,0.0,0.0,0.0,0.0,0.0,0.0,0.0,0.0,0.0,0.0,0.0,0.0,0.0,0.0,0.0,0.0,0.0,0.0,0.0,0.0,0.0,0.0,0.0,0.0,0.0,0.0,0.0,0.0,0.0,0.0,0.0,0.0,0.0,0.0,0.0,0.0,0.0,0.0,0.0,0.0,0.0,0.0,0.0,0.0,0.0,0.0,0.0,0.0,0.0,0.0,0.0,0.0,0.0,0.0,0.0,0.0,0.0,0.0,0.0,0.0,0.0,0.0,0.0,0.0,0.0,0.0,0.0,0.0,0.0,0.0,0.0,0.0,0.0,0.0,0.0,0.0,0.0,0.0,0.0,0.0,0.0,0.0,0.0,0.0,0.0,0.0,0.0,0.0,0.0,0.0,0.0,0.0,0.0,0.0,0.0,0.0,0.0,0.0,0.0,0.0,0.0,0.0,0.0,0.0,0.0,0.0,0.0,0.0,0.0,0.0,0.0,0.0,0.0,0.0,0.0,0.0,0.0,0.0,0.0,0.0,0.0,0.0,0.0,0.0,0.0,0.0,0.0,0.0,0.0,0.0,0.0,0.0,0.0,0.0,0.0,0.0,0.0,0.0,0.0,0.0,0.0,0.0,0.0,0.0,0.0,0.0,0.0,0.0,0.0,0.0,0.0,0.0,0.0,0.0,0.0,0.0,0.0,0.0,0.0,0.0,0.0,0.0,0.0,0.0,0.0,0.0,0.0,0.0,0.0,0.0,0.0,0.0,0.0,0.0,0.0,0.0,0.0,0.0,0.0,0.0,0.0,0.0,0.0,0.0,0.0,0.0,0.0,0.0,0.0,0.0,0.0,0.0,0.0,0.0,0.0,0.0,0.0,0.0,0.0,0.0,0.0,0.0,0.0,0.0,0.0,0.0,0.0,0.0,0.0,0.0,0.0,0.0,0.0,0.0,0.0,0.0,0.0,0.0,0.0,0.0,0.0,0.0,0.0,0.0,0.0,0.0,0.0,0.0,0.0,0.0,0.0,0.0,0.0,0.0,0.0,0.0,0.0,0.0,0.0,0.0,0.0,0.0,0.0,0.0,0.0,0.0,0.0,0.0,0.0,0.0,0.0,0.0,0.0,0.0,0.0,0.0,0.0,0.0,0.0,0.0,0.0,0.0,0.0,0.0,0.0,0.0,0.0,0.0,0.0,0.0,0.0,0.0,0.0,0.0,0.0,0.0,0.0,0.0,0.0,0.0,0.0,0.0,0.0,0.0,0.0,0.0,0.0,0.0,0.0,0.0,0.0,0.0,0.0,0.0,0.0,0.0,0.0,0.0,0.0,0.0,0.0,0.0,0.0,0.0,0.0,0.0,0.0,0.0,0.0,0.0,0.0,0.0,0.0,0.0,0.0,0.0,0.0,0.0,0.0,0.0,0.0,0.0,0.0,0.0,0.0,0.0,0.0,0.0,0.0,0.0,0.0,0.0,0.0,0.0,0.0,0.0,0.0,0.0,0.0,0.0,0.0,0.0,0.0,0.0,0.0,0.0,0.0,0.0,0.0,0.0,0.0,0.0,0.0,0.0,0.0,-0.1767,0.0,0.0,0.0,0.0,0.0,0.0,0.0,0.0,0.0,0.0,0.0,0.0,0.0,0.0,0.0,0.0,0.0,0.0,0.0,0.0,0.0,0.0,0.0,0.0,0.0,0.0,0.0,0.0,0.0,0.0,0.0,0.0,0.0,0.0,0.0,0.0,0.0,0.0,0.0,0.0,0.0,0.0,0.0,0.0,0.0,0.0,0.0,0.0,0.0,0.0,0.0,0.0,0.0,0.0,0.0,0.0,0.0,0.0,0.0,0.0,0.0,0.0,0.0,0.0,0.0,0.0,0.0,0.0,0.0,0.0,0.0,0.0,0.0,0.0,0.0,0.0,0.0,0.0,0.0,0.0,0.0,0.0,0.0,0.0,0.0,0.0,0.0,0.0,0.0,0.0,0.0,0.0,0.0,0.0,0.0,0.0,0.0,0.0,0.0,0.0,0.0,0.0,0.0,0.0,0.0,0.0,0.0,0.0,0.0,0.0,-0.2047,-0.2011,-0.1998,-0.1946,-0.1799,0.0,0.0,0.0,0.0,0.0,0.0,0.0,0.0,0.0,0.0,0.0,0.0,0.0,0.0,0.0,0.0,0.0,0.0,0.0,0.0,0.0,0.0,0.0,0.0,0.0,0.0,0.0,0.0,0.0,0.0,0.0,0.0,0.0,0.0,0.0,0.0,0.0,0.0,0.0,0.0,0.0,0.0,0.0,0.0,0.0,0.0,0.0,0.0,0.0,0.0,0.0,0.0,0.0,0.0,0.0,0.0,0.0,0.0,0.0,0.0,0.0,0.0,0.0,0.0,0.0,0.0,0.0,0.0,0.0,0.0,0.0,0.0,0.0,0.0,0.0,0.0,0.0,0.0,0.0,0.0,0.0,0.0,0.0,0.0,0.0,0.0,0.0,0.0,0.0,0.0,0.0,0.0,0.0,0.0,0.0,0.0,0.0,0.0,0.0,0.0,0.0,0.0,0.0,0.0,0.0,0.0,0.0,0.0,0.0,0.0,0.0,0.0,-0.1945,-0.1915,-0.1783,0.0,0.0,0.0,0.0,0.0,0.0,0.0,0.0,0.0,0.0,0.0,0.0,0.0,0.0,0.0,0.0,0.0,0.0,0.0,0.0,0.0,0.0,0.0,0.0,0.0,0.0,0.0,0.0,0.0,0.0,0.0,0.0,0.0,0.0,0.0,0.0,0.0,0.0,0.0,0.0,0.0,0.0,0.0,0.0,0.0,0.0,0.0,0.0,0.0,0.0,0.0,0.0,0.0,0.0,0.0,0.0,0.0,0.0,0.0,0.0,0.0,0.0,0.0,0.0,0.0,0.0,0.0,0.0,0.0,0.0,0.0,0.0,0.0,0.0,0.0,0.0,0.0,0.0,0.0,0.0,0.0,0.0,0.0,0.0,0.0,0.0,0.0,0.0,0.0,0.0,0.0,0.0,0.0,0.0,0.0,0.0,0.0,0.0,0.0,0.0,0.0,0.0,0.0,0.0,0.0,0.0,0.0,0.0,0.0,0.0,-0.1911,-0.1878,-0.1911,0.0,-0.1716,0.0,0.0,0.0,0.0,0.0,0.0,0.0,0.0,0.0,0.0,0.0,0.0,0.0,0.0,0.0,0.0,0.0,0.0,0.0,0.0,0.0,0.0,0.0,0.0,0.0,0.0,0.0,0.0,0.0,0.0,0.0,0.0,0.0,0.0,0.0,0.0,0.0,0.0,0.0,0.0,0.0,0.0,0.0,0.0,0.0,0.0,0.0,0.0,0.0,0.0,0.0,0.0,0.0,0.0,0.0,0.0,0.0,0.0,0.0,0.0,0.0,0.0,0.0,0.0,0.0,0.0,0.0,0.0,0.0,0.0,0.0,0.0,0.0,0.0,0.0,0.0,0.0,0.0,0.0,0.0,0.0,0.0,0.0,0.0,0.0,0.0,0.0,0.0,0.0,0.0,0.0,0.0,0.0,0.0,0.0,0.0,0.0,0.0,0.0,0.0,0.0,0.0,0.0,0.0,0.0,0.0,0.0,0.0,0.0,0.0,0.0,-0.1709,-0.1776,-0.1751,0.0,0.0,0.0,0.0,0.0,0.0,0.0,0.0,0.0,0.0,0.0,0.0,0.0,0.0,0.0,0.0,0.0,0.0,0.0,0.0,0.0,0.0,0.0,0.0,0.0,0.0,0.0,0.0,0.0,0.0,0.0,0.0,0.0,0.0,0.0,0.0,0.0,0.0,0.0,0.0,0.0,0.0,0.0,0.0,0.0,0.0,0.0,0.0,0.0,0.0,0.0,0.0,0.0,0.0,0.0,0.0,0.0,0.0,0.0,0.0,0.0,0.0,0.0,0.0,0.0,0.0,0.0,0.0,0.0,0.0,0.0,0.0,0.0,0.0,0.0,0.0,0.0,0.0,0.0,0.0,0.0,0.0,0.0,0.0,0.0,0.0,0.0,0.0,0.0,0.0,0.0,0.0,0.0,0.0,0.0,0.0,0.0,0.0,0.0,0.0,0.0,0.0,0.0,0.0,0.0,0.0,0.0,0.0,0.0,0.0,-0.1644,0.0,-0.1542,-0.1577,-0.1622,-0.1522,0.0,0.0,0.0,0.0,0.0,0.0,0.0,0.0,0.0,0.0,0.0,0.0,0.0,0.0,0.0,0.0,0.0,0.0,0.0,0.0,0.0,0.0,0.0,0.0,0.0,0.0,0.0,0.0,0.0,0.0,0.0,0.0,0.0,0.0,0.0,0.0,0.0,0.0,0.0,0.0,0.0,0.0,0.0,0.0,0.0,0.0,0.0,0.0,0.0,0.0,0.0,0.0,0.0,0.0,0.0,0.0,0.0,0.0,0.0,0.0,0.0,0.0,0.0,0.0,0.0,0.0,0.0,0.0,0.0,0.0,0.0,0.0,0.0,0.0,0.0,0.0,0.0,0.0,0.0,0.0,0.0,0.0,0.0,0.0,0.0,0.0,0.0,0.0,0.0,0.0,0.0,0.0,0.0,0.0,0.0,0.0,0.0,0.0,0.0,0.0,0.0,0.0,0.0,0.0,0.0,0.0,0.0,0.0,0.0,-0.155,-0.1451,-0.1316,-0.1447,-0.1436,0.0,0.0,0.0,0.0,0.0,0.0,0.0,0.0,0.0,0.0,0.0,0.0,0.0,0.0,0.0,0.0,0.0,0.0,0.0,0.0,0.0,0.0,0.0,0.0,0.0,0.0,0.0,0.0,0.0,0.0,0.0,0.0,0.0,0.0,0.0,0.0,0.0,0.0,0.0,0.0,0.0,0.0,0.0,0.0,0.0,0.0,0.0,0.0,0.0,0.0,0.0,0.0,0.0,0.0,0.0,0.0,0.0,0.0,0.0,0.0,0.0,0.0,0.0,0.0,0.0,0.0,0.0,0.0,0.0,0.0,0.0,0.0,0.0,0.0,0.0,0.0,0.0,0.0,0.0,0.0,0.0,0.0,0.0,0.0,0.0,0.0,0.0,0.0,0.0,0.0,0.0,0.0,0.0,0.0,0.0,0.0,0.0,0.0,0.0,0.0,0.0,0.0,0.0,0.0,0.0,0.0,0.0,0.0,0.0,-0.1591,-0.1535,-0.1451,0.0,-0.1445,-0.1384,0.0,0.0,0.0,0.0,0.0,0.0,0.0,0.0,0.0,0.0,0.0,0.0,0.0,0.0,0.0,0.0,0.0,0.0,0.0,0.0,0.0,0.0,0.0,0.0,0.0,0.0,0.0,0.0,0.0,0.0,0.0,0.0,0.0,0.0,0.0,0.0,0.0,0.0,0.0,0.0,0.0,0.0,0.0,0.0,0.0,0.0,0.0,0.0,0.0,0.0,0.0,0.0,0.0,0.0,0.0,0.0,0.0,0.0,0.0,0.0,0.0,0.0,0.0,0.0,0.0,0.0,0.0,0.0,0.0,0.0,0.0,0.0,0.0,0.0,0.0,0.0,0.0,0.0,0.0,0.0,0.0,0.0,0.0,0.0,0.0,0.0,0.0,0.0,0.0,0.0,0.0,0.0,0.0,0.0,0.0,0.0,0.0,0.0,0.0,0.0,0.0,0.0,0.0,0.0,0.0,0.0,0.0,0.0,0.0,-0.1641,0.0,-0.1546,0.0,-0.1441,-0.134,0.0,0.0,0.0,0.0,0.0,0.0,0.0,0.0,0.0,0.0,0.0,0.0,0.0,0.0,0.0,0.0,0.0,0.0,0.0,0.0,0.0,0.0,0.0,0.0,0.0,0.0,0.0,0.0,0.0,0.0,0.0,0.0,0.0,0.0,0.0,0.0,0.0,0.0,0.0,0.0,0.0,0.0,0.0,0.0,0.0,0.0,0.0,0.0,0.0,0.0,0.0,0.0,0.0,0.0,0.0,0.0,0.0,0.0,0.0,0.0,0.0,0.0,0.0,0.0,0.0,0.0,0.0,0.0,0.0,0.0,0.0,0.0,0.0,0.0,0.0,0.0,0.0,0.0,0.0,0.0,0.0,0.0,0.0,0.0,0.0,0.0,0.0,0.0,0.0,0.0,0.0,0.0,0.0,0.0,0.0,0.0,0.0,0.0,0.0,0.0,0.0,0.0,0.0,0.0,0.0,0.0,0.0,0.0,-0.1698,-0.1722,-0.1806,-0.1684,-0.1352,-0.1436,-0.1343,0.0,0.0,0.0,0.0,0.0,0.0,0.0,0.0,0.0,0.0,0.0,0.0,0.0,0.0,0.0,0.0,0.0,0.0,0.0,0.0,0.0,0.0,0.0,0.0,0.0,0.0,0.0,0.0,0.0,0.0,0.0,0.0,0.0,0.0,0.0,0.0,0.0,0.0,0.0,0.0,0.0,0.0,0.0,0.0,0.0,0.0,0.0,0.0,0.0,0.0,0.0,0.0,0.0,0.0,0.0,0.0,0.0,0.0,0.0,0.0,0.0,0.0,0.0,0.0,0.0,0.0,0.0,0.0,0.0,0.0,0.0,0.0,0.0,0.0,0.0,0.0,0.0,0.0,0.0,0.0,0.0,0.0,0.0,0.0,0.0,0.0,0.0,0.0,0.0,0.0,0.0,0.0,0.0,0.0,0.0,0.0,0.0,0.0,0.0,0.0,0.0,0.0,0.0,0.0,0.0,0.0,0.0,0.0,0.0,-0.219,-0.2166,-0.2038,-0.1857,-0.1819,-0.1603,0.0,0.0,0.0,0.0,0.0,0.0,0.0,0.0,0.0,0.0,0.0,0.0,0.0,0.0,0.0,0.0,0.0,0.0,0.0,0.0,0.0,0.0,0.0,0.0,0.0,0.0,0.0,0.0,0.0,0.0,0.0,0.0,0.0,0.0,0.0,0.0,0.0,0.0,0.0,0.0,0.0,0.0,0.0,0.0,0.0,0.0,0.0,0.0,0.0,0.0,0.0,0.0,0.0,0.0,0.0,0.0,0.0,0.0,0.0,0.0,0.0,0.0,0.0,0.0,0.0,0.0,0.0,0.0,0.0,0.0,0.0,0.0,0.0,0.0,0.0,0.0,0.0,0.0,0.0,0.0,0.0,0.0,0.0,0.0,0.0,0.0,0.0,0.0,0.0,0.0,0.0,0.0,0.0,0.0,0.0,0.0,0.0,0.0,0.0,0.0,0.0,0.0,0.0,0.0,0.0,0.0,0.0,0.0,0.0,-0.3188,-0.2931,-0.2724,-0.2573,-0.239,-0.2038,-0.146,0.0,0.0,0.0,0.0,0.0,0.0,0.0,0.0,0.0,0.0,0.0,0.0,0.0,0.0,0.0,0.0,0.0,0.0,0.0,0.0,0.0,0.0,0.0,0.0,0.0,0.0,0.0,0.0,0.0,0.0,0.0,0.0,0.0,0.0,0.0,0.0,0.0,0.0,0.0,0.0,0.0,0.0,0.0,0.0,0.0,0.0,0.0,0.0,0.0,0.0,0.0,0.0,0.0,0.0,0.0,0.0,0.0,0.0,0.0,0.0,0.0,0.0,0.0,0.0,0.0,0.0,0.0,0.0,0.0,0.0,0.0,0.0,0.0,0.0,0.0,0.0,0.0,0.0,0.0,0.0,0.0,0.0,0.0,0.0,0.0,0.0,0.0,0.0,0.0,0.0,0.0,0.0,0.0,0.0,0.0,0.0,0.0,0.0,0.0,0.0,0.0,0.0,0.0,0.0,0.0,0.0,0.0,0.0,-0.457,-0.4091,-0.373,-0.348,-0.3162,-0.2627,0.0,0.0,0.0,0.0,0.0,0.0,0.0,0.0,0.0,0.0,0.0,0.0,0.0,0.0,0.0,0.0,0.0,0.0,0.0,0.0,0.0,0.0,0.0,0.0,0.0,0.0,0.0,0.0,0.0,0.0,0.0,0.0,0.0,0.0,0.0,0.0,0.0,0.0,0.0,0.0,0.0,0.0,0.0,0.0,0.0,0.0,0.0,0.0,0.0,0.0,0.0,0.0,0.0,0.0,0.0,0.0,0.0,0.0,0.0,0.0,0.0,0.0,0.0,0.0,0.0,0.0,0.0,0.0,0.0,0.0,0.0,0.0,0.0,0.0,0.0,0.0,0.0,0.0,0.0,0.0,0.0,0.0,0.0,0.0,0.0,0.0,0.0,0.0,0.0,0.0,0.0,0.0,0.0,0.0,0.0,0.0,0.0,0.0,0.0,0.0,0.0,0.0,0.0,0.0,0.0,0.0,0.0,0.0,0.0,-0.5178,-0.529,-0.5044,-0.4376,-0.3751,-0.3081,0.0,0.0,0.0,0.0,0.0,0.0,0.0,0.0,0.0,0.0,0.0,0.0,0.0,0.0,0.0,0.0,0.0,0.0,0.0,0.0,0.0,0.0,0.0,0.0,0.0,0.0,0.0,0.0,0.0,0.0,0.0,0.0,0.0,0.0,0.0,0.0,0.0,0.0,0.0,0.0,0.0,0.0,0.0,0.0,0.0,0.0,0.0,0.0,0.0,0.0,0.0,0.0,0.0,0.0,0.0,0.0,0.0,0.0,0.0,0.0,0.0,0.0,0.0,0.0,0.0,0.0,0.0,0.0,0.0,0.0,0.0,0.0,0.0,0.0,0.0,0.0,0.0,0.0,0.0,0.0,0.0,0.0,0.0,0.0,0.0,0.0,0.0,0.0,0.0,0.0,0.0,0.0,0.0,0.0,0.0,0.0,0.0,0.0,0.0,0.0,0.0,0.0,0.0,0.0,0.0,0.0,0.0,0.0,-0.5054,-0.5852,-0.5912,-0.5765,-0.523,-0.4482,-0.3635,0.0,0.0,0.0,0.0,0.0,0.0,0.0,0.0,0.0,0.0,0.0,0.0,0.0,0.0,0.0,0.0,0.0,0.0,0.0,0.0,0.0,0.0,0.0,0.0,0.0,0.0,0.0,0.0,0.0,0.0,0.0,0.0,0.0,0.0,0.0,0.0,0.0,0.0,0.0,0.0,0.0,0.0,0.0,0.0,0.0,0.0,0.0,0.0,0.0,0.0,0.0,0.0,0.0,0.0,0.0,0.0,0.0,0.0,0.0,0.0,0.0,0.0,0.0,0.0,0.0,0.0,0.0,0.0,0.0,0.0,0.0,0.0,0.0,0.0,0.0,0.0,0.0,0.0,0.0,0.0,0.0,0.0,0.0,0.0,0.0,0.0,0.0,0.0,0.0,0.0,0.0,0.0,0.0,0.0,0.0,0.0,0.0,0.0,0.0,0.0,0.0,0.0,0.0,0.0,0.0,0.0,0.0,0.0,-0.5583,-0.6271,-0.6017,-0.5965,-0.5939,-0.507,-0.4118,0.0,0.0,0.0,0.0,0.0,0.0,0.0,0.0,0.0,0.0,0.0,0.0,0.0,0.0,0.0,0.0,0.0,0.0,0.0,0.0,0.0,0.0,0.0,0.0,0.0,0.0,0.0,0.0,0.0,0.0,0.0,0.0,0.0,0.0,0.0,0.0,0.0,0.0,0.0,0.0,0.0,0.0,0.0,0.0,0.0,0.0,0.0,0.0,0.0,0.0,0.0,0.0,0.0,0.0,0.0,0.0,0.0,0.0,0.0,0.0,0.0,0.0,0.0,0.0,0.0,0.0,0.0,0.0,0.0,0.0,0.0,0.0,0.0,0.0,0.0,0.0,0.0,0.0,0.0,0.0,0.0,0.0,0.0,0.0,0.0,0.0,0.0,0.0,0.0,0.0,0.0,0.0,0.0,0.0,0.0,0.0,0.0,0.0,0.0,0.0,0.0,0.0,0.0,0.0,0.0,0.0,0.0,0.0,-0.5871,-0.6391,-0.6125,-0.6041,-0.5955,-0.4745,-0.3682,0.0,0.0,0.0,0.0,0.0,0.0,0.0,0.0,0.0,0.0,0.0,0.0,0.0,0.0,0.0,0.0,0.0,0.0,0.0,0.0,0.0,0.0,0.0,0.0,0.0,0.0,0.0,0.0,0.0,0.0,0.0,0.0,0.0,0.0,0.0,0.0,0.0,0.0,0.0,0.0,0.0,0.0,0.0,0.0,0.0,0.0,0.0,0.0,-0.5125,0.0,0.0,0.0,0.0,0.0,0.0,0.0,0.0,0.0,0.0,0.0,0.0,0.0,0.0,0.0,0.0,0.0,0.0,0.0,0.0,0.0,0.0,0.0,0.0,0.0,0.0,0.0,0.0,0.0,0.0,0.0,0.0,0.0,0.0,0.0,0.0,0.0,0.0,0.0,0.0,0.0,0.0,0.0,0.0,0.0,0.0,0.0,0.0,0.0,0.0,0.0,0.0,0.0,0.0,0.0,0.0,0.0,0.0,0.0,-0.602,-0.6505,-0.5877,-0.5536,-0.5622,-0.4221,-0.3411,0.0,0.0,0.0,0.0,0.0,0.0,0.0,0.0,0.0,0.0,0.0,0.0,0.0,0.0,0.0,0.0,0.0,0.0,0.0,0.0,0.0,0.0,0.0,0.0,0.0,0.0,0.0,0.0,0.0,0.0,0.0,0.0,0.0,0.0,0.0,0.0,0.0,0.0,0.0,0.0,0.0,0.0,0.0,0.0,0.0,0.0,0.0,0.0,0.0,0.0,0.0,0.0,0.0,0.0,0.0,0.0,0.0,0.0,0.0,0.0,0.0,0.0,0.0,0.0,0.0,0.0,0.0,0.0,0.0,0.0,0.0,0.0,0.0,0.0,0.0,0.0,0.0,0.0,0.0,0.0,0.0,0.0,0.0,0.0,0.0,0.0,0.0,0.0,0.0,0.0,0.0,0.0,0.0,0.0,0.0,0.0,0.0,0.0,0.0,0.0,0.0,0.0,0.0,0.0,0.0,0.0,0.0,-0.5826,-0.6296,-0.6686,-0.5604,-0.5126,-0.5185,-0.3961,-0.3275,-0.3357,0.0,0.0,0.0,0.0,0.0,0.0,0.0,0.0,0.0,0.0,0.0,0.0,0.0,0.0,0.0,0.0,0.0,0.0,0.0,0.0,0.0,0.0,0.0,0.0,0.0,0.0,0.0,0.0,0.0,0.0,0.0,0.0,0.0,0.0,0.0,0.0,0.0,0.0,-0.2704,-0.3743,0.0,0.0,0.0,0.0,0.0,0.0,0.0,0.0,-0.7057,0.0,0.0,0.0,0.0,0.0,0.0,0.0,0.0,0.0,0.0,0.0,0.0,0.0,0.0,0.0,0.0,0.0,0.0,0.0,0.0,0.0,0.0,0.0,0.0,0.0,0.0,0.0,0.0,0.0,0.0,0.0,0.0,0.0,0.0,0.0,0.0,0.0,0.0,0.0,0.0,0.0,0.0,0.0,0.0,0.0,0.0,0.0,0.0,0.0,0.0,0.0,0.0,0.0,0.0,0.0,0.0,-0.6662,-0.6477,-0.6756,-0.7521,-0.6401,-0.5474,-0.499,-0.4424,-0.3755,-0.3096,0.0,0.0,0.0,0.0,0.0,0.0,0.0,0.0,0.0,0.0,0.0,0.0,0.0,0.0,0.0,0.0,0.0,0.0,0.0,0.0,0.0,0.0,0.0,0.0,0.0,0.0,0.0,0.0,0.0,0.0,0.0,0.0,0.0,0.0,0.0,0.0,0.0,0.0,0.0,-0.448,-0.5717,0.0,0.0,0.0,0.0,0.0,0.0,0.0,0.0,-0.8065,0.0,0.0,0.0,0.0,0.0,0.0,0.0,0.0,0.0,0.0,0.0,0.0,0.0,0.0,0.0,0.0,0.0,0.0,0.0,0.0,0.0,0.0,0.0,0.0,0.0,0.0,0.0,0.0,0.0,0.0,0.0,0.0,0.0,0.0,0.0,0.0,0.0,0.0,0.0,0.0,0.0,0.0,0.0,0.0,0.0,0.0,0.0,0.0,0.0,0.0,0.0,0.0,0.0,0.0,0.0,-0.7204,-0.7442,-0.7875,-0.8543,-0.7567,-0.6738,-0.617,-0.5266,-0.4349,0.0,0.0,0.0,0.0,0.0,0.0,0.0,0.0,0.0,0.0,0.0,0.0,0.0,0.0,0.0,0.0,0.0,0.0,0.0,0.0,0.0,0.0,0.0,0.0,0.0,0.0,0.0,0.0,0.0,0.0,0.0,0.0,0.0,0.0,0.0,0.0,0.0,0.0,0.0,0.0,-0.547,-0.6896,-0.8562,0.0,0.0,0.0,0.0,0.0,0.0,-0.9285,-0.8969,0.0,0.0,0.0,0.0,0.0,0.0,0.0,0.0,0.0,0.0,0.0,0.0,0.0,0.0,0.0,0.0,0.0,0.0,0.0,0.0,0.0,0.0,0.0,0.0,0.0,0.0,0.0,0.0,0.0,0.0,0.0,0.0,0.0,0.0,0.0,0.0,0.0,0.0,0.0,0.0,0.0,0.0,0.0,0.0,0.0,0.0,0.0,0.0,0.0,0.0,0.0,0.0,0.0,0.0,0.0,-0.7906,-0.8364,-0.8847,-0.9312,-0.8567,-0.7847,-0.7357,-0.617,-0.5082,0.0,0.0,0.0,0.0,0.0,0.0,0.0,0.0,0.0,0.0,0.0,0.0,0.0,0.0,0.0,0.0,0.0,0.0,0.0,0.0,0.0,0.0,0.0,0.0,0.0,0.0,0.0,0.0,0.0,0.0,0.0,0.0,0.0,0.0,0.0,0.0,0.0,0.0,0.0,0.0,0.0,-0.8128,-1.0368,-0.9711,0.0,0.0,0.0,0.0,-1.0139,-1.0028,0.0,0.0,0.0,0.0,0.0,0.0,0.0,0.0,0.0,0.0,0.0,0.0,0.0,0.0,0.0,0.0,0.0,0.0,0.0,0.0,0.0,0.0,0.0,0.0,0.0,0.0,0.0,0.0,0.0,0.0,0.0,0.0,0.0,0.0,0.0,0.0,0.0,0.0,0.0,0.0,0.0,0.0,0.0,0.0,0.0,0.0,0.0,0.0,0.0,0.0,0.0,0.0,0.0,0.0,0.0,0.0,-0.881,-0.8807,-0.9079,-0.9762,-0.8822,-0.8109,-0.7539,-0.6711,-0.5973,0.0,0.0,0.0,0.0,0.0,0.0,0.0,0.0,0.0,0.0,0.0,0.0,0.0,0.0,0.0,0.0,0.0,0.0,0.0,0.0,0.0,0.0,0.0,0.0,0.0,0.0,0.0,0.0,0.0,0.0,0.0,0.0,0.0,0.0,0.0,0.0,0.0,0.0,0.0,0.0,0.0,-0.9235,-1.0894,-1.0695,-1.0318,0.0,0.0,0.0,-1.0787,-1.0783,0.0,0.0,0.0,0.0,0.0,0.0,0.0,0.0,0.0,0.0,0.0,0.0,0.0,0.0,0.0,0.0,0.0,0.0,0.0,0.0,0.0,0.0,0.0,0.0,0.0,0.0,0.0,0.0,0.0,0.0,0.0,0.0,0.0,0.0,0.0,0.0,0.0,0.0,0.0,0.0,0.0,0.0,0.0,0.0,0.0,0.0,0.0,0.0,0.0,0.0,0.0,0.0,0.0,0.0,0.0,-0.7952,-0.915,-0.9447,-0.9984,-1.0715,-0.9967,-0.9345,-0.8781,-0.7761,-0.674,0.0,0.0,0.0,0.0,0.0,0.0,0.0,0.0,0.0,0.0,0.0,0.0,0.0,0.0,0.0,0.0,0.0,0.0,0.0,0.0,0.0,0.0,0.0,0.0,0.0,0.0,0.0,0.0,0.0,0.0,0.0,0.0,0.0,0.0,0.0,0.0,0.0,0.0,0.0,0.0,0.0,0.0,-1.1609,-1.1485,0.0,0.0,0.0,-1.1184,-1.1387,0.0,0.0,0.0,0.0,0.0,0.0,0.0,0.0,0.0,0.0,0.0,0.0,0.0,0.0,0.0,0.0,0.0,0.0,0.0,0.0,0.0,0.0,0.0,0.0,0.0,0.0,0.0,0.0,0.0,0.0,0.0,0.0,0.0,0.0,0.0,0.0,0.0,0.0,0.0,0.0,0.0,0.0,0.0,0.0,0.0,0.0,0.0,0.0,0.0,0.0,0.0,0.0,0.0,0.0,0.0,0.0,0.0,-0.9316,-0.9821,-1.05,-1.1151,-1.061,-1.0192,-0.9908,-0.8547,0.0,0.0,0.0,0.0,0.0,0.0,0.0,0.0,0.0,0.0,0.0,0.0,0.0,0.0,0.0,0.0,0.0,0.0,0.0,0.0,0.0,0.0,0.0,0.0,0.0,0.0,0.0,-0.2731,0.0,0.0,0.0,0.0,0.0,0.0,0.0,0.0,0.0,0.0,0.0,0.0,0.0,0.0,-1.0265,-1.2309,-1.2171,-1.1865,0.0,0.0,-1.1784,-1.1879,-1.168,-1.1538,0.0,0.0,0.0,0.0,0.0,0.0,0.0,0.0,0.0,0.0,0.0,0.0,0.0,0.0,0.0,0.0,0.0,0.0,0.0,0.0,0.0,0.0,0.0,0.0,0.0,0.0,0.0,0.0,0.0,0.0,0.0,0.0,0.0,0.0,0.0,0.0,0.0,0.0,0.0,0.0,0.0,0.0,0.0,0.0,0.0,0.0,0.0,0.0,0.0,0.0,0.0,0.0,0.0,0.0,0.0,-0.9269,-0.9624,-1.011,-1.0634,-1.0213,-1.0096,-1.0128,-0.8836,-0.7872,0.0,0.0,0.0,0.0,0.0,0.0,0.0,0.0,0.0,0.0,0.0,0.0,0.0,0.0,0.0,0.0,0.0,0.0,0.0,0.0,0.0,0.0,0.0,0.0,0.0,0.0,0.0,0.0,0.0,0.0,0.0,0.0,0.0,0.0,0.0,0.0,0.0,0.0,0.0,0.0,0.0,-1.1293,-1.2812,-1.2866,-1.2611,0.0,0.0,-1.2318,-1.2143,-1.2252,-1.2082,-1.1387,0.0,0.0,0.0,0.0,0.0,0.0,0.0,0.0,0.0,0.0,0.0,0.0,0.0,0.0,0.0,0.0,0.0,0.0,0.0,0.0,0.0,0.0,0.0,0.0,0.0,0.0,0.0,0.0,0.0,0.0,0.0,0.0,0.0,0.0,0.0,0.0,0.0,0.0,0.0,0.0,0.0,0.0,0.0,0.0,0.0,0.0,0.0,0.0,0.0,0.0,0.0,0.0,0.0,-0.8354,-0.9301,-0.9453,-0.9865,-1.037,-0.9954,-0.9846,-0.9985,-0.8977,-0.8201,0.0,0.0,0.0,0.0,0.0,0.0,0.0,0.0,0.0,0.0,0.0,0.0,0.0,0.0,0.0,0.0,0.0,0.0,0.0,0.0,0.0,0.0,0.0,0.0,0.0,0.0,0.0,0.0,-0.5973,-0.6605,-0.6935,0.0,0.0,0.0,0.0,0.0,0.0,0.0,0.0,0.0,0.0,-1.1647,-1.3229,-1.3189,0.0,0.0,-1.2828,-1.2758,-1.2554,-1.2479,-1.2316,-1.1942,-1.1255,0.0,0.0,0.0,0.0,0.0,0.0,0.0,0.0,0.0,0.0,0.0,0.0,0.0,0.0,0.0,0.0,0.0,0.0,0.0,0.0,0.0,0.0,0.0,0.0,0.0,0.0,0.0,0.0,0.0,0.0,0.0,0.0,0.0,0.0,0.0,0.0,0.0,0.0,0.0,0.0,0.0,0.0,0.0,0.0,0.0,0.0,0.0,0.0,0.0,0.0,0.0,0.0,-0.8512,-0.9307,-0.9353,-0.9698,-1.0188,-0.9817,-0.9709,-0.986,-0.9159,-0.8466,0.0,0.0,0.0,0.0,0.0,0.0,0.0,0.0,0.0,0.0,0.0,0.0,0.0,0.0,0.0,0.0,0.0,0.0,0.0,0.0,0.0,0.0,0.0,0.0,0.0,0.0,0.0,0.0,-0.6854,-0.7423,-0.7559,0.0,0.0,0.0,0.0,0.0,0.0,0.0,0.0,0.0,0.0,-1.2148,-1.3448,-1.349,-1.3254,-1.3249,-1.3202,-1.3112,-1.2975,-1.272,-1.2483,-1.2427,0.0,0.0,0.0,0.0,0.0,0.0,0.0,0.0,0.0,0.0,0.0,0.0,0.0,0.0,0.0,0.0,0.0,0.0,0.0,0.0,0.0,0.0,0.0,0.0,0.0,0.0,0.0,0.0,0.0,0.0,0.0,0.0,0.0,0.0,0.0,0.0,0.0,0.0,0.0,0.0,0.0,0.0,0.0,0.0,0.0,0.0,0.0,0.0,0.0,0.0,0.0,0.0,0.0,0.0,-0.9501,-0.9452,-0.9624,-0.9969,-0.9717,-0.9709,-0.986,-0.9368,-0.8826,-0.8372,0.0,0.0,0.0,0.0,0.0,0.0,0.0,0.0,0.0,0.0,0.0,0.0,0.0,0.0,0.0,0.0,0.0,0.0,0.0,0.0,0.0,0.0,0.0,0.0,0.0,0.0,-0.6652,-0.7648,-0.826,0.0,0.0,0.0,0.0,0.0,0.0,0.0,0.0,0.0,0.0,-1.1309,-1.3007,-1.3562,-1.367,-1.366,-1.3665,-1.3504,-1.3381,-1.3367,-1.3032,-1.2687,0.0,0.0,0.0,0.0,0.0,0.0,0.0,0.0,0.0,0.0,0.0,0.0,0.0,0.0,0.0,0.0,0.0,0.0,0.0,0.0,0.0,0.0,0.0,0.0,0.0,0.0,0.0,-0.7193,-0.8436,0.0,0.0,0.0,0.0,0.0,0.0,0.0,0.0,0.0,0.0,0.0,-1.3155,-1.2984,0.0,0.0,0.0,0.0,0.0,0.0,0.0,0.0,0.0,0.0,0.0,0.0,-1.0098,-1.0955,-1.073,-1.0721,-1.0983,-1.023,-0.977,-0.9709,-0.9425,-0.9263,-0.924,0.0,0.0,0.0,0.0,0.0,0.0,0.0,0.0,0.0,0.0,0.0,0.0,0.0,0.0,0.0,0.0,0.0,0.0,0.0,0.0,0.0,0.0,0.0,0.0,0.0,-0.738,0.0,0.0,0.0,0.0,0.0,0.0,0.0,0.0,0.0,0.0,0.0,-1.0988,-1.0992,-1.2117,-1.3231,-1.3656,-1.3646,-1.3688,0.0,0.0,0.0,0.0,0.0,0.0,0.0,0.0,0.0,0.0,0.0,0.0,0.0,0.0,-1.0924,-1.0371,-1.0433,-1.057,-1.057,0.0,0.0,0.0,0.0,0.0,0.0,0.0,0.0,0.0,0.0,0.0,0.0,0.0,0.0,0.0,0.0,-1.1027,0.0,0.0,0.0,0.0,0.0,0.0,0.0,0.0,-1.4566,-1.4987,-1.524,-1.4961,-1.4825,0.0,-1.4044,-1.2807,0.0,0.0,0.0,0.0,0.0,0.0,0.0,0.0,-1.1375,-1.214,-1.2114,-1.2119,-1.2089,-1.1391,-1.0893,-1.0699,-1.05,-1.0487,-1.0579,-1.0794,-1.0526,0.0,0.0,0.0,0.0,0.0,0.0,0.0,0.0,0.0,0.0,0.0,0.0,0.0,0.0,0.0,0.0,0.0,0.0,0.0,0.0,0.0,0.0,0.0,-0.8873,0.0,0.0,0.0,0.0,0.0,0.0,0.0,0.0,0.0,-1.0696,-1.1387,-1.1954,-1.1961,-1.2744,-1.3381,-1.3655,0.0,0.0,0.0,0.0,0.0,0.0,0.0,-1.3424,-1.298,-1.3072,-1.3394,-1.374,-1.3658,-1.3337,-1.2612,0.0,0.0,-1.151,-1.1491,-1.1624,-1.1628,-1.1193,-1.0937,-1.125,-1.2282,-1.3257,0.0,0.0,0.0,0.0,0.0,0.0,0.0,0.0,-1.1658,-1.208,0.0,-1.2939,0.0,0.0,0.0,0.0,0.0,0.0,0.0,0.0,-1.683,-1.7344,-1.6878,-1.6583,-1.6452,-1.64,-1.5415,-1.4913,-1.4772,-1.2514,0.0,0.0,0.0,0.0,0.0,0.0,-1.2485,-1.3014,-1.3397,-1.3538,-1.3325,-1.3219,-1.2996,-1.2657,-1.2606,-1.2461,-1.221,-1.1899,-1.1531,-1.1319,-1.0164,0.0,0.0,0.0,0.0,0.0,0.0,0.0,0.0,0.0,0.0,0.0,0.0,0.0,0.0,0.0,0.0,0.0,0.0,0.0,0.0,-0.9787,0.0,0.0,0.0,0.0,0.0,0.0,0.0,0.0,0.0,0.0,-1.1415,-1.2259,-1.274,-1.2456,0.0,0.0,0.0,0.0,-1.3703,-1.3717,-1.3712,-1.3783,-1.3981,-1.3849,-1.3653,-1.3718,0.0,0.0,-1.401,-1.4222,-1.4191,-1.3827,-1.383,-1.3636,-1.2441,-1.2398,-1.2517,-1.2512,-1.2416,-1.2459,-1.2525,-1.3428,-1.4966,-1.3404,0.0,0.0,0.0,0.0,-1.0936,-1.217,-1.4232,-1.4308,-1.4747,-1.557,-1.5667,0.0,0.0,0.0,0.0,0.0,0.0,-1.6319,-1.699,-1.7649,-1.7989,-1.7994,-1.7915,-1.7868,-1.7848,-1.7298,-1.7081,-1.7008,-1.5563,-1.4197,-1.289,0.0,0.0,0.0,0.0,-1.4403,-1.5109,-1.494,-1.49,-1.4944,-1.411,-1.3502,-1.3089,-1.3534,-1.3661,-1.3397,-1.3913,-1.3986,-1.3385,-1.2381,0.0,0.0,0.0,0.0,0.0,0.0,0.0,0.0,0.0,0.0,0.0,0.0,0.0,0.0,0.0,0.0,0.0,0.0,0.0,-0.9928,-1.0701,-1.1432,0.0,0.0,0.0,0.0,0.0,0.0,0.0,0.0,0.0,-1.3386,-1.3463,-1.3505,0.0,0.0,-1.375,-1.4032,-1.4046,-1.3967,-1.4114,0.0,0.0,0.0,-1.4175,-1.4151,-1.4084,-1.4361,-1.462,-1.4227,-1.4437,-1.4656,-1.4261,-1.4185,-1.4095,-1.3802,-1.3731,-1.3764,-1.3773,-1.3518,-1.3282,-1.3336,-1.4125,-1.5044,-1.7436,-1.5171,-1.3607,-1.3391,-1.4094,-1.3822,-1.4771,-1.6626,-1.651,-1.6769,-1.7305,-1.7312,-1.6645,-1.5582,-1.5484,0.0,0.0,0.0,-1.7331,-1.8176,-1.8287,-1.8551,-1.8818,-1.8718,-1.8657,-1.8651,-1.8357,-1.8223,-1.821,-1.7382,-1.6421,-1.5325,0.0,0.0,-1.4447,-1.5102,-1.5745,-1.6253,-1.6329,-1.6314,-1.6207,-1.5476,-1.4802,-1.4499,-1.482,-1.4898,-1.4615,-1.508,-1.5234,-1.4952,-1.3763,-1.277,0.0,0.0,0.0,0.0,0.0,0.0,0.0,0.0,0.0,0.0,0.0,-0.8736,0.0,0.0,0.0,0.0,-1.0725,-1.1293,-1.1906,-1.2557,0.0,0.0,0.0,0.0,0.0,0.0,0.0,-1.6013,-1.5946,-1.5766,-1.5221,-1.4733,-1.4231,-1.3784,-1.3803,-1.3986,-1.4247,0.0,-1.4175,-1.4298,-1.4312,-1.434,-1.4426,-1.444,-1.4468,-1.4548,-1.4699,-1.4827,-1.4563,-1.4699,-1.4949,-1.5311,-1.5306,-1.5559,-1.6055,-1.6187,-1.5861,-1.5202,-1.4471,-1.3945,-1.389,-1.5237,-1.6588,-2.0748,-2.0481,-1.6884,-1.6124,-1.7408,-1.6736,-1.7274,-1.8557,-1.8277,-1.8136,-1.8123,-1.8116,-1.7842,-1.7244,-1.7025,0.0,0.0,-1.779,-1.8196,-1.8958,-1.8958,-1.9105,-1.9352,-1.9085,-1.8958,-1.8951,-1.8691,-1.8557,-1.8551,-1.8257,-1.8116,-1.807,-1.6262,-1.551,-1.5789,-1.6221,-1.6583,-1.6885,-1.7344,-1.7455,-1.7291,-1.6894,-1.6607,-1.6319,-1.6239,-1.6059,-1.5765,-1.5451,-1.5474,-1.5875,-1.4435,-1.3599,-1.3726,0.0,0.0,0.0,0.0,0.0,0.0,0.0,0.0,0.0,0.0,0.0,0.0,0.0,0.0,0.0,-1.336,0.0,-1.42,-1.4951,0.0,0.0,0.0,-1.7099,-1.8206,-1.7934,-1.7955,-1.8798,0.0,0.0,0.0,0.0,-1.5022,-1.3987,-1.4085,-1.4187,-1.4331,-1.4336,-1.434,-1.4378,-1.4369,-1.4435,-1.4624,-1.4657,-1.4709,-1.486,-1.4936,-1.4912,-1.4907,-1.5308,-1.5834,-1.6695,-1.712,-1.7512,-1.8804,-1.8944,-1.8818,-1.7252,-1.5737,-1.477,-1.4987,-1.7348,-1.9474,-2.1343,-2.1276,-2.0385,-1.9933,-1.98,-1.9236,-1.917,-1.9459,-1.9178,-1.8925,-1.8718,-1.8718,-1.8551,-1.8174,-1.8167,-1.8326,-1.8599,-1.8599,-1.8911,-1.9252,-1.9265,-1.9299,-1.9366,-1.9292,-1.9265,-1.9259,-1.9192,-1.9158,-1.9145,-1.8858,-1.8718,-1.8677,-1.807,-1.7483,-1.7171,-1.7018,-1.7194,-1.737,-1.7549,-1.7549,-1.7475,-1.7194,-1.6907,-1.6607,-1.5952,-1.5464,-1.517,-1.4676,-1.4568,-1.4963,-1.4184,-1.3754,-1.3686,-1.2702,0.0,0.0,0.0,0.0,0.0,0.0,0.0,0.0,0.0,-1.2697,-1.2693,0.0,-1.4982,0.0,-1.4648,-1.5177,-1.5681,-1.6686,0.0,0.0,-1.8696,-1.9164,-1.9458,-1.9205,-1.9296,-2.0223,-1.9791,-1.9162,-1.8122,-1.6744,-1.5764,-1.5044,-1.4842,-1.4765,-1.4793,-1.4563,-1.4615,-1.4742,-1.478,-1.4804,-1.4855,-1.486,-1.4884,-1.4922,-1.4936,-1.4936,-1.4936,-1.6671,-1.7849,-1.7271,-1.8041,-1.893,-1.9338,-2.0409,-2.1156,-2.0618,-1.9206,-1.7938,-1.791,-2.0528,-2.2811,-2.1923,-2.241,-2.2285,-2.2482,-2.2747,-2.0917,-2.0468,-2.0669,-1.9915,-1.9734,-1.9897,-1.9904,-1.9587,-1.8998,-1.9429,-1.9525,-1.9118,-1.9118,-1.9212,-1.9366,-1.9366,-1.9366,-1.9366,-1.9366,-1.9366,-1.9366,-1.9366,-1.9366,-1.9359,-1.9199,-1.9125,-1.9118,-1.8824,-1.8517,-1.8183,-1.7889,-1.7762,-1.7789,-1.7649,-1.7589,-1.7582,-1.7428,-1.7244,-1.692,-1.6531,-1.6088,-1.5624,-1.5369,-1.538,-1.5569,-1.4972,-1.4714,-1.4776,-1.4065,-1.358,0.0,0.0,0.0,0.0,0.0,0.0,0.0,0.0,0.0,0.0,0.0,-1.6834,0.0,-1.6559,-1.6908,-1.7267,-1.8313,-1.9105,-1.9463,-2.0208,-2.0852,-2.126,-2.1124,-2.138,-2.2213,-2.1901,-2.1221,-2.0092,-1.8626,-1.7708,-1.7373,-1.7396,-1.6829,-1.5414,-1.4837,-1.4841,-1.5026,-1.5068,-1.5106,-1.5196,-1.5077,-1.5072,-1.5205,-1.5025,-1.5134,-1.6115,-1.801,-1.9334,-1.928,-2.003,-2.079,-2.1456,-2.2223,-2.2883,-2.2841,-2.2093,-2.1278,-2.0961,-2.2779,-2.4501,-2.2872,-2.3828,-2.3518,-2.4174,-2.5282,-2.2434,-2.1645,-2.2267,-2.0872,-2.0667,-2.1402,-2.1402,-2.0838,-1.9931,-2.0952,-2.0838,-1.9938,-1.9815,-1.9822,-1.9597,-1.9597,-1.9591,-1.9366,-1.9597,-1.9591,-1.9597,-1.9597,-1.9713,-1.9822,-1.9591,-1.9482,-1.9584,-1.9219,-1.8985,-1.8965,-1.8731,-1.8437,-1.8103,-1.7936,-1.7781,-1.7741,-1.7741,-1.7673,-1.731,-1.7456,-1.718,-1.6535,-1.6635,-1.6714,-1.6688,-1.6132,-1.5906,-1.6072,-1.567,-1.5478,0.0,-1.5798,0.0,0.0,0.0,0.0,0.0,0.0,0.0,0.0,-1.8083,-1.8469,-1.8398,-1.8599,-1.883,-1.8998,-1.9938,-2.0742,-2.1042,-2.1576,-2.2286,-2.3106,-2.3237,-2.3471,-2.4071,-2.4145,-2.3622,-2.219,-2.1008,-2.0454,-2.0069,-2.0172,-1.9368,-1.6671,-1.5673,-1.5351,-1.5252,-1.5276,-1.5333,-1.5484,-1.54,-1.5526,-1.5803,-1.5427,-1.5808,-1.7787,-1.9578,-2.092,-2.1681,-2.2096,-2.2676,-2.4007,-2.4174,-2.4225,-2.4123,-2.4094,-2.3767,-2.3282,-2.4029,-2.5068,-2.5602,-2.5699,-2.5368,-2.5391,-2.5548,-2.4641,-2.4146,-2.4006,-2.3177,-2.2835,-2.2644,-2.2636,-2.2531,-2.2305,-2.2531,-2.2523,-2.2305,-2.2297,-2.1851,-2.0838,-2.0838,-2.0385,-1.9482,-2.0385,-2.0838,-2.0831,-2.0838,-2.1402,-2.2305,-2.0385,-1.9938,-2.0838,-1.9876,-1.9285,-1.9279,0.0,0.0,0.0,-1.8666,-1.8517,-1.8393,-1.88,-1.8709,-1.8181,-1.7635,0.0,-1.7123,-1.6436,-1.6232,-1.6589,-1.6464,0.0,0.0,0.0,0.0,0.0,0.0,0.0,0.0,0.0,0.0,0.0,-1.8979,-1.8898,-1.8614,-1.9393,-1.9981,-2.0128,-2.0456,-2.0856,-2.1496,-2.1846,-2.2246,-2.2637,-2.2996,-2.3413,-2.3845,-2.3896,-2.4057,-2.4423,-2.4481,-2.403,-2.3005,-2.3458,-2.3167,-2.109,-2.1063,-2.0912,-1.9528,-1.8094,-1.6918,-1.576,-1.5774,-1.5648,-1.5555,-1.5851,-1.641,-1.6886,-1.6555,-1.6939,-1.9177,-2.2131,-2.3356,-2.2558,-2.3085,-2.4077,-2.4481,-2.4686,-2.4832,-2.4869,-2.4854,-2.464,-2.407,-2.4488,-2.5026,-2.6761,0.0,-2.7051,-2.7361,0.0,-2.7655,-2.7467,-2.7218,-2.4984,-2.3925,-2.359,-2.3991,-2.3909,-2.3334,-2.3729,-2.3544,-2.2982,-2.2982,-2.2636,-2.2078,-2.207,-2.1737,-2.1181,-2.1851,-2.207,-2.2078,-2.2078,-2.2418,-2.2862,-2.1737,-2.1517,-2.207,-2.1517,-2.1174,-2.1174,-2.1174,-2.0714,-1.98,-2.0186,-2.0461,-2.0297,-2.0497,-2.0393,-1.9928,0.0,0.0,0.0,0.0,0.0,0.0,0.0,0.0,0.0,0.0,0.0,-2.0576,-2.1713,-2.212,-2.1619,-2.2146,-2.2001,-2.1017,-2.0766,-2.0574,-2.0026,-2.0565,-2.1094,-2.1415,-2.173,-2.1979,-2.2176,-2.274,-2.3106,-2.3135,-2.3545,-2.3969,-2.4262,-2.432,-2.4459,-2.4744,-2.481,-2.46,-2.4053,-2.4495,-2.4495,-2.3092,-2.3093,-2.2849,-2.1603,-2.0074,-1.8536,-1.7982,-1.7981,-1.804,-1.8035,-1.8177,-1.8315,-1.8982,-1.8761,-1.9287,-2.1013,-2.344,-2.4701,-2.3778,-2.4293,-2.481,-2.4818,-2.4949,-2.5059,-2.5059,-2.5059,-2.5066,-2.4701,-2.4887,-2.5037,-2.7964,-2.8728,-2.8668,-2.9279,-3.0305,-3.0231,-3.0204,-2.9998,0.0,0.0,0.0,-2.5557,-2.5315,-2.4359,-2.4932,-2.4658,-2.3738,-2.368,-2.3536,-2.3311,-2.3311,-2.3199,-2.2982,-2.3207,-2.332,-2.332,-2.3311,-2.3432,-2.3656,-2.3207,-2.3095,-2.3311,-2.3095,-2.2982,-2.2974,-2.3199,-2.2727,-2.1547,-2.2041,-2.2301,-2.2245,-2.2352,-2.2152,-2.171,-2.1943,-2.1869,-2.1553,-2.1655,-2.176,-2.1706,-2.1771,-2.1915,-2.2146,-2.2601,-2.3033,-2.3675,-2.4073,-2.4343,-2.4356,-2.4655,-2.4196,-2.272,-2.2284,-2.1809,-2.1313,-2.1642,-2.1972,-2.2242,-2.2528,-2.2623,-2.2454,-2.3113,-2.3537,-2.3384,-2.3852,-2.4298,-2.4598,-2.4657,-2.4752,-2.5001,-2.5044,-2.5059,-2.5052,-2.5059,-2.5059,-2.5059,-2.4895,-2.4774,-2.3324,-2.1353,-2.008,-2.0125,-2.0012,-2.0431,-2.0587,-2.0431,-2.0737,-2.0833,-2.0735,-2.1276,-2.2909,-2.4217,-2.5052,-2.5008,-2.5059,-2.5044,-2.5052,-2.5052,-2.5059,-2.5059,-2.5059,-2.5026,-2.5041,-2.5295,-2.5527,-3.0855,-3.092,-3.0583,-3.0582,-3.0681,-3.0341,-3.0204,-3.013,-2.8899,-2.7993,-2.729,-2.7473,-2.7323,-2.7191,-2.6915,-2.6743,-2.6605,-2.628,-2.5569,0.0,-2.4548,-2.3991,-2.3087,-2.4111,-2.4556,-2.4548,-2.4556,-2.5119,-2.5798,-2.3991,-2.3544,-2.4334,-2.3544,-2.3095,-2.3095,-2.3991,-2.442,-2.4258,-2.3525,-2.3124,-2.2824,-2.3244,-2.3386,-2.3098,-2.2978,-2.316,-2.3586,-2.3358,-2.3457,-2.3794,-2.3892,-2.3715,-2.3466,-2.4477,-2.5036,-2.4785,-2.6254,-2.6721,-2.5757,-2.6025,-2.5423,-2.3544,-2.3229,-2.2806,-2.1766,-2.2162,-2.2513,-2.2571,-2.2849,-2.3142,-2.3362,-2.3523,-2.3823,-2.4254,-2.443,-2.4635,-2.4927,-2.4971,-2.4986,-2.5044,-2.5059,-2.5059,-2.5059,-2.5059,-2.5059,-2.5059,-2.5059,-2.4916,-2.4338,-2.2343,-2.0646,-2.0539,-2.0569,-2.0593,-2.0876,-2.0599,-2.1296,-2.2265,-2.1457,-2.1829,-2.4188,-2.4916,-2.5059,-2.5059,-2.5059,-2.5066,-2.5074,-2.5059,-2.5103,-2.5118,-2.514,-2.5135,-2.519,-2.5988,-2.6771,-3.1377,-3.1359,-3.1185,-3.1102,-3.1093,-3.0919,-3.0708,-3.0497,-3.0121,-2.9635,-2.9067,-2.8627,-2.8425,-2.837,-2.7774,-2.738,-2.7169,-2.6985,-2.6555,-2.5806,-2.5798,-2.5459,-2.5008,-2.5578,-2.5798,-2.5798,-2.5798,-2.6026,-2.6473,-2.5459,-2.5238,-2.5688,-2.5238,-2.5008,-2.5,-2.5459,-2.5798,-2.5798,-2.534,-2.5032,-2.4959,-2.5186,-2.511,-2.4721,-2.4747,-2.4873,-2.5172,-2.509,-2.52,-2.5705,-2.5805,-2.5809,-2.5824,-2.6433,-2.6747,-2.676,-2.7563,-2.7786,-2.7245,-2.6964,-2.6487,-2.5544,-2.5242,-2.4659,-2.3384,-2.281,-2.2689,-2.2871,-2.3186,-2.3427,-2.3596,-2.391,-2.4254,-2.4532,-2.4723,-2.4891,-2.503,-2.5059,-2.5059,-2.5059,-2.5059,-2.5059,-2.5059,-2.5059,-2.5059,-2.5059,-2.5059,-2.5059,-2.5059,-2.3945,-2.2963,-2.3099,-2.3099,-2.3099,-2.2963,-2.3106,-2.3379,-2.3938,-2.346,-2.3589,-2.4909,-2.5059,-2.5059,-2.5059,-2.5059,-2.5132,-2.5264,-2.5315,-2.5388,-2.5557,-2.5259,-2.5183,-2.5356,-2.7236,-2.8749,-3.1377,-3.1377,-3.1377,-3.1377,-3.1377,-3.1377,-3.1203,-3.0937,-3.0919,-3.0745,-3.0378,-2.9617,-2.9204,-2.9039,-2.8352,-2.7765,-2.7343,-2.7215,-2.6967,-2.6609,-2.6591,-2.6591,-2.6591,-2.6591,-2.6591,-2.6591,-2.6591,-2.6591,-2.6591,-2.6591,-2.6591,-2.6591,-2.6591,-2.6591,-2.6591,-2.6591,-2.6591,-2.6591,-2.6591,-2.6591,-2.6591,-2.6591,-2.6435,-2.6133,-2.6096,-2.6259,-2.6485,-2.6456,-2.6664,-2.7192,-2.7305,-2.7461,-2.7773,-2.7812,-2.7949,-2.8262,-2.8301,-2.835,-2.8447,-2.8053,-2.7651,-2.7416,-2.716,-2.6355,-2.5245,-2.4174,-2.3473,-2.3304,-2.3442,-2.364,-2.3866,-2.4247,-2.4591,-2.4671,-2.4898,-2.5037,-2.5059,-2.5059,-2.5059,-2.5059,-2.5059,-2.5059,-2.5059,-2.5059,-2.5059,-2.5059,-2.5059,-2.5059,-2.5059,-2.5059,-2.5059,-2.5059,-2.5059,-2.4916,-2.5059,-2.4924,-2.4916,-2.5059,-2.5052,-2.4909,-2.5059,-2.5059,-2.511,-2.5147,-2.5176,-2.5315,-2.5564,-2.5644,-2.5732,-2.59,-2.5563,-2.5545,-2.62,-2.8992,-3.0373,-3.1387,-3.1377,-3.1377,-3.1377,-3.1377,-3.1377,-3.135,-3.1304,-3.1322,-3.1304,-3.1148,-3.0442,-2.9874,-2.9489,-2.9067,-2.8462,-2.7728,-2.7343,-2.6995,-2.6655,-2.6591,-2.6591,-2.6609,-2.6591,-2.6591,-2.6591,-2.6591,-2.6591,-2.6591,-2.6591,-2.6591,-2.6591,-2.6591,-2.6591,-2.6591,-2.6591,-2.6591,-2.6591,-2.6591,-2.6591,-2.6591,-2.6591,-2.6564,-2.6536,-2.6527,-2.6834,-2.727,-2.7308,-2.7523,-2.8058,-2.8144,-2.8174,-2.8223,-2.8232,-2.8252,-2.8281,-2.8301,-2.8457,-2.8848,-2.9157,-2.8974,-2.8293,-2.8153,-2.7794,-2.6902,-2.6591,-2.5651,-2.423,-2.3716,-2.4102,-2.4386,-2.4679,-2.496,-2.5196,-2.515,-2.5059,-2.5194,-2.5059,-2.5059,-2.5059,-2.5322,-2.5059,-2.5194,-2.5081,-2.5088,-2.5154,-2.5176,-2.5176,-2.5169,-2.5162,-2.5154,-2.511,-2.5081,-2.5081,-2.5074,-2.5059,-2.5059,-2.5059,-2.5059,-2.5081,-2.5096,-2.5125,-2.5147,-2.5447,-2.5621,-2.5877,-2.5981,-2.5974,-2.6269,-2.6794,-2.6718,-2.6598,-2.8256,-3.0835,-3.1159,-3.1753,-3.1717,-3.1478,-3.1377,-3.1377,-3.1377,-3.1377,-3.1377,-3.1377,-3.1377,-3.1341,-3.1029,-3.0671,-3.0268,-2.9874,-2.925,-2.8498,-2.8315,-2.7902,-2.7325,-2.7288,-2.716,-2.6949,-2.694,-2.683,-2.66,-2.6591,-2.6591,-2.6591,-2.6591,-2.6591,-2.6591,-2.6591,-2.6591,-2.6591,-2.6591,-2.6591,-2.6591,-2.6591,-2.6591,-2.6591,-2.6591,-2.6591,-2.6591,-2.6591,-2.6909,-2.7323,-2.7431,-2.7638,-2.8194,-2.8301,-2.8301,-2.8301,-2.8301,-2.8301,-2.831,-2.8535,-2.8857,-2.9277,-2.9707,-2.9783,-2.9374,-2.9631,-2.9381,-2.8316,-2.8411,-2.7861,-2.6575,-2.6262,-2.6487,-2.6963,-2.7213,-2.7002,-2.647,-2.6234,-2.6234,-2.6234,-2.5577,-2.5322,-2.6107,-2.6234,-2.5973,-2.5352,-2.522,-2.541,-2.5564,-2.5615,-2.5724,-2.5608,-2.5622,-2.5622,-2.5622,-2.5622,-2.544,-2.5183,-2.5059,-2.5066,-2.5066,-2.5059,-2.5088,-2.5603,-2.5647,-2.5614,-2.5908,-2.6624,-2.7162,-2.7624,-2.8519,-2.8954,-2.8911,-2.9397,-2.9928,-3.2532,-3.4294,-3.4187,-3.2093,-3.1946,-3.1552,-3.1377,-3.1377,-3.1377,-3.1377,-3.1377,-3.1377,-3.1377,-3.1377,-3.1377,-3.1222,-3.0919,-3.0534,-2.992,-2.9214,-2.914,-2.8773,-2.815,-2.8095,-2.7893,-2.7536,-2.738,-2.7132,-2.6784,-2.6637,-2.6591,-2.6591,-2.6591,-2.6591,-2.6591,-2.6591,-2.6591,-2.6591,-2.6591,-2.6591,-2.6591,-2.6591,-2.6591,-2.6591,-2.6591,-2.6591,-2.6591,-2.6591,-2.6791,-2.7323,-2.7431,-2.7638,-2.8291,-2.8301,-2.8301,-2.8301,-2.8398,-2.8525,-2.8662,-2.9043,-2.9404,-2.9726,-3.0146,-3.0391,-3.041,-3.0713,-3.0576,-2.9855,-2.985,-2.9886,-2.9485,-2.9422,-2.9339,-2.8948,-2.8782,-2.8402,-2.78,-2.7511,-2.7354,-2.7535,-2.6761,-2.6635,-2.7543,-2.7676,-2.7161,-2.6326,-2.6473,-2.6924,-2.6134,-2.6707,-2.7076,-2.7069,-2.7185,-2.7354,-2.7246,-2.7231,-2.6632,-2.5677,-2.5374,-2.5308,-2.5047,-2.5069,-2.5596,-2.6855,-2.7336,-2.7461,-2.8411,-2.8728,-2.902,-2.9468,-3.0556,-3.1202,-3.146,-3.1568,-3.2436,-3.4824,-3.632,-3.6533,-3.2349,-3.1983,-3.1552,-3.1405,-3.1377,-3.1377,-3.1377,-3.1506,-3.1377,-3.1377,-3.1506,-3.1506,-3.1359,-3.1433,-3.1055,-3.0314,-2.9635,-2.958,-2.9351,-2.8948,-2.8929,-2.8718,-2.8324,-2.793,-2.7554,-2.7205,-2.6912,-2.6692,-2.6628,-2.6591,-2.6591,-2.6591,-2.6591,-2.6591,-2.6591,-2.6591,-2.6591,-2.6591,-2.6591,-2.6591,-2.6591,-2.6591,-2.6591,-2.6591,-2.6591,-2.6909,-2.7323,-2.7431,-2.7647,-2.8291,-2.8301,-2.8301,-2.834,-2.8682,-2.9062,-2.9473,-2.9873,-3.0127,-3.0215,-3.0566,-3.082,-3.085,-3.0889,-3.1064,-3.1149,-3.1314,-3.158,-3.2419,-3.2229,-3.1523,-2.976,-2.9093,-2.8711,-2.896,-2.8318,-2.8318,-2.8969,-2.8897,-2.8994,-2.9151,-2.907,-2.8925,-2.8036,-2.9286,-2.8614,-2.77,-2.8486,-2.9995,-2.9431,-2.9696,-2.99,-3.0054,-2.9909,-2.9278,-2.679,-2.6501,-2.6126,-2.5672,-2.5806,-2.6573,-2.8976,-3.0727,-3.0814,-3.0676,-3.0745,-3.0915,-3.1205,-3.1554,-3.187,-3.2036,-3.2243,-3.3381,-3.5601,-3.5886,-3.6005,-3.2753,-3.2349,-3.1946,-3.1781,-3.1753,-3.1497,-3.1744,-3.2256,-3.1625,-3.2138,-3.3,-3.2629,-3.2374,-3.2374,-3.2232,-3.1486,-3.0503,-3.0351,-3.014,-2.9791,-2.9764,-2.9544,-2.9159,-2.8975,-2.8572,-2.8012,-2.782,-2.7471,-2.6958,-2.6719,-2.6591,-2.6591,-2.6591,-2.6591,-2.6591,-2.6591,-2.6591,-2.6591,-2.6591,-2.6591,-2.6609,-2.6591,-2.6591,-2.6591,-2.6591,-2.6909,-2.7431,-2.7431,-2.7647,-2.8291,-2.8301,-2.8418,-2.8701,-2.9101,-2.9521,-2.9922,-3.0117,-3.0322,-3.0615,-3.0801,-3.0898,-3.0918,-3.1143,-3.1348,-3.1572,-3.2002,-3.2471,-3.2764,-3.3066,-3.2631,-3.2181,-3.1524,-3.1121,-3.0513,-3.0228,-3.0072,-3.0307,-3.011,-3.0012,-3.0715,-3.0478,-3.0533,-3.1675,-3.1524,-3.047,-2.9838,-3.0552,-3.121,-3.1574,-3.1435,-3.1332,-3.1219,-3.1097,-3.0818,-2.9988,-2.911,-2.8486,-2.7266,-2.7204,-3.0138,-3.2629,-3.3541,-3.3771,-3.2164,-3.2208,-3.2668,-3.304,-3.3596,-3.3651,-3.3927,-3.3972,-3.4019,-3.5722,-3.5947,-3.5957,-3.3182,-3.328,-3.2879,-3.2965,-3.317,-3.2762,-3.2957,-3.3437,-3.2696,-3.3126,-3.4123,-3.3631,-3.3379,-3.3379,-3.3379,-3.2738,-3.1491,-3.1219,-3.0837,-3.0598,-3.058,-3.036,-2.9975,-2.97,-2.9223,-2.8608,-2.8306,-2.7884,-2.7407,-2.7095,-2.6976,-2.6976,-2.6967,-2.6967,-2.6958,-2.6848,-2.6784,-2.6765,-2.6655,-2.6692,-2.6921,-2.6976,-2.704,-2.716,-2.7178,-2.717,-2.7361,-2.7431,-2.7714,-2.8369,-2.8496,-2.875,-2.9287,-2.9609,-2.9971,-3.0351,-3.042,-3.0547,-3.0859,-3.1016,-3.1103,-3.1113,-3.1484,-3.1768,-3.1943,-3.2471,-3.2803,-3.3018,-3.3223,-3.3418,-3.3418,-3.3282,-3.3019,-3.211,-3.1973,-3.2038,-3.2169,-3.1641,-3.1851,-3.2571,-3.2487,-3.3206,-3.4438,-3.3495,-3.29,-3.2892,-3.2919,-3.326,-3.3621,-3.3436,-3.2919,-3.291,-3.3143,-3.3125,-3.2802,-3.2582,-3.1175,-2.978,-2.9083,-3.2245,-3.4515,-3.5505,-3.5444,-3.3835,-3.3484,-3.4186,-3.4756,-3.546,-3.5743,-3.6025,-3.5558,-3.5266,-3.5928,-3.6045,-3.6064,-3.3891,-3.4605,-3.4335,-3.4799,-3.5401,-3.4982,-3.5047,-3.4986,-3.4518,-3.4514,-3.4858,-3.4548,-3.4433,-3.4383,-3.4383,-3.3862,-3.2825,-3.2063,-3.1551,-3.1267,-3.1277,-3.1093,-3.0708,-3.0075,-2.9525,-2.9021,-2.8196,-2.782,-2.7774,-2.7691,-2.7655,-2.771,-2.7655,-2.7618,-2.7719,-2.7343,-2.7187,-2.7132,-2.6903,-2.7059,-2.7655,-2.7765,-2.7911,-2.8232,-2.8269,-2.7974,-2.7446,-2.7507,-2.7914,-2.8768,-2.8926,-2.9326,-2.9961,-3.0176,-3.04,-3.0752,-3.0859,-3.0869,-3.0957,-3.1269,-3.1455,-3.1572,-3.1914,-3.2314,-3.2578,-3.2773,-3.2998,-3.3281,-3.3389,-3.3418,-3.3418,-3.3418,-3.3292,-3.3301,-3.3194,-3.3398,-3.3797,-3.4082,-3.4267,-3.4576,-3.4728,-3.5228,-3.5335,-3.5288,-3.5247,-3.5295,-3.5451,-3.546,-3.5499,-3.5333,-3.5743,-3.5743,-3.5314,-3.4893,-3.546,-3.5704,-3.3963,-3.2369,-3.1987,-3.3193,-3.4916,-3.6006,-3.6025,-3.4756,-3.4756,-3.5323,-3.5314,-3.5879,-3.5879,-3.6025,-3.6025,-3.6016,-3.6025,-3.6025,-3.6025,-3.4957,-3.5298,-3.5549,-3.59,-3.6103,-3.569,-3.5895,-3.6525,-3.5733,-3.59,-3.6653,-3.6227,-3.5687,-3.5428,-3.5376,-3.4881,-3.3998,-3.3495,-3.2756,-3.1625,-3.1506,-3.1451,-3.1276,-3.0928,-3.0461,-2.9727,-2.8709,-2.8205,-2.8141,-2.7921,-2.7756,-2.7756,-2.7774,-2.7756,-2.7792,-2.7636,-2.7581,-2.76,-2.7756,-2.7976,-2.8214,-2.8471,-2.8553,-2.8407,-2.8397,-2.8279,-2.8005,-2.8172,-2.8573,-2.9041,-2.9254,-2.9629,-3.0137,-3.0508,-3.0742,-3.0869,-3.0898,-3.1045,-3.1299,-3.1455,-3.1689,-3.1963,-3.2353,-3.2627,-3.2812,-3.3057,-3.3262,-3.3408,-3.3418,-3.3418,-3.3418,-3.3418,-3.3437,-3.3418,-3.3691,-3.3906,-3.417,-3.4619,-3.5127,-3.5517,-3.5732,-3.581,-3.582,-3.5996,-3.6016,-3.6025,-3.6025,-3.6025,-3.6025,-3.6025,-3.6025,-3.6025,-3.6025,-3.6025,-3.6025,-3.6025,-3.5091,-3.4137,-3.3972,-3.367,-3.5237,-3.6025,-3.6025,-3.6025,-3.6025,-3.6025,-3.6025,-3.6025,-3.6025,-3.5996,-3.5967,-3.5976,-3.6016,-3.6287,-3.6664,-3.6228,-3.6739,-3.7003,-3.7553,-3.7753,-3.7328,-3.7527,-3.8018,-3.7349,-3.7403,-3.7789,-3.7466,-3.6951,-3.6577,-3.6502,-3.5869,-3.5005,-3.4995,-3.4133,-3.2756,-3.2502,-3.2502,-3.2473,-3.233,-3.1855,-3.0944,-2.9893,-2.9325,-2.9058,-2.8584,-2.8214,-2.8223,-2.8214,-2.8232,-2.8196,-2.8067,-2.8003,-2.804,-2.8242,-2.8535,-2.8847,-2.9232,-2.9388,-2.9278,-2.9489,-2.9319,-2.8821,-2.9336,-2.9516,-2.9543,-3.0167,-3.0847,-3.1117,-3.1846,-3.2008,-3.1702,-3.1726,-3.1819,-3.1623,-3.1836,-3.209,-3.2412,-3.2783,-3.3018,-3.3076,-3.331,-3.3408,-3.3418,-3.3418,-3.3418,-3.3428,-3.3594,-3.3652,-3.3662,-3.3896,-3.4209,-3.4531,-3.5185,-3.5654,-3.5918,-3.6006,-3.6025,-3.6025,-3.6025,-3.6025,-3.6025,-3.6025,-3.6025,-3.6025,-3.6025,-3.6025,-3.6025,-3.6025,-3.6025,-3.6025,-3.6025,-3.6025,-3.5714,-3.5558,-3.5393,-3.5879,-3.6025,-3.6025,-3.6025,-3.6025,-3.6025,-3.6025,-3.6016,-3.6016,-3.5967,-3.6226,-3.6058,-3.6266,-3.7627,-3.8057,-3.7924,-3.8713,-3.8845,-3.9352,-4.0051,-3.9626,-3.9452,-3.9515,-3.9038,-3.8614,-3.8335,-3.8113,-3.7797,-3.7516,-3.7297,-3.6757,-3.6125,-3.5992,-3.55,-3.4757,-3.4507,-3.4507,-3.4093,-3.355,-3.2933,-3.2296,-3.1396,-3.0907,-3.0315,-2.9681,-2.9094,-2.9338,-2.9319,-2.9176,-2.9282,-2.8834,-2.8956,-2.8984,-2.8941,-2.9378,-2.9981,-3.0408,-3.0723,-3.0983,-3.138,-3.1083,-3.0238,-3.0791,-3.0942,-3.0351,-3.1818,-3.2664,-3.2985,-3.3786,-3.3674,-3.2882,-3.3246,-3.2901,-3.2326,-3.2974,-3.3321,-3.343,-3.3739,-3.366,-3.3988,-3.3872,-3.3786,-3.366,-3.3554,-3.3437,-3.3545,-3.3789,-3.4033,-3.415,-3.4277,-3.4609,-3.5303,-3.5762,-3.5957,-3.6006,-3.6025,-3.6025,-3.6025,-3.6025,-3.6025,-3.6025,-3.6025,-3.6025,-3.6025,-3.6025,-3.6025,-3.6025,-3.6025,-3.6025,-3.6025,-3.6025,-3.5996,-3.61,-3.6314,-3.6568,-3.6423,-3.6278,-3.6549,-3.6413,-3.6549,-3.6423,-3.6549,-3.6934,-3.6938,-3.69,-3.6688,-3.6284,-3.7287,-3.9093,-3.9583,-4.0511,-4.0109,-4.0913,-4.0858,-4.029,-4.0126,-4.0083,-4.0083,-3.9963,-3.958,-3.9165,-3.8794,-3.8346,-3.7909,-3.7527,-3.7242,-3.7,-3.7,-3.6878,-3.6624,-3.6624,-3.5633,-3.446,-3.3608,-3.3256,-3.2943,-3.2173,-3.152,-3.1411,-3.1053,-3.0937,-3.1053,-3.0946,-3.0937,-3.1043,-3.1103,-3.1368,-3.1486,-3.2027,-3.2322,-3.2607,-3.2917,-3.3168,-3.2972,-3.3109,-3.2663,-3.188,-3.2316,-3.2395,-3.2074,-3.3261,-3.3888,-3.4011,-3.4357,-3.4611,-3.4577,-3.4658,-3.4941,-3.5275,-3.5388,-3.5685,-3.6114,-3.5876,-3.6327,-3.6215,-3.5366,-3.5005,-3.4642,-3.4037,-3.3681,-3.3956,-3.4152,-3.4485,-3.4932,-3.5254,-3.5338,-3.5693,-3.5947,-3.6025,-3.6025,-3.6025,-3.6161,-3.6152,-3.6287,-3.6132,-3.6112,-3.6132,-3.6287,-3.6549,-3.6287,-3.6413,-3.6152,-3.6016,-3.6025,-3.6025,-3.6025,-3.6063,-3.6202,-3.6693,-3.7378,-3.7213,-3.7048,-3.7317,-3.7585,-3.8242,-3.8374,-3.8772,-3.9288,-3.8781,-3.7947,-3.8319,-3.8407,-4.0105,-4.1786,-4.1336,-4.2548,-4.1927,-4.2609,-4.2452,-4.1812,-4.1801,-4.1547,-4.112,-4.1086,-4.0441,-3.9686,-3.9045,-3.8565,-3.8084,-3.7593,-3.7374,-3.7374,-3.7374,-3.7374,-3.7374,-3.7363,-3.6746,-3.569,-3.4862,-3.4466,-3.4205,-3.319,-3.2652,-3.2238,-3.1977,-3.1862,-3.1747,-3.1747,-3.1747,-3.1757,-3.2095,-3.2367,-3.2482,-3.3225,-3.3528,-3.3861,-3.4151,-3.4242,-3.4063,-3.4055,-3.3762,-3.3161,-3.3235,-3.3325,-3.3448,-3.4346,-3.5113,-3.5256,-3.5889,-3.6115,-3.6084,-3.6317,-3.6622,-3.6596,-3.6881,-3.7014,-3.7232,-3.7298,-3.7298,-3.7177,-3.6571,-3.6226,-3.6104,-3.5366,-3.5355,-3.5745,-3.6115,-3.6691,-3.7418,-3.7462,-3.7054,-3.6268,-3.6016,-3.6025,-3.6152,-3.6539,-3.6934,-3.6934,-3.7337,-3.7021,-3.6469,-3.6743,-3.7236,-3.7729,-3.7203,-3.7069,-3.7193,-3.7451,-3.7719,-3.7852,-3.7852,-3.7217,-3.7227,-3.8887,-3.9295,-3.8761,-3.8455,-3.8444,-3.8972,-3.9779,-4.0333,-4.0463,-4.057,-4.0072,-3.9704,-4.0254,-4.1008,-4.2301,-4.3112,-4.2706,-4.4221,-4.4055,-4.4055,-4.402,-4.3808,-4.382,-4.3128,-4.2418,-4.2152,-4.141,-4.0279,-3.9352,-3.8869,-3.8273,-3.789,-3.7495,-3.7374,-3.7374,-3.7374,-3.7374,-3.7374,-3.7242,-3.7056,-3.6351,-3.5864,-3.5432,-3.4455,-3.3758,-3.3214,-3.255,-3.2207,-3.2322,-3.2322,-3.2207,-3.2477,-3.2424,-3.2397,-3.3008,-3.3597,-3.408,-3.443,-3.48,-3.4923,-3.481,-3.456,-3.4371,-3.3944,-3.3963,-3.4134,-3.3909,-3.5466,-3.6277,-3.6576,-3.8034,-3.8233,-3.7769,-3.8056,-3.817,-3.7557,-3.7903,-3.7876,-3.8029,-3.8029,-3.767,-3.791,-3.779,-3.7539,-3.7539,-3.7462,-3.7346,-3.8043,-3.8864,-3.9324,-3.9509,-3.9888,-3.8893,-3.7193,-3.6403,-3.6403,-3.6413,-3.7595,-3.8109,-3.8629,-3.9103,-3.9303,-3.7909,-3.8013,-3.8413,-3.8904,-3.8639,-3.8761,-3.9288,-3.955,-3.9812,-3.9932,-3.9932,-3.9055,-3.854,-4.1388,-4.2347,-4.1097,-4.0622,-4.0072,-4.0331,-4.1203,-4.1505,-4.1377,-4.1332,-4.1275,-4.1497,-4.1845,-4.2637,-4.3517,-4.373,-4.3593,-4.6118,-4.5333,-4.5345,-4.4716,-4.4009,-4.3831,-4.3785,-4.3516,-4.3093,-4.2666,-4.207,-4.0887,-4.0039,-3.9456,-3.8541,-3.7867,-3.7506,-3.7495,-3.7374,-3.7374,-3.7374,-3.7374,-3.7188,-3.6577,-3.59,-3.5315,-3.4691,-3.4285,-3.4076,-3.3829,-3.3942,-3.3829,-3.3604,-3.3942,-3.3861,-3.3994,-3.45,-3.4705,-3.4975,-3.5446,-3.5842,-3.5883,-3.5958,-3.5982,-3.5412,-3.4988,-3.4923,-3.5012,-3.5268,-3.5817,-3.6409,-3.7126,-3.7975,-3.8562,-3.9005,-3.9491,-3.9712,-3.999,-4.0092,-4.0117,-4.0327,-4.0095,-3.9978,-4.0327,-4.0327,-3.9239,-3.8862,-3.8693,-3.8254,-3.8519,-3.9313,-3.9752,-4.0254,-4.0548,-4.0463,-4.0203,-3.9419,-3.9299,-3.9025,-3.9156,-3.9419,-3.9812,-3.9812,-4.0073,-3.9931,-3.9422,-3.9487,-3.9899,-4.0062,-4.0073,-4.0463,-4.098,-4.1097,-4.1365,-4.1248,-4.1493,-4.1279,-4.0744,-4.311,-4.4493,-4.3236,-4.2592,-4.2063,-4.2213,-4.2914,-4.2925,-4.2788,-4.304,-4.3255,-4.3345,-4.3434,-4.3683,-4.3967,-4.4299,-4.447,-4.7197,-4.6549,-4.6537,-4.6118,-4.5641,-4.5606,-4.5333,-4.4766,-4.4147,-4.3646,-4.2949,-4.1707,-4.0806,-4.0263,-3.9538,-3.8833,-3.8261,-3.7987,-3.7626,-3.7495,-3.7363,-3.7265,-3.7014,-3.6566,-3.6042,-3.555,-3.5091,-3.4775,-3.4578,-3.4524,-3.4412,-3.4524,-3.4524,-3.4412,-3.4524,-3.4775,-3.4858,-3.5087,-3.5463,-3.5943,-3.6566,-3.6457,-3.6184,-3.602,-3.5474,-3.5135,-3.4851,-3.4878,-3.5535,-3.6443,-3.6962,-3.7613,-3.8658,-3.9284,-3.985,-4.0258,-4.0667,-4.0848,-4.1124,-4.1184,-4.1069,-4.1184,-4.1184,-4.1184,-4.1172,-4.0443,-4.0211,-4.0188,-4.0101,-4.0387,-4.1227,-4.1811,-4.2086,-4.2143,-4.2143,-4.2143,-4.1888,-4.098,-4.0203,-4.0333,-4.0721,-4.1108,-4.1237,-4.1493,-4.1865,-4.1867,-4.0963,-4.1365,-4.2016,-4.2154,-4.2016,-4.2281,-4.2523,-4.2661,-4.2546,-4.2937,-4.3588,-4.3571,-4.4507,-4.5171,-4.4606,-4.4199,-4.3986,-4.4099,-4.4075,-4.4446,-4.4311,-4.4705,-4.4705,-4.4521,-4.435,-4.4326,-4.4461,-4.4645,-4.4816,-4.7497,-4.7497,-4.7497,-4.7497,-4.7497,-4.7461,-4.6812,-4.5964,-4.5243,-4.4466,-4.352,-4.2441,-4.1607,-4.0888,-4.0382,-3.9898,-3.9186,-3.8704,-3.8227,-3.7976,-3.7747,-3.7462,-3.7198,-3.6925,-3.6533,-3.6053,-3.543,-3.4982,-3.4731,-3.4556,-3.4524,-3.4524,-3.4524,-3.4524,-3.4534,-3.4545,-3.472,-3.5015,-3.5091,-3.5485,-3.6162,-3.5998,-3.5659,-3.5397,-3.5124,-3.4906,-3.4687,-3.4756,-3.5379,-3.6755,-3.7161,-3.7921,-3.882,-3.9789,-4.0475,-4.0511,-4.092,-4.11,-4.116,-4.1184,-4.1184,-4.1184,-4.1184,-4.1184,-4.1184,-4.1081,-4.1141,-4.1429,-4.1602,-4.2341,-4.3529,-4.3664,-4.3927,-4.4099,-4.4223,-4.4347,-4.3962,-4.2154,-4.1365,-4.1237,-4.2016,-4.2546,-4.2799,-4.3189,-4.3838,-4.4099,-4.3189,-4.2799,-4.3326,-4.3713,-4.3439,-4.3565,-4.3678,-4.3927,-4.3939,-4.3755,-4.4546,-4.5123,-4.582,-4.5661,-4.5599,-4.5355,-4.511,-4.4963,-4.5074,-4.5208,-4.5208,-4.5074,-4.5061,-4.5159,-4.5013,-4.4854,-4.4854,-4.4988,-4.5318,-4.7497,-4.7497,-4.7497,-4.7497,-4.7497,-4.7497,-4.7305,-4.7077,-4.606,-4.5629,-4.5191,-4.3831,-4.2536,-4.1751,-4.1126,-4.0255,-3.9541,-3.9178,-3.906,-3.8704,-3.8466,-3.7996,-3.7951,-3.7646,-3.7089,-3.6435,-3.5769,-3.5369,-3.4982,-3.4742,-3.4589,-3.4545,-3.4524,-3.4524,-3.4524,-3.4524,-3.4556,-3.4709,-3.4731,-3.5048,-3.5419,-3.5474,-3.5321,-3.5113,-3.4862,-3.4655,-3.4676,-3.4873,-3.5475,-3.6297,-3.7611,-3.8526,-3.9302,-4.0093,-4.0619,-4.092,-4.1088,-4.1184,-4.1184,-4.1184,-4.1184,-4.1184,-4.1184,-4.1184,-4.1184,-4.1256,-4.1497,-4.2014,-4.2675,-4.3469,-4.4118,-4.4287,-4.4323,-4.4347,-4.4347,-4.4347,-4.4223,-4.3701,-4.3177,-4.3051,-4.3576,-4.3838,-4.3838,-4.3962,-4.4099,-4.4347,-4.3838,-4.3576,-4.3838,-4.4211,-4.4458,-4.4582,-4.4828,-4.5196,-4.544,-4.5098,-4.5208,-4.5684,-4.6109,-4.6122,-4.6072,-4.6205,-4.6072,-4.5696,-4.5453,-4.5453,-4.5453,-4.5453,-4.5453,-4.544,-4.5281,-4.511,-4.5428,-4.5855,-4.6406,-4.7497,-4.7497,-4.7497,-4.7497,-4.7497,-4.7497,-4.7497,-4.7341,-4.6403,-4.5934,-4.5537,-4.4539,-4.3359,-4.2496,-4.2042,-4.1117,-4.0047,-3.9767,-3.9532,-3.9297,-3.8942,-3.8823,-3.8823,-3.8466,-3.8354,-3.7865,-3.7016,-3.5868,-3.5233,-3.5004,-3.4764,-3.4556,-3.4524,-3.4524,-3.4524,-3.4524,-3.4524,-3.4524,-3.4545,-3.4731,-3.5146,-3.519,-3.5102,-3.4829,-3.4676,-3.4545,-3.4611,-3.496,-3.5674,-3.6588,-3.7781,-3.8943,-3.9764,-4.0342,-4.0896,-4.1136,-4.1184,-4.1184,-4.1184,-4.1184,-4.1184,-4.1184,-4.1184,-4.1184,-4.1268,-4.1473,-4.1906,-4.2639,-4.3036,-4.3734,-4.4263,-4.4335,-4.4347,-4.4347,-4.4347,-4.4347,-4.4347,-4.4347,-4.4347,-4.4347,-4.4223,-4.4099,-4.4223,-4.4223,-4.4223,-4.4347,-4.4347,-4.4359,-4.4359,-4.4594,-4.4963,-4.5086,-4.5331,-4.5574,-4.5817,-4.5622,-4.556,-4.6022,-4.6313,-4.6313,-4.6313,-4.6326,-4.6205,-4.6072,-4.583,-4.5926,-4.5817,-4.5926,-4.5817,-4.5805,-4.5826,-4.5789,-4.6218,-4.6756,-4.7389,-4.7497,-4.7497,-4.7497,-4.7497,-4.7497,-4.7497,-4.7497,-4.7293,-4.6379,-4.5934,-4.5766,-4.4683,-4.3601,-4.2999,-4.2541,-4.1918,-4.0467,-4.0687,-4.0675,-3.9884,-3.9861,-3.9755,-3.9532,-3.9308,-3.9156,-3.8805,-3.8392,-3.7166,-3.6082,-3.5545,-3.5091,-3.484,-3.4687,-3.4578,-3.4545,-3.4524,-3.4524,-3.4524,-3.4534,-3.4742,-3.4982,-3.5048,-3.4917,-3.4567,-3.4524,-3.4567,-3.4742,-3.5179,-3.5868,-3.6771,-3.7845,-3.8988,-3.9908,-4.0583,-4.1057,-4.1184,-4.1184,-4.1184,-4.1184,-4.1184,-4.1184,-4.1184,-4.1184,-4.1184,-4.1365,-4.1786,-4.2483,-4.3289,-4.3685,-4.3854,-4.4287,-4.4347,-4.4347,-4.4347,-4.4347,-4.4347,-4.4347,-4.4347,-4.4347,-4.4347,-4.4347,-4.4347,-4.4347,-4.4347,-4.4347,-4.4483,-4.4483,-4.463,-4.4618,-4.4975,-4.5208,-4.5331,-4.5453,-4.5817,-4.5926,-4.5889,-4.5864,-4.6168,-4.6313,-4.6313,-4.6313,-4.6313,-4.6421,-4.6636,-4.6742,-4.6849,-4.6636,-4.6636,-4.6742,-4.6798,-4.6446,-4.6387,-4.6445,-4.7847,-4.9176,-4.7497,-4.7497,-4.7497,-4.7497,-4.7497,-4.7497,-4.7497,-4.7329,-4.6355,-4.5934,-4.5881,-4.4458,-4.3433,-4.2996,-4.2676,-4.203,-4.1757,-4.2263,-4.225,-4.1263,-4.1239,-4.0894,-4.0223,-3.9532,-3.965,-3.9627,-3.9322,-3.8426,-3.7372,-3.6496,-3.5698,-3.5303,-3.5241,-3.4928,-3.4657,-3.4635,-3.4524,-3.4524,-3.4524,-3.4567,-3.4622,-3.4655,-3.46,-3.4545,-3.4589,-3.472,-3.5081,-3.555,-3.6202,-3.6758,-3.7729,-3.8614,-3.9414,-3.9989,-4.0583,-4.0942,-4.1184,-4.1184,-4.1184,-4.1184,-4.1184,-4.1184,-4.1184,-4.1184,-4.1545,-4.211,-4.2832,-4.3421,-4.3902,-4.4178,-4.4311,-4.4347,-4.4347,-4.4347,-4.4347,-4.4347,-4.4347,-4.4347,-4.4347,-4.4347,-4.4347,-4.4347,-4.4347,-4.4347,-4.4347,-4.4483,-4.4618,-4.4889,-4.5123,-4.5574,-4.5574,-4.5696,-4.6143,-4.6503,-4.6402,-4.627,-4.6666,-4.673,-4.6453,-4.6585,-4.71,-4.7324,-4.7311,-4.7534,-4.7769,-4.7652,-4.7429,-4.7429,-4.7756,-4.7769,-4.76,-4.6926,-4.6303,-4.8239,-5.0826,-4.7497,-4.7497,-4.7497,-4.7497,-4.7497,-4.7497,-4.7329,-4.7063,-4.6865,-4.6594,-4.6252,-4.5557,-4.4606,-4.3849,-4.3487,-4.3073,-4.2936,-4.3479,-4.3479,-4.2824,-4.2687,-4.2363,-4.181,-4.1696,-4.157,-4.0571,-4.0432,-4.0105,-3.9036,-3.8054,-3.7165,-3.6353,-3.6219,-3.5848,-3.5146,-3.5069,-3.4847,-3.4635,-3.4524,-3.4524,-3.4524,-3.4524,-3.4524,-3.4545,-3.4775,-3.5015,-3.5343,-3.5998,-3.6424,-3.6892,-3.7732,-3.8574,-3.9297,-3.9884,-4.0467,-4.1069,-4.1184,-4.1184,-4.1184,-4.1184,-4.1184,-4.1184,-4.1244,-4.1449,-4.1954,-4.2483,-4.3156,-4.3938,-4.419,-4.4347,-4.4371,-4.4347,-4.4347,-4.4347,-4.4347,-4.4347,-4.4347,-4.4347,-4.4347,-4.4347,-4.4347,-4.447,-4.4422,-4.4338,-4.4386,-4.4495,-4.5024,-4.582,-4.6243,-4.6755,-4.6528,-4.6193,-4.6742,-4.7416,-4.7144,-4.6923,-4.7678,-4.7704,-4.6847,-4.7263,-4.8287,-4.8673,-4.8779,-4.8842,-4.9005,-4.8789,-4.8326,-4.8558,-4.9005,-4.8946,-4.8746,-4.8511,-4.8494,-5.0271,-5.2363,-4.763,-4.787,-4.763,-4.7497,-4.7497,-4.7762,-4.7494,-4.6968,-4.727,-4.7144,-4.6476,-4.5918,-4.5208,-4.4553,-4.4138,-4.392,-4.3797,-4.4248,-4.4139,-4.4029,-4.392,-4.3602,-4.3159,-4.327,-4.2936,-4.1846,-4.2024,-4.1749,-4.1082,-4.0109,-3.8949,-3.7538,-3.7244,-3.6755,-3.6002,-3.5677,-3.5389,-3.5179,-3.5069,-3.4958,-3.4847,-3.4736,-3.4712,-3.4764,-3.5015,-3.5321,-3.5659,-3.6205,-3.6664,-3.7089,-3.7537,-3.8347,-3.8942,-3.9521,-4.0235,-4.0711,-4.0954,-4.1184,-4.1184,-4.1184,-4.1184,-4.1184,-4.128,-4.1581,-4.2519,-4.2856,-4.3397,-4.4443,-4.4563,-4.4587,-4.4527,-4.4467,-4.4347,-4.4347,-4.4347,-4.4347,-4.4347,-4.4347,-4.447,-4.447,-4.4582,-4.4939,-4.4743,-4.4451,-4.4376,-4.457,-4.5294,-4.6597,-4.7346,-4.7912,-4.7899,-4.756,-4.8003,-4.8558,-4.835,-4.8218,-4.8805,-4.9047,-4.8215,-4.806,-4.9281,-5.0186,-5.0758,-5.0734,-5.0405,-5.0587,-5.0573,-5.0462,-5.035,-5.0352,-5.0395,-5.0713,-5.1375,-5.2783,-5.3331,-4.8002,-4.8775,-4.7833,-4.7533,-4.7689,-4.8514,-4.8261,-4.7246,-4.7783,-4.741,-4.6476,-4.5347,-4.49,-4.4345,-4.4774,-4.4587,-4.4029,-4.5582,-4.514,-4.46,-4.4479,-4.4479,-4.4152,-4.392,-4.381,-4.3479,-4.3479,-4.3479,-4.3245,-4.2176,-4.053,-3.8781,-3.8292,-3.765,-3.6932,-3.6363,-3.607,-3.5938,-3.5938,-3.5719,-3.5511,-3.5346,-3.5402,-3.5285,-3.5255,-3.5616,-3.6489,-3.6708,-3.6904,-3.7232,-3.7451,-3.7867,-3.8585,-3.9049,-3.9638,-4.0351,-4.0826,-4.1069,-4.1184,-4.1184,-4.1184,-4.1184,-4.128,-4.1593,-4.2495,-4.318,-4.3938,-4.4768,-4.4924,-4.508,-4.4936,-4.472,-4.4647,-4.4515,-4.4527,-4.4431,-4.4407,-4.4582,-4.4582,-4.4582,-4.4939,-4.5537,-4.5585,-4.5423,-4.5194,-4.5391,-4.7057,-4.8355,-4.8663,-4.9247,-4.9475,-4.9362,-4.9576,-4.9816,-4.9843,-5.0181,-5.064,-5.0988,-5.0723,-5.0222,-5.032,-5.1224,-5.2182,-5.1958,-5.1593,-5.2272,-5.2609,-5.2042,-5.1702,-5.192,-5.2042,-5.2164,-5.2272,-5.3037,-5.3429,-4.8118,-4.8435,-4.8239,-4.8451,-4.8875,-4.9237,-4.8628,-4.7807,-4.84,-4.849,-4.7853,-4.7136,-4.6531,-4.6114,-4.5795,-4.5808,-4.5582,-4.6034,-4.5914,-4.5808,-4.5702,-4.5368,-4.5033,-4.4912,-4.502,-4.4248,-4.4261,-4.4261,-4.37,-4.3492,-4.3083,-4.152,-3.9834,-3.8448,-3.7687,-3.6893,-3.6432,-3.6375,-3.6375,-3.6145,-3.6105,-3.6268,-3.6373,-3.642,-3.6627,-3.6778,-3.7233,-3.7209,-3.7309,-3.7319,-3.7484,-3.7856,-3.8227,-3.8704,-3.9285,-4.0106,-4.0595,-4.0838,-4.1196,-4.1184,-4.1184,-4.1184,-4.1232,-4.1509,-4.2315,-4.3036,-4.3782,-4.4527,-4.5297,-4.5597,-4.5561,-4.5429,-4.5297,-4.4984,-4.4756,-4.4623,-4.4691,-4.484,-4.5172,-4.5294,-4.5889,-4.661,-4.6509,-4.6395,-4.6232,-4.632,-4.8211,-4.9818,-5.0235,-5.0476,-5.0698,-5.0712,-5.0809,-5.1031,-5.1058,-5.164,-5.236,-5.2569,-5.2763,-5.2262,-5.1734,-5.225,-5.3023,-5.2851,-5.2716,-5.2943,-5.3064,-5.2957,-5.2837,-5.2716,-5.2943,-5.317,-5.3395,-5.3515,-5.3515,-4.8222,-4.8461,-4.8914,-4.9083,-4.9363,-4.964,-4.908,-4.8217,-4.8982,-4.9079,-4.878,-4.8311,-4.791,-4.7474,-4.7184,-4.6873,-4.6665,-4.6678,-4.6574,-4.6469,-4.6258,-4.6139,-4.5928,-4.5914,-4.5688,-4.4925,-4.5033,-4.514,-4.4804,-4.437,-4.3958,-4.3016,-4.1685,-4.0037,-3.8766,-3.7472,-3.6808,-3.6808,-3.6808,-3.6688,-3.665,-3.7055,-3.7261,-3.7322,-3.7575,-3.7958,-3.8089,-3.8134,-3.8029,-3.8085,-3.8096,-3.8216,-3.8466,-3.8823,-3.9285,-3.9873,-4.0467,-4.0711,-4.1069,-4.1184,-4.1184,-4.1184,-4.1184,-4.1473,-4.2062,-4.3036,-4.4094,-4.4659,-4.5537,-4.6162,-4.6126,-4.5934,-4.5549,-4.5152,-4.5032,-4.4876,-4.511,-4.5294,-4.5768,-4.613,-4.6955,-4.7665,-4.8313,-4.835,-4.8713,-4.8624,-4.9402,-5.085,-5.1554,-5.1716,-5.1934,-5.1934,-5.1934,-5.2042,-5.2272,-5.2658,-5.2909,-5.3016,-5.3195,-5.3274,-5.3179,-5.3544,-5.3515,-5.3275,-5.317,-5.3395,-5.3395,-5.329,-5.329,-5.3395,-5.3515,-5.3515,-5.3515,-5.3515,-5.3515,-4.8334,-4.9258,-4.9837,-4.9454,-4.8872,-4.9689,-4.9431,-4.8516,-4.9384,-4.9244,-4.8463,-4.819,-4.8176,-4.8078,-4.7889,-4.7582,-4.7288,-4.7288,-4.7081,-4.6783,-4.6783,-4.6574,-4.6469,-4.6469,-4.6455,-4.6469,-4.6258,-4.6139,-4.6139,-4.5475,-4.4863,-4.3965,-4.2626,-4.1279,-4.0649,-3.8907,-3.801,-3.7974,-3.7974,-3.756,-3.7547,-3.7864,-3.7991,-3.8268,-3.8459,-3.8837,-3.8972,-3.8969,-3.8823,-3.8823,-3.8942,-3.8953,-3.9072,-3.9532,-3.9873,-4.0106,-4.0711,-4.1069,-4.1184,-4.1184,-4.1184,-4.1184,-4.1196,-4.1437,-4.2134,-4.3241,-4.4407,-4.4864,-4.5946,-4.6559,-4.6511,-4.6307,-4.5886,-4.5815,-4.5719,-4.578,-4.6032,-4.6426,-4.7065,-4.7244,-4.8003,-4.8815,-4.9743,-5.046,-5.1211,-5.1322,-5.1266,-5.1759,-5.2408,-5.273,-5.2716,-5.2716,-5.2716,-5.2822,-5.2929,-5.317,-5.3439,-5.353,-5.3544,-5.3482,-5.3482,-5.353,-5.3515,-5.3515,-5.3515,-5.3515,-5.3515,-5.35,-5.3515,-5.3515,-5.3515,-5.3515,-5.3515,-5.3515,-5.3515,-4.8599,-4.9269,-4.9679,-4.9671,-4.946,-5.0171,-5.0001,-4.9393,-4.9567,-4.9466,-4.9151,-4.8795,-4.8595,-4.8595,-4.828,-4.8092,-4.7889,-4.7787,-4.7685,-4.7568,-4.748,-4.7288,-4.7184,-4.6991,-4.6873,-4.6574,-4.6469,-4.6574,-4.6469,-4.6072,-4.5657,-4.4885,-4.3267,-4.1815,-4.0616,-3.9399,-3.9013,-3.9299,-3.8816,-3.8236,-3.8931,-3.9008,-3.9241,-3.9516,-3.9623,-3.9791,-3.9849,-3.965,-3.9544,-3.9426,-3.9426,-3.9426,-3.9426,-3.9767,-3.9989,-4.0106,-4.0583,-4.0711,-4.1069,-4.1184,-4.1184,-4.1299,-4.122,-4.1425,-4.2038,-4.306,-4.4094,-4.5104,-4.609,-4.6692,-4.7052,-4.7088,-4.6918,-4.728,-4.7391,-4.7284,-4.75,-4.8176,-4.8577,-4.8536,-4.893,-5.0159,-5.1155,-5.15,-5.216,-5.2462,-5.2292,-5.2099,-5.2623,-5.3064,-5.3275,-5.3275,-5.329,-5.3395,-5.3515,-5.3515,-5.3515,-5.3515,-5.3515,-5.353,-5.3515,-5.3515,-5.3515,-5.3515,-5.3515,-5.3515,-5.3515,-5.3515,-5.3515,-5.3515,-5.3515,-5.3515,-5.3515,-5.3515,-5.3515,-4.8706,-4.9113,-4.9481,-4.9683,-4.9799,-5.0169,-5.0096,-4.9756,-4.9683,-4.9683,-4.9585,-4.9277,-4.9178,-4.9093,-4.8881,-4.8481,-4.8395,-4.838,-4.8179,-4.8165,-4.8064,-4.7875,-4.7685,-4.7596,-4.748,-4.7067,-4.7081,-4.7081,-4.7143,-4.6654,-4.5847,-4.4685,-4.3486,-4.2385,-4.1276,-4.0453,-3.9815,-4.0031,-3.9715,-3.9767,-4.0209,-4.0504,-4.0943,-4.0707,-4.0745,-4.0918,-4.0571,-4.0235,-4.0001,-4.0001,-4.0001,-4.0013,-4.0001,-4.0339,-4.0559,-4.0906,-4.1353,-4.1696,-4.2049,-4.2162,-4.2275,-4.2287,-4.1618,-4.1437,-4.2026,-4.2976,-4.3854,-4.4852,-4.611,-4.6786,-4.7256,-4.7377,-4.8138,-4.8467,-4.8687,-4.8569,-4.876,-4.9285,-4.9348,-4.9312,-4.977,-5.1043,-5.218,-5.2556,-5.2937,-5.3072,-5.3072,-5.3015,-5.2837,-5.317,-5.3515,-5.3515,-5.3515,-5.3515,-5.3515,-5.3515,-5.3515,-5.3515,-5.3515,-5.3515,-5.3515,-5.3515,-5.3515,-5.3515,-5.3515,-5.3515,-5.3515,-5.3515,-5.3515,-5.3515,-5.3515,-5.3515,-5.3515,-5.3515,-5.3515,-4.8831,-4.8925,-4.9408,-4.9683,-4.9698,-4.9799,-4.9727,-4.9683,-4.9683,-4.9683,-4.9683,-4.9683,-4.9585,-4.9683,-4.9683,-4.9389,-4.8994,-4.8895,-4.8681,-4.8366,-4.8467,-4.828,-4.8179,-4.8092,-4.799,-4.7976,-4.7976,-4.7773,-4.7892,-4.6901,-4.5541,-4.4351,-4.3585,-4.3009,-4.2373,-4.1631,-4.0919,-4.1025,-4.1028,-4.0989,-4.1143,-4.2251,-4.2053,-4.1888,-4.1855,-4.1963,-4.172,-4.1378,-4.1378,-4.139,-4.1287,-4.1287,-4.1516,-4.2061,-4.24,-4.2725,-4.3257,-4.3368,-4.3479,-4.3368,-4.3479,-4.3159,-4.2362,-4.1971,-4.2462,-4.3573,-4.4548,-4.5404,-4.6418,-4.6749,-4.7118,-4.801,-4.8866,-4.9267,-4.9607,-4.9722,-4.9653,-4.9834,-4.9814,-5.0094,-5.0528,-5.1446,-5.232,-5.2865,-5.3319,-5.3333,-5.3348,-5.3333,-5.3184,-5.329,-5.3515,-5.3515,-5.3515,-5.3515,-5.3515,-5.3515,-5.3515,-5.3515,-5.3515,-5.3515,-5.3515,-5.3515,-5.3515,-5.3515,-5.3515,-5.3515,-5.3515,-5.3515,-5.3515,-5.3515,-5.3515,-5.3515,-5.3515,-5.3515,-5.3515,-4.9017,-4.9422,-4.9643,-4.9683,-4.9683,-4.9683,-4.9683,-4.9683,-4.9683,-4.9683,-4.9683,-4.9683,-4.9683,-4.9683,-4.9683,-4.9585,-4.9488,-4.9473,-4.9375,-4.9277,-4.9079,-4.8881,-4.8795,-4.8595,-4.8495,-4.828,-4.8165,-4.8223,-4.7769,-4.6881,-4.5958,-4.4982,-4.4123,-4.3887,-4.3628,-4.3122,-4.2541,-4.2166,-4.2006,-4.1865,-4.2021,-4.2902,-4.2708,-4.2627,-4.2861,-4.3033,-4.2924,-4.2812,-4.2812,-4.2924,-4.3035,-4.3035,-4.3146,-4.327,-4.3381,-4.3368,-4.3687,-4.3797,-4.3797,-4.3797,-4.3932,-4.4184,-4.3736,-4.413,-4.4457,-4.5008,-4.5811,-4.6372,-4.6873,-4.7308,-4.7994,-4.885,-4.9786,-5.0352,-5.0734,-5.1022,-5.1002,-5.077,-5.0796,-5.0467,-5.1017,-5.1759,-5.2609,-5.3064,-5.341,-5.3515,-5.3515,-5.3515,-5.3515,-5.3515,-5.3515,-5.3515,-5.3515,-5.3515,-5.3515,-5.3515,-5.3515,-5.3515,-5.3515,-5.3515,-5.3515,-5.3515,-5.3515,-5.3515,-5.3515,-5.3515,-5.3515,-5.3515,-5.3515,-5.3515,-5.3515,-5.3515,-5.3515,-5.3515,-5.3515,-4.9409,-4.9698,-4.9683,-4.9683,-4.9683,-4.9683,-4.9683,-4.9683,-4.9683,-4.9683,-4.9683,-4.9683,-4.9683,-4.9683,-4.9683,-4.9683,-4.9683,-4.9683,-4.9585,-4.9585,-4.9683,-4.9488,-4.9291,-4.9192,-4.9079,-4.8767,-4.861,-4.8723,-4.8055,-4.6894,-4.5807,-4.4864,-4.4523,-4.4467,-4.4223,-4.3912,-4.3723,-4.3353,-4.303,-4.2791,-4.2871,-4.3374,-4.3638,-4.3332,-4.364,-4.3855,-4.3907,-4.3907,-4.3797,-4.3797,-4.3797,-4.3797,-4.392,-4.4029,-4.4696,-4.4696,-4.5033,-4.5033,-4.5033,-4.5033,-4.5043,-4.521,-4.5642,-4.6343,-4.6338,-4.6553,-4.6834,-4.7248,-4.7751,-4.8199,-4.9019,-4.9806,-5.0676,-5.1536,-5.2013,-5.2487,-5.2203,-5.1887,-5.1536,-5.1057,-5.143,-5.2193,-5.2837,-5.329,-5.3515,-5.3515,-5.3515,-5.3515,-5.3515,-5.3515,-5.3515,-5.3515,-5.3515,-5.3515,-5.3515,-5.3515,-5.3515,-5.3515,-5.3515,-5.3515,-5.3515,-5.3515,-5.3515,-5.3515,-5.3515,-5.3515,-5.3515,-5.3515,-5.3515,-5.3515,-5.3515,-5.353,-5.353,-5.3515,-5.3515,-4.9698,-4.9683,-4.9683,-4.9683,-4.9683,-4.9683,-4.9683,-4.9766,-4.9781,-4.9669,-4.9683,-4.9683,-4.9683,-4.9683,-4.9683,-4.9683,-4.9683,-4.9683,-4.9683,-4.9669,-4.9683,-4.9585,-4.9585,-4.9683,-4.9357,-4.9499,-4.9339,-4.8769,-4.8062,-4.7022,-4.5736,-4.4546,-4.4597,-4.4676,-4.4769,-4.4583,-4.4397,-4.4241,-4.407,-4.3796,-4.3633,-4.4225,-4.4954,-4.3857,-4.4006,-4.4295,-4.4188,-4.4126,-4.4016,-4.4016,-4.4126,-4.4248,-4.4466,-4.4804,-4.5582,-4.5914,-4.6034,-4.6034,-4.6034,-4.6034,-4.6476,-4.7028,-4.7893,-4.8039,-4.7873,-4.7832,-4.8066,-4.8211,-4.859,-4.8891,-4.9533,-5.0232,-5.1003,-5.187,-5.238,-5.2581,-5.2564,-5.2094,-5.1728,-5.1516,-5.1896,-5.2652,-5.3064,-5.3515,-5.3515,-5.3515,-5.3515,-5.3515,-5.3515,-5.3515,-5.3515,-5.3515,-5.3515,-5.3515,-5.3515,-5.3515,-5.3515,-5.3515,-5.3515,-5.3515,-5.3515,-5.3515,-5.3515,-5.3515,-5.3515,-5.3515,-5.3515,-5.3515,-5.3515,-5.3515,-5.3515,-5.3544,-5.3664,-5.3693,-5.3515,-4.9683,-4.9683,-4.9683,-4.9683,-4.9683,-4.9683,-4.9781,-4.999,-4.999,-4.9878,-4.9781,-4.9683,-4.9781,-4.9781,-4.9781,-4.9766,-4.9708,-4.9635,-4.9669,-4.9553,-4.9621,-4.9393,-4.9596,-4.9422,-4.932,-4.9074,-4.8798,-4.8377,-4.7471,-4.6755,-4.6336,-4.559,-4.5413,-4.5321,-4.5321,-4.5138,-4.4968,-4.4904,-4.4664,-4.4359,-4.3891,-4.4439,-4.5062,-4.4726,-4.4913,-4.5361,-4.5448,-4.5795,-4.5795,-4.5901,-4.5914,-4.5914,-4.5914,-4.602,-4.6245,-4.6482,-4.6482,-4.6482,-4.6482,-4.6523,-4.6821,-4.7351,-4.7934,-4.8504,-4.8797,-4.9045,-4.914,-4.9186,-4.9373,-4.9667,-4.9974,-5.0636,-5.1183,-5.188,-5.2593,-5.2658,-5.271,-5.2281,-5.1903,-5.2112,-5.2429,-5.288,-5.3304,-5.3515,-5.3515,-5.3515,-5.3515,-5.3515,-5.3515,-5.3515,-5.3515,-5.3515,-5.3515,-5.3515,-5.3515,-5.3515,-5.3515,-5.3515,-5.3515,-5.3515,-5.35,-5.3515,-5.3515,-5.3515,-5.3515,-5.3515,-5.3515,-5.3515,-5.3515,-5.3486,-5.3591,-5.3696,-5.4138,-5.4435,-5.3975,-4.9683,-4.9683,-4.9683,-4.9781,-4.9878,-4.9878,-4.999,-5.0294,-5.0294,-5.0198,-5.0086,-5.0086,-5.0086,-5.0072,-5.0086,-4.9794,-4.9691,-4.9618,-4.923,-4.9047,-4.9106,-4.8864,-4.8937,-4.901,-4.8624,-4.8319,-4.7956,-4.7433,-4.6824,-4.6461,-4.6142,-4.5909,-4.588,-4.588,-4.588,-4.5595,-4.5398,-4.5413,-4.5138,-4.4755,-4.4275,-4.4676,-4.5246,-4.5228,-4.5737,-4.6228,-4.664,-4.6887,-4.6678,-4.6574,-4.6364,-4.6364,-4.6364,-4.6364,-4.6469,-4.6482,-4.6482,-4.6482,-4.6482,-4.6591,-4.6903,-4.7554,-4.7975,-4.8545,-4.944,-4.9535,-4.9549,-4.9683,-4.9683,-4.9939,-5.0115,-5.0594,-5.0891,-5.1481,-5.2303,-5.2642,-5.2856,-5.2844,-5.2491,-5.2297,-5.2759,-5.3198,-5.35,-5.3515,-5.3515,-5.3515,-5.3515,-5.3515,-5.3515,-5.3515,-5.3515,-5.3515,-5.3515,-5.3515,-5.3515,-5.3515,-5.3515,-5.3515,-5.35,-5.35,-5.35,-5.35,-5.3515,-5.3605,-5.3605,-5.3515,-5.3515,-5.362,-5.3547,-5.3489,-5.3712,-5.3831,-5.4436,-5.4894,-5.4657,-4.964,-4.9664,-4.9548,-4.9616,-4.9823,-4.9919,-4.9985,-5.0191,-5.0221,-5.0381,-5.0387,-5.0307,-5.0375,-5.0368,-5.0411,-4.9917,-4.9607,-4.9552,-4.906,-4.8746,-4.8643,-4.8805,-4.8683,-4.8336,-4.8185,-4.78,-4.7177,-4.6974,-4.6668,-4.6229,-4.5996,-4.5895,-4.588,-4.588,-4.588,-4.588,-4.579,-4.579,-4.5609,-4.5504,-4.5138,-4.4812,-4.5307,-4.5802,-4.6293,-4.6586,-4.7077,-4.7301,-4.7095,-4.6887,-4.6783,-4.6587,-4.6587,-4.6482,-4.6482,-4.6482,-4.6482,-4.6482,-4.6509,-4.6632,-4.7269,-4.7893,-4.8178,-4.8775,-4.9684,-4.9983,-4.9996,-4.9996,-4.9996,-5.0064,-5.0241,-5.039,-5.0675,-5.1156,-5.1904,-5.2656,-5.2867,-5.3092,-5.2851,-5.2666,-5.2972,-5.341,-5.35,-5.35,-5.3515,-5.3515,-5.3515,-5.3515,-5.3515,-5.3515,-5.3515,-5.3515,-5.3515,-5.3515,-5.3515,-5.35,-5.35,-5.3486,-5.3471,-5.3486,-5.3605,-5.3696,-5.38,-5.371,-5.371,-5.371,-5.3815,-5.3919,-5.3727,-5.3639,-5.3802,-5.4082,-5.4628,-5.5041,-5.5144,-4.9475,-4.9172,-4.8646,-4.8615,-4.883,-4.883,-4.8986,-4.9201,-4.9245,-4.9613,-5.0214,-4.9794,-4.9608,-4.9725,-4.9869,-4.9629,-4.9221,-4.9389,-4.9733,-4.9568,-4.9089,-4.9209,-4.9209,-4.8835,-4.8506,-4.7775,-4.699,-4.6488,-4.6651,-4.6281,-4.588,-4.597,-4.588,-4.588,-4.588,-4.588,-4.588,-4.588,-4.588,-4.579,-4.5685,-4.543,-4.5492,-4.5867,-4.6209,-4.6897,-4.7598,-4.7948,-4.7875,-4.7685,-4.7391,-4.6991,-4.6783,-4.6678,-4.6678,-4.6678,-4.6574,-4.6587,-4.6642,-4.6754,-4.7391,-4.8097,-4.8463,-4.9047,-4.9698,-4.9996,-4.9996,-4.9996,-4.9996,-4.9996,-5.0118,-5.0232,-5.0449,-5.1085,-5.1815,-5.2415,-5.2813,-5.295,-5.2878,-5.2994,-5.315,-5.3453,-5.35,-5.3515,-5.3515,-5.3515,-5.3515,-5.3515,-5.3515,-5.3515,-5.3515,-5.35,-5.35,-5.3515,-5.3515,-5.35,-5.3605,-5.3576,-5.3681,-5.3858,-5.4081,-5.4097,-5.4097,-5.4008,-5.4008,-5.4097,-5.4112,-5.4126,-5.4171,-5.4112,-5.4156,-5.4363,-5.4981,-5.5158,-5.5245]}]]